<?xml version="1.0" encoding="UTF-8" standalone="no" ?><gpx xmlns="http://www.topografix.com/GPX/1/1" xmlns:gpxx="http://www.garmin.com/xmlschemas/GpxExtensions/v3" xmlns:wptx1="http://www.garmin.com/xmlschemas/WaypointExtension/v1" xmlns:gpxtpx="http://www.garmin.com/xmlschemas/TrackPointExtension/v1" creator="GuideVTT.com" version="1.1" xmlns:xsi="http://www.w3.org/2001/XMLSchema-instance" xsi:schemaLocation="http://www.topografix.com/GPX/1/1 http://www.topografix.com/GPX/1/1/gpx.xsd http://www.garmin.com/xmlschemas/GpxExtensions/v3 http://www8.garmin.com/xmlschemas/GpxExtensionsv3.xsd http://www.garmin.com/xmlschemas/WaypointExtension/v1 http://www8.garmin.com/xmlschemas/WaypointExtensionv1.xsd http://www.garmin.com/xmlschemas/TrackPointExtension/v1 http://www.garmin.com/xmlschemas/TrackPointExtensionv1.xsd">
<metadata><link href="http://www.garmin.com"><text>Garmin International</text></link><time>2013-06-22T15:13:50Z</time></metadata>
<trk><name>bex-vallonde_van_29,05,2011.gpx</name><extensions><gpxx:TrackExtension><gpxx:DisplayColor>Cyan</gpxx:DisplayColor></gpxx:TrackExtension></extensions><trkseg>
<trkpt lat="46.24615498" lon="7.01237395"><ele></ele><time>2014-4-6T16:38:12Z</time></trkpt>
<trkpt lat="46.24620292" lon="7.01216499"><ele></ele><time>2014-4-6T16:38:15Z</time></trkpt>
<trkpt lat="46.24626294" lon="7.01205997"><ele></ele><time>2014-4-6T16:38:18Z</time></trkpt>
<trkpt lat="46.24644692" lon="7.01187196"><ele></ele><time>2014-4-6T16:38:21Z</time></trkpt>
<trkpt lat="46.24655396" lon="7.01168898"><ele></ele><time>2014-4-6T16:38:24Z</time></trkpt>
<trkpt lat="46.24655496" lon="7.01160592"><ele></ele><time>2014-4-6T16:38:27Z</time></trkpt>
<trkpt lat="46.24648799" lon="7.01092095"><ele></ele><time>2014-4-6T16:38:30Z</time></trkpt>
<trkpt lat="46.24647592" lon="7.01084392"><ele></ele><time>2014-4-6T16:38:33Z</time></trkpt>
<trkpt lat="46.24632899" lon="7.01016096"><ele></ele><time>2014-4-6T16:38:36Z</time></trkpt>
<trkpt lat="46.24618398" lon="7.00962192"><ele></ele><time>2014-4-6T16:38:39Z</time></trkpt>
<trkpt lat="46.24603193" lon="7.00916000"><ele></ele><time>2014-4-6T16:38:42Z</time></trkpt>
<trkpt lat="46.24604199" lon="7.00879295"><ele></ele><time>2014-4-6T16:38:45Z</time></trkpt>
<trkpt lat="46.24618197" lon="7.00854200"><ele></ele><time>2014-4-6T16:38:48Z</time></trkpt>
<trkpt lat="46.24641197" lon="7.00800397"><ele></ele><time>2014-4-6T16:38:51Z</time></trkpt>
<trkpt lat="46.24661800" lon="7.00768394"><ele></ele><time>2014-4-6T16:38:54Z</time></trkpt>
<trkpt lat="46.24703097" lon="7.00731799"><ele></ele><time>2014-4-6T16:38:57Z</time></trkpt>
<trkpt lat="46.24739894" lon="7.00700199"><ele></ele><time>2014-4-6T16:39:0Z</time></trkpt>
<trkpt lat="46.24764092" lon="7.00667392"><ele></ele><time>2014-4-6T16:39:3Z</time></trkpt>
<trkpt lat="46.24777294" lon="7.00648500"><ele></ele><time>2014-4-6T16:39:6Z</time></trkpt>
<trkpt lat="46.24776296" lon="7.00632893"><ele></ele><time>2014-4-6T16:39:9Z</time></trkpt>
<trkpt lat="46.24765492" lon="7.00564999"><ele></ele><time>2014-4-6T16:39:12Z</time></trkpt>
<trkpt lat="46.24748292" lon="7.00500098"><ele></ele><time>2014-4-6T16:39:15Z</time></trkpt>
<trkpt lat="46.24719299" lon="7.00418098"><ele></ele><time>2014-4-6T16:39:18Z</time></trkpt>
<trkpt lat="46.24704296" lon="7.00392097"><ele></ele><time>2014-4-6T16:39:21Z</time></trkpt>
<trkpt lat="46.24690197" lon="7.00353499"><ele></ele><time>2014-4-6T16:39:24Z</time></trkpt>
<trkpt lat="46.24660894" lon="7.00286795"><ele></ele><time>2014-4-6T16:39:27Z</time></trkpt>
<trkpt lat="46.24632798" lon="7.00195894"><ele></ele><time>2014-4-6T16:39:30Z</time></trkpt>
<trkpt lat="46.24622296" lon="7.00140699"><ele></ele><time>2014-4-6T16:39:33Z</time></trkpt>
<trkpt lat="46.24601492" lon="7.00044299"><ele></ele><time>2014-4-6T16:39:36Z</time></trkpt>
<trkpt lat="46.24579900" lon="6.99948099"><ele></ele><time>2014-4-6T16:39:39Z</time></trkpt>
<trkpt lat="46.24557193" lon="6.99840593"><ele></ele><time>2014-4-6T16:39:42Z</time></trkpt>
<trkpt lat="46.24543497" lon="6.99774493"><ele></ele><time>2014-4-6T16:39:45Z</time></trkpt>
<trkpt lat="46.24548594" lon="6.99729097"><ele></ele><time>2014-4-6T16:39:48Z</time></trkpt>
<trkpt lat="46.24552692" lon="6.99695494"><ele></ele><time>2014-4-6T16:39:51Z</time></trkpt>
<trkpt lat="46.24543699" lon="6.99661095"><ele></ele><time>2014-4-6T16:39:54Z</time></trkpt>
<trkpt lat="46.24523800" lon="6.99641297"><ele></ele><time>2014-4-6T16:39:57Z</time></trkpt>
<trkpt lat="46.24507899" lon="6.99615296"><ele></ele><time>2014-4-6T16:40:0Z</time></trkpt>
<trkpt lat="46.24502200" lon="6.99594199"><ele></ele><time>2014-4-6T16:40:3Z</time></trkpt>
<trkpt lat="46.24480197" lon="6.99486793"><ele></ele><time>2014-4-6T16:40:6Z</time></trkpt>
<trkpt lat="46.24463894" lon="6.99429695"><ele></ele><time>2014-4-6T16:40:9Z</time></trkpt>
<trkpt lat="46.24441297" lon="6.99360997"><ele></ele><time>2014-4-6T16:40:12Z</time></trkpt>
<trkpt lat="46.24426494" lon="6.99287999"><ele></ele><time>2014-4-6T16:40:15Z</time></trkpt>
<trkpt lat="46.24406696" lon="6.99225998"><ele></ele><time>2014-4-6T16:40:18Z</time></trkpt>
<trkpt lat="46.24381199" lon="6.99180694"><ele></ele><time>2014-4-6T16:40:21Z</time></trkpt>
<trkpt lat="46.24355894" lon="6.99136094"><ele></ele><time>2014-4-6T16:40:24Z</time></trkpt>
<trkpt lat="46.24319893" lon="6.99077798"><ele></ele><time>2014-4-6T16:40:27Z</time></trkpt>
<trkpt lat="46.24288696" lon="6.99022394"><ele></ele><time>2014-4-6T16:40:30Z</time></trkpt>
<trkpt lat="46.24278696" lon="6.99020600"><ele></ele><time>2014-4-6T16:40:33Z</time></trkpt>
<trkpt lat="46.24273592" lon="6.99030792"><ele></ele><time>2014-4-6T16:40:36Z</time></trkpt>
<trkpt lat="46.24250994" lon="6.99058796"><ele></ele><time>2014-4-6T16:40:39Z</time></trkpt>
<trkpt lat="46.24212798" lon="6.99105098"><ele></ele><time>2014-4-6T16:40:42Z</time></trkpt>
<trkpt lat="46.24169799" lon="6.99150394"><ele></ele><time>2014-4-6T16:40:45Z</time></trkpt>
<trkpt lat="46.24135894" lon="6.99178096"><ele></ele><time>2014-4-6T16:40:48Z</time></trkpt>
<trkpt lat="46.24097899" lon="6.99215395"><ele></ele><time>2014-4-6T16:40:51Z</time></trkpt>
<trkpt lat="46.24052695" lon="6.99264597"><ele></ele><time>2014-4-6T16:40:54Z</time></trkpt>
<trkpt lat="46.24008698" lon="6.99313799"><ele></ele><time>2014-4-6T16:40:57Z</time></trkpt>
<trkpt lat="46.23972799" lon="6.99352699"><ele></ele><time>2014-4-6T16:41:0Z</time></trkpt>
<trkpt lat="46.23942993" lon="6.99376093"><ele></ele><time>2014-4-6T16:41:3Z</time></trkpt>
<trkpt lat="46.23902592" lon="6.99405899"><ele></ele><time>2014-4-6T16:41:6Z</time></trkpt>
<trkpt lat="46.23864898" lon="6.99431992"><ele></ele><time>2014-4-6T16:41:9Z</time></trkpt>
<trkpt lat="46.23821799" lon="6.99454296"><ele></ele><time>2014-4-6T16:41:12Z</time></trkpt>
<trkpt lat="46.23770099" lon="6.99472795"><ele></ele><time>2014-4-6T16:41:15Z</time></trkpt>
<trkpt lat="46.23725499" lon="6.99487095"><ele></ele><time>2014-4-6T16:41:18Z</time></trkpt>
<trkpt lat="46.23697797" lon="6.99499995"><ele></ele><time>2014-4-6T16:41:21Z</time></trkpt>
<trkpt lat="46.23653498" lon="6.99524897"><ele></ele><time>2014-4-6T16:41:24Z</time></trkpt>
<trkpt lat="46.23630297" lon="6.99536498"><ele></ele><time>2014-4-6T16:41:27Z</time></trkpt>
<trkpt lat="46.23617096" lon="6.99546196"><ele></ele><time>2014-4-6T16:41:30Z</time></trkpt>
<trkpt lat="46.23584398" lon="6.99589496"><ele></ele><time>2014-4-6T16:41:33Z</time></trkpt>
<trkpt lat="46.23569093" lon="6.99615698"><ele></ele><time>2014-4-6T16:41:36Z</time></trkpt>
<trkpt lat="46.23557299" lon="6.99618699"><ele></ele><time>2014-4-6T16:41:39Z</time></trkpt>
<trkpt lat="46.23553494" lon="6.99614500"><ele></ele><time>2014-4-6T16:41:42Z</time></trkpt>
<trkpt lat="46.23518198" lon="6.99578499"><ele></ele><time>2014-4-6T16:41:45Z</time></trkpt>
<trkpt lat="46.23488995" lon="6.99549599"><ele></ele><time>2014-4-6T16:41:48Z</time></trkpt>
<trkpt lat="46.23473598" lon="6.99533799"><ele></ele><time>2014-4-6T16:41:51Z</time></trkpt>
<trkpt lat="46.23465694" lon="6.99519197"><ele></ele><time>2014-4-6T16:41:54Z</time></trkpt>
<trkpt lat="46.23454998" lon="6.99521394"><ele></ele><time>2014-4-6T16:41:57Z</time></trkpt>
<trkpt lat="46.23451696" lon="6.99521595"><ele></ele><time>2014-4-6T16:42:0Z</time></trkpt>
<trkpt lat="46.23422393" lon="6.99518795"><ele></ele><time>2014-4-6T16:42:3Z</time></trkpt>
<trkpt lat="46.23403198" lon="6.99519298"><ele></ele><time>2014-4-6T16:42:6Z</time></trkpt>
<trkpt lat="46.23383492" lon="6.99540496"><ele></ele><time>2014-4-6T16:42:9Z</time></trkpt>
<trkpt lat="46.23346796" lon="6.99583998"><ele></ele><time>2014-4-6T16:42:12Z</time></trkpt>
<trkpt lat="46.23314098" lon="6.99623493"><ele></ele><time>2014-4-6T16:42:15Z</time></trkpt>
<trkpt lat="46.23295197" lon="6.99635698"><ele></ele><time>2014-4-6T16:42:18Z</time></trkpt>
<trkpt lat="46.23278299" lon="6.99653492"><ele></ele><time>2014-4-6T16:42:21Z</time></trkpt>
<trkpt lat="46.23272398" lon="6.99663593"><ele></ele><time>2014-4-6T16:42:24Z</time></trkpt>
<trkpt lat="46.23261494" lon="6.99684095"><ele></ele><time>2014-4-6T16:42:27Z</time></trkpt>
<trkpt lat="46.23228000" lon="6.99724294"><ele></ele><time>2014-4-6T16:42:30Z</time></trkpt>
<trkpt lat="46.23186392" lon="6.99770998"><ele></ele><time>2014-4-6T16:42:33Z</time></trkpt>
<trkpt lat="46.23139294" lon="6.99825397"><ele></ele><time>2014-4-6T16:42:36Z</time></trkpt>
<trkpt lat="46.23105892" lon="6.99864398"><ele></ele><time>2014-4-6T16:42:39Z</time></trkpt>
<trkpt lat="46.23064695" lon="6.99911898"><ele></ele><time>2014-4-6T16:42:42Z</time></trkpt>
<trkpt lat="46.23026398" lon="6.99950195"><ele></ele><time>2014-4-6T16:42:45Z</time></trkpt>
<trkpt lat="46.22994396" lon="6.99979800"><ele></ele><time>2014-4-6T16:42:48Z</time></trkpt>
<trkpt lat="46.22964699" lon="7.00005096"><ele></ele><time>2014-4-6T16:42:51Z</time></trkpt>
<trkpt lat="46.22934197" lon="7.00027099"><ele></ele><time>2014-4-6T16:42:54Z</time></trkpt>
<trkpt lat="46.22903394" lon="7.00048297"><ele></ele><time>2014-4-6T16:42:57Z</time></trkpt>
<trkpt lat="46.22878097" lon="7.00063996"><ele></ele><time>2014-4-6T16:43:0Z</time></trkpt>
<trkpt lat="46.22845097" lon="7.00081497"><ele></ele><time>2014-4-6T16:43:3Z</time></trkpt>
<trkpt lat="46.22805292" lon="7.00094699"><ele></ele><time>2014-4-6T16:43:6Z</time></trkpt>
<trkpt lat="46.22766894" lon="7.00105193"><ele></ele><time>2014-4-6T16:43:9Z</time></trkpt>
<trkpt lat="46.22717097" lon="7.00115897"><ele></ele><time>2014-4-6T16:43:12Z</time></trkpt>
<trkpt lat="46.22685196" lon="7.00122493"><ele></ele><time>2014-4-6T16:43:15Z</time></trkpt>
<trkpt lat="46.22669195" lon="7.00125494"><ele></ele><time>2014-4-6T16:43:18Z</time></trkpt>
<trkpt lat="46.22644200" lon="7.00128998"><ele></ele><time>2014-4-6T16:43:21Z</time></trkpt>
<trkpt lat="46.22612399" lon="7.00134094"><ele></ele><time>2014-4-6T16:43:24Z</time></trkpt>
<trkpt lat="46.22577698" lon="7.00130892"><ele></ele><time>2014-4-6T16:43:27Z</time></trkpt>
<trkpt lat="46.22567296" lon="7.00130800"><ele></ele><time>2014-4-6T16:43:30Z</time></trkpt>
<trkpt lat="46.22542896" lon="7.00143993"><ele></ele><time>2014-4-6T16:43:33Z</time></trkpt>
<trkpt lat="46.22530097" lon="7.00153599"><ele></ele><time>2014-4-6T16:43:36Z</time></trkpt>
<trkpt lat="46.22525294" lon="7.00167697"><ele></ele><time>2014-4-6T16:43:39Z</time></trkpt>
<trkpt lat="46.22524892" lon="7.00183296"><ele></ele><time>2014-4-6T16:43:42Z</time></trkpt>
<trkpt lat="46.22509394" lon="7.00193396"><ele></ele><time>2014-4-6T16:43:45Z</time></trkpt>
<trkpt lat="46.22473494" lon="7.00209497"><ele></ele><time>2014-4-6T16:43:48Z</time></trkpt>
<trkpt lat="46.22423597" lon="7.00232699"><ele></ele><time>2014-4-6T16:43:51Z</time></trkpt>
<trkpt lat="46.22394595" lon="7.00253796"><ele></ele><time>2014-4-6T16:43:54Z</time></trkpt>
<trkpt lat="46.22371797" lon="7.00280299"><ele></ele><time>2014-4-6T16:43:57Z</time></trkpt>
<trkpt lat="46.22340398" lon="7.00319594"><ele></ele><time>2014-4-6T16:44:0Z</time></trkpt>
<trkpt lat="46.22300299" lon="7.00348293"><ele></ele><time>2014-4-6T16:44:3Z</time></trkpt>
<trkpt lat="46.22255799" lon="7.00378695"><ele></ele><time>2014-4-6T16:44:6Z</time></trkpt>
<trkpt lat="46.22199498" lon="7.00420998"><ele></ele><time>2014-4-6T16:44:9Z</time></trkpt>
<trkpt lat="46.22169793" lon="7.00439497"><ele></ele><time>2014-4-6T16:44:12Z</time></trkpt>
<trkpt lat="46.22133692" lon="7.00451299"><ele></ele><time>2014-4-6T16:44:15Z</time></trkpt>
<trkpt lat="46.22089896" lon="7.00445297"><ele></ele><time>2014-4-6T16:44:18Z</time></trkpt>
<trkpt lat="46.22047794" lon="7.00426597"><ele></ele><time>2014-4-6T16:44:21Z</time></trkpt>
<trkpt lat="46.22012892" lon="7.00417897"><ele></ele><time>2014-4-6T16:44:24Z</time></trkpt>
<trkpt lat="46.21980999" lon="7.00408299"><ele></ele><time>2014-4-6T16:44:27Z</time></trkpt>
<trkpt lat="46.21940799" lon="7.00405793"><ele></ele><time>2014-4-6T16:44:30Z</time></trkpt>
<trkpt lat="46.21892896" lon="7.00406397"><ele></ele><time>2014-4-6T16:44:33Z</time></trkpt>
<trkpt lat="46.21843896" lon="7.00400194"><ele></ele><time>2014-4-6T16:44:36Z</time></trkpt>
<trkpt lat="46.21799598" lon="7.00387294"><ele></ele><time>2014-4-6T16:44:39Z</time></trkpt>
<trkpt lat="46.21765793" lon="7.00379692"><ele></ele><time>2014-4-6T16:44:42Z</time></trkpt>
<trkpt lat="46.21723297" lon="7.00381796"><ele></ele><time>2014-4-6T16:44:45Z</time></trkpt>
<trkpt lat="46.21709593" lon="7.00385392"><ele></ele><time>2014-4-6T16:44:48Z</time></trkpt>
<trkpt lat="46.21696592" lon="7.00373397"><ele></ele><time>2014-4-6T16:44:51Z</time></trkpt>
<trkpt lat="46.21694396" lon="7.00361193"><ele></ele><time>2014-4-6T16:44:54Z</time></trkpt>
<trkpt lat="46.21689292" lon="7.00300198"><ele></ele><time>2014-4-6T16:44:57Z</time></trkpt>
<trkpt lat="46.21680692" lon="7.00278497"><ele></ele><time>2014-4-6T16:45:0Z</time></trkpt>
<trkpt lat="46.21666593" lon="7.00254693"><ele></ele><time>2014-4-6T16:45:3Z</time></trkpt>
<trkpt lat="46.21663199" lon="7.00234693"><ele></ele><time>2014-4-6T16:45:6Z</time></trkpt>
<trkpt lat="46.21668094" lon="7.00217494"><ele></ele><time>2014-4-6T16:45:9Z</time></trkpt>
<trkpt lat="46.21669896" lon="7.00211995"><ele></ele><time>2014-4-6T16:45:12Z</time></trkpt>
<trkpt lat="46.21661992" lon="7.00258599"><ele></ele><time>2014-4-6T16:45:15Z</time></trkpt>
<trkpt lat="46.21644893" lon="7.00257199"><ele></ele><time>2014-4-6T16:45:18Z</time></trkpt>
<trkpt lat="46.21628699" lon="7.00258397"><ele></ele><time>2014-4-6T16:45:21Z</time></trkpt>
<trkpt lat="46.21597200" lon="7.00248700"><ele></ele><time>2014-4-6T16:45:24Z</time></trkpt>
<trkpt lat="46.21547998" lon="7.00240192"><ele></ele><time>2014-4-6T16:45:27Z</time></trkpt>
<trkpt lat="46.21505292" lon="7.00241793"><ele></ele><time>2014-4-6T16:45:30Z</time></trkpt>
<trkpt lat="46.21470792" lon="7.00243394"><ele></ele><time>2014-4-6T16:45:33Z</time></trkpt>
<trkpt lat="46.21466300" lon="7.00243595"><ele></ele><time>2014-4-6T16:45:36Z</time></trkpt>
<trkpt lat="46.21450994" lon="7.00244794"><ele></ele><time>2014-4-6T16:45:39Z</time></trkpt>
<trkpt lat="46.21444297" lon="7.00245297"><ele></ele><time>2014-4-6T16:45:42Z</time></trkpt>
<trkpt lat="46.21423694" lon="7.00247300"><ele></ele><time>2014-4-6T16:45:45Z</time></trkpt>
<trkpt lat="46.21397492" lon="7.00257299"><ele></ele><time>2014-4-6T16:45:48Z</time></trkpt>
<trkpt lat="46.21359900" lon="7.00267299"><ele></ele><time>2014-4-6T16:45:51Z</time></trkpt>
<trkpt lat="46.21336196" lon="7.00274298"><ele></ele><time>2014-4-6T16:45:54Z</time></trkpt>
<trkpt lat="46.21309097" lon="7.00283593"><ele></ele><time>2014-4-6T16:45:57Z</time></trkpt>
<trkpt lat="46.21283096" lon="7.00294700"><ele></ele><time>2014-4-6T16:46:0Z</time></trkpt>
<trkpt lat="46.21276592" lon="7.00291992"><ele></ele><time>2014-4-6T16:46:3Z</time></trkpt>
<trkpt lat="46.21270993" lon="7.00269395"><ele></ele><time>2014-4-6T16:46:6Z</time></trkpt>
<trkpt lat="46.21261396" lon="7.00216195"><ele></ele><time>2014-4-6T16:46:9Z</time></trkpt>
<trkpt lat="46.21251496" lon="7.00162592"><ele></ele><time>2014-4-6T16:46:12Z</time></trkpt>
<trkpt lat="46.21248093" lon="7.00143197"><ele></ele><time>2014-4-6T16:46:15Z</time></trkpt>
<trkpt lat="46.21244296" lon="7.00124396"><ele></ele><time>2014-4-6T16:46:18Z</time></trkpt>
<trkpt lat="46.21232394" lon="7.00110599"><ele></ele><time>2014-4-6T16:46:21Z</time></trkpt>
<trkpt lat="46.21228195" lon="7.00111798"><ele></ele><time>2014-4-6T16:46:24Z</time></trkpt>
<trkpt lat="46.21178892" lon="7.00135100"><ele></ele><time>2014-4-6T16:46:27Z</time></trkpt>
<trkpt lat="46.21126397" lon="7.00160497"><ele></ele><time>2014-4-6T16:46:30Z</time></trkpt>
<trkpt lat="46.21051094" lon="7.00196799"><ele></ele><time>2014-4-6T16:46:33Z</time></trkpt>
<trkpt lat="46.21009595" lon="7.00216396"><ele></ele><time>2014-4-6T16:46:36Z</time></trkpt>
<trkpt lat="46.20971499" lon="7.00234593"><ele></ele><time>2014-4-6T16:46:39Z</time></trkpt>
<trkpt lat="46.20934292" lon="7.00252295"><ele></ele><time>2014-4-6T16:46:42Z</time></trkpt>
<trkpt lat="46.20891293" lon="7.00276695"><ele></ele><time>2014-4-6T16:46:45Z</time></trkpt>
<trkpt lat="46.20857798" lon="7.00300994"><ele></ele><time>2014-4-6T16:46:48Z</time></trkpt>
<trkpt lat="46.20854496" lon="7.00303400"><ele></ele><time>2014-4-6T16:46:51Z</time></trkpt>
<trkpt lat="46.20846299" lon="7.00307197"><ele></ele><time>2014-4-6T16:46:54Z</time></trkpt>
<trkpt lat="46.20829593" lon="7.00328898"><ele></ele><time>2014-4-6T16:46:57Z</time></trkpt>
<trkpt lat="46.20829795" lon="7.00349995"><ele></ele><time>2014-4-6T16:47:0Z</time></trkpt>
<trkpt lat="46.20842795" lon="7.00371696"><ele></ele><time>2014-4-6T16:47:3Z</time></trkpt>
<trkpt lat="46.20860196" lon="7.00397596"><ele></ele><time>2014-4-6T16:47:6Z</time></trkpt>
<trkpt lat="46.20869894" lon="7.00443797"><ele></ele><time>2014-4-6T16:47:9Z</time></trkpt>
<trkpt lat="46.20885593" lon="7.00538093"><ele></ele><time>2014-4-6T16:47:12Z</time></trkpt>
<trkpt lat="46.20874998" lon="7.00556500"><ele></ele><time>2014-4-6T16:47:15Z</time></trkpt>
<trkpt lat="46.20866792" lon="7.00557397"><ele></ele><time>2014-4-6T16:47:18Z</time></trkpt>
<trkpt lat="46.20818596" lon="7.00577094"><ele></ele><time>2014-4-6T16:47:21Z</time></trkpt>
<trkpt lat="46.20783594" lon="7.00611695"><ele></ele><time>2014-4-6T16:47:24Z</time></trkpt>
<trkpt lat="46.20743997" lon="7.00651693"><ele></ele><time>2014-4-6T16:47:27Z</time></trkpt>
<trkpt lat="46.20670396" lon="7.00707693"><ele></ele><time>2014-4-6T16:47:30Z</time></trkpt>
<trkpt lat="46.20596794" lon="7.00762594"><ele></ele><time>2014-4-6T16:47:33Z</time></trkpt>
<trkpt lat="46.20535900" lon="7.00807798"><ele></ele><time>2014-4-6T16:47:36Z</time></trkpt>
<trkpt lat="46.20473396" lon="7.00856597"><ele></ele><time>2014-4-6T16:47:39Z</time></trkpt>
<trkpt lat="46.20421898" lon="7.00896596"><ele></ele><time>2014-4-6T16:47:42Z</time></trkpt>
<trkpt lat="46.20357994" lon="7.00945797"><ele></ele><time>2014-4-6T16:47:45Z</time></trkpt>
<trkpt lat="46.20296697" lon="7.00997598"><ele></ele><time>2014-4-6T16:47:48Z</time></trkpt>
<trkpt lat="46.20274393" lon="7.01020195"><ele></ele><time>2014-4-6T16:47:51Z</time></trkpt>
<trkpt lat="46.20244796" lon="7.01051200"><ele></ele><time>2014-4-6T16:47:54Z</time></trkpt>
<trkpt lat="46.20212694" lon="7.01087594"><ele></ele><time>2014-4-6T16:47:57Z</time></trkpt>
<trkpt lat="46.20185696" lon="7.01123695"><ele></ele><time>2014-4-6T16:48:0Z</time></trkpt>
<trkpt lat="46.20157993" lon="7.01167298"><ele></ele><time>2014-4-6T16:48:3Z</time></trkpt>
<trkpt lat="46.20137198" lon="7.01204899"><ele></ele><time>2014-4-6T16:48:6Z</time></trkpt>
<trkpt lat="46.20116897" lon="7.01243196"><ele></ele><time>2014-4-6T16:48:9Z</time></trkpt>
<trkpt lat="46.20101499" lon="7.01265098"><ele></ele><time>2014-4-6T16:48:12Z</time></trkpt>
<trkpt lat="46.20092296" lon="7.01293495"><ele></ele><time>2014-4-6T16:48:15Z</time></trkpt>
<trkpt lat="46.20072096" lon="7.01341893"><ele></ele><time>2014-4-6T16:48:18Z</time></trkpt>
<trkpt lat="46.20054100" lon="7.01389594"><ele></ele><time>2014-4-6T16:48:21Z</time></trkpt>
<trkpt lat="46.20037093" lon="7.01440196"><ele></ele><time>2014-4-6T16:48:24Z</time></trkpt>
<trkpt lat="46.20023296" lon="7.01485592"><ele></ele><time>2014-4-6T16:48:27Z</time></trkpt>
<trkpt lat="46.20006692" lon="7.01543796"><ele></ele><time>2014-4-6T16:48:30Z</time></trkpt>
<trkpt lat="46.19998494" lon="7.01579394"><ele></ele><time>2014-4-6T16:48:33Z</time></trkpt>
<trkpt lat="46.19996298" lon="7.01582495"><ele></ele><time>2014-4-6T16:48:36Z</time></trkpt>
<trkpt lat="46.19993197" lon="7.01584197"><ele></ele><time>2014-4-6T16:48:39Z</time></trkpt>
<trkpt lat="46.19993398" lon="7.01595294"><ele></ele><time>2014-4-6T16:48:42Z</time></trkpt>
<trkpt lat="46.19989995" lon="7.01618395"><ele></ele><time>2014-4-6T16:48:45Z</time></trkpt>
<trkpt lat="46.19991696" lon="7.01642099"><ele></ele><time>2014-4-6T16:48:48Z</time></trkpt>
<trkpt lat="46.19976399" lon="7.01711392"><ele></ele><time>2014-4-6T16:48:51Z</time></trkpt>
<trkpt lat="46.19958194" lon="7.01770392"><ele></ele><time>2014-4-6T16:48:54Z</time></trkpt>
<trkpt lat="46.19934699" lon="7.01803098"><ele></ele><time>2014-4-6T16:48:57Z</time></trkpt>
<trkpt lat="46.19907592" lon="7.01835092"><ele></ele><time>2014-4-6T16:49:0Z</time></trkpt>
<trkpt lat="46.19887794" lon="7.01858394"><ele></ele><time>2014-4-6T16:49:3Z</time></trkpt>
<trkpt lat="46.19864099" lon="7.01887596"><ele></ele><time>2014-4-6T16:49:6Z</time></trkpt>
<trkpt lat="46.19844996" lon="7.01912893"><ele></ele><time>2014-4-6T16:49:9Z</time></trkpt>
<trkpt lat="46.19827294" lon="7.01935600"><ele></ele><time>2014-4-6T16:49:12Z</time></trkpt>
<trkpt lat="46.19810295" lon="7.01957795"><ele></ele><time>2014-4-6T16:49:15Z</time></trkpt>
<trkpt lat="46.19789198" lon="7.01983293"><ele></ele><time>2014-4-6T16:49:18Z</time></trkpt>
<trkpt lat="46.19766793" lon="7.02007198"><ele></ele><time>2014-4-6T16:49:21Z</time></trkpt>
<trkpt lat="46.19742092" lon="7.02032696"><ele></ele><time>2014-4-6T16:49:24Z</time></trkpt>
<trkpt lat="46.19725395" lon="7.02050197"><ele></ele><time>2014-4-6T16:49:27Z</time></trkpt>
<trkpt lat="46.19695497" lon="7.02076499"><ele></ele><time>2014-4-6T16:49:30Z</time></trkpt>
<trkpt lat="46.19666797" lon="7.02101695"><ele></ele><time>2014-4-6T16:49:33Z</time></trkpt>
<trkpt lat="46.19642993" lon="7.02122600"><ele></ele><time>2014-4-6T16:49:36Z</time></trkpt>
<trkpt lat="46.19623094" lon="7.02140696"><ele></ele><time>2014-4-6T16:49:39Z</time></trkpt>
<trkpt lat="46.19607696" lon="7.02153898"><ele></ele><time>2014-4-6T16:49:42Z</time></trkpt>
<trkpt lat="46.19590597" lon="7.02169094"><ele></ele><time>2014-4-6T16:49:45Z</time></trkpt>
<trkpt lat="46.19573892" lon="7.02185498"><ele></ele><time>2014-4-6T16:49:48Z</time></trkpt>
<trkpt lat="46.19550096" lon="7.02204692"><ele></ele><time>2014-4-6T16:49:51Z</time></trkpt>
<trkpt lat="46.19531597" lon="7.02223593"><ele></ele><time>2014-4-6T16:49:54Z</time></trkpt>
<trkpt lat="46.19504993" lon="7.02252394"><ele></ele><time>2014-4-6T16:49:57Z</time></trkpt>
<trkpt lat="46.19478498" lon="7.02278495"><ele></ele><time>2014-4-6T16:50:0Z</time></trkpt>
<trkpt lat="46.19444895" lon="7.02309198"><ele></ele><time>2014-4-6T16:50:3Z</time></trkpt>
<trkpt lat="46.19418693" lon="7.02330697"><ele></ele><time>2014-4-6T16:50:6Z</time></trkpt>
<trkpt lat="46.19389499" lon="7.02355499"><ele></ele><time>2014-4-6T16:50:9Z</time></trkpt>
<trkpt lat="46.19360397" lon="7.02372699"><ele></ele><time>2014-4-6T16:50:12Z</time></trkpt>
<trkpt lat="46.19319392" lon="7.02394794"><ele></ele><time>2014-4-6T16:50:15Z</time></trkpt>
<trkpt lat="46.19274298" lon="7.02418892"><ele></ele><time>2014-4-6T16:50:18Z</time></trkpt>
<trkpt lat="46.19235800" lon="7.02439000"><ele></ele><time>2014-4-6T16:50:21Z</time></trkpt>
<trkpt lat="46.19186598" lon="7.02466099"><ele></ele><time>2014-4-6T16:50:24Z</time></trkpt>
<trkpt lat="46.19140900" lon="7.02488797"><ele></ele><time>2014-4-6T16:50:27Z</time></trkpt>
<trkpt lat="46.19093198" lon="7.02513599"><ele></ele><time>2014-4-6T16:50:30Z</time></trkpt>
<trkpt lat="46.19059595" lon="7.02534696"><ele></ele><time>2014-4-6T16:50:33Z</time></trkpt>
<trkpt lat="46.19016395" lon="7.02565298"><ele></ele><time>2014-4-6T16:50:36Z</time></trkpt>
<trkpt lat="46.18985499" lon="7.02590394"><ele></ele><time>2014-4-6T16:50:39Z</time></trkpt>
<trkpt lat="46.18944998" lon="7.02627794"><ele></ele><time>2014-4-6T16:50:42Z</time></trkpt>
<trkpt lat="46.18897095" lon="7.02672997"><ele></ele><time>2014-4-6T16:50:45Z</time></trkpt>
<trkpt lat="46.18845697" lon="7.02712099"><ele></ele><time>2014-4-6T16:50:48Z</time></trkpt>
<trkpt lat="46.18790494" lon="7.02743397"><ele></ele><time>2014-4-6T16:50:51Z</time></trkpt>
<trkpt lat="46.18741896" lon="7.02763899"><ele></ele><time>2014-4-6T16:50:54Z</time></trkpt>
<trkpt lat="46.18685897" lon="7.02781292"><ele></ele><time>2014-4-6T16:50:57Z</time></trkpt>
<trkpt lat="46.18645496" lon="7.02793797"><ele></ele><time>2014-4-6T16:51:0Z</time></trkpt>
<trkpt lat="46.18628497" lon="7.02798693"><ele></ele><time>2014-4-6T16:51:3Z</time></trkpt>
<trkpt lat="46.18607492" lon="7.02809799"><ele></ele><time>2014-4-6T16:51:6Z</time></trkpt>
<trkpt lat="46.18597593" lon="7.02816697"><ele></ele><time>2014-4-6T16:51:9Z</time></trkpt>
<trkpt lat="46.18571693" lon="7.02828700"><ele></ele><time>2014-4-6T16:51:12Z</time></trkpt>
<trkpt lat="46.18539096" lon="7.02846092"><ele></ele><time>2014-4-6T16:51:15Z</time></trkpt>
<trkpt lat="46.18493398" lon="7.02865798"><ele></ele><time>2014-4-6T16:51:18Z</time></trkpt>
<trkpt lat="46.18456895" lon="7.02884699"><ele></ele><time>2014-4-6T16:51:21Z</time></trkpt>
<trkpt lat="46.18406394" lon="7.02907196"><ele></ele><time>2014-4-6T16:51:24Z</time></trkpt>
<trkpt lat="46.18349397" lon="7.02927799"><ele></ele><time>2014-4-6T16:51:27Z</time></trkpt>
<trkpt lat="46.18290497" lon="7.02940598"><ele></ele><time>2014-4-6T16:51:30Z</time></trkpt>
<trkpt lat="46.18231899" lon="7.02943699"><ele></ele><time>2014-4-6T16:51:33Z</time></trkpt>
<trkpt lat="46.18169697" lon="7.02940498"><ele></ele><time>2014-4-6T16:51:36Z</time></trkpt>
<trkpt lat="46.18118794" lon="7.02927497"><ele></ele><time>2014-4-6T16:51:39Z</time></trkpt>
<trkpt lat="46.18053499" lon="7.02902997"><ele></ele><time>2014-4-6T16:51:42Z</time></trkpt>
<trkpt lat="46.18045393" lon="7.02897993"><ele></ele><time>2014-4-6T16:51:45Z</time></trkpt>
<trkpt lat="46.18029292" lon="7.02894992"><ele></ele><time>2014-4-6T16:51:48Z</time></trkpt>
<trkpt lat="46.18018395" lon="7.02908898"><ele></ele><time>2014-4-6T16:51:51Z</time></trkpt>
<trkpt lat="46.18015495" lon="7.02906199"><ele></ele><time>2014-4-6T16:51:54Z</time></trkpt>
<trkpt lat="46.17992898" lon="7.02881095"><ele></ele><time>2014-4-6T16:51:57Z</time></trkpt>
<trkpt lat="46.17968498" lon="7.02858699"><ele></ele><time>2014-4-6T16:52:0Z</time></trkpt>
<trkpt lat="46.17938298" lon="7.02835095"><ele></ele><time>2014-4-6T16:52:3Z</time></trkpt>
<trkpt lat="46.17903194" lon="7.02806496"><ele></ele><time>2014-4-6T16:52:6Z</time></trkpt>
<trkpt lat="46.17881292" lon="7.02787394"><ele></ele><time>2014-4-6T16:52:9Z</time></trkpt>
<trkpt lat="46.17847798" lon="7.02762298"><ele></ele><time>2014-4-6T16:52:12Z</time></trkpt>
<trkpt lat="46.17823692" lon="7.02745694"><ele></ele><time>2014-4-6T16:52:15Z</time></trkpt>
<trkpt lat="46.17802897" lon="7.02731092"><ele></ele><time>2014-4-6T16:52:18Z</time></trkpt>
<trkpt lat="46.17783895" lon="7.02720699"><ele></ele><time>2014-4-6T16:52:21Z</time></trkpt>
<trkpt lat="46.17757693" lon="7.02712292"><ele></ele><time>2014-4-6T16:52:24Z</time></trkpt>
<trkpt lat="46.17714300" lon="7.02698998"><ele></ele><time>2014-4-6T16:52:27Z</time></trkpt>
<trkpt lat="46.17662592" lon="7.02685294"><ele></ele><time>2014-4-6T16:52:30Z</time></trkpt>
<trkpt lat="46.17628595" lon="7.02682897"><ele></ele><time>2014-4-6T16:52:33Z</time></trkpt>
<trkpt lat="46.17581095" lon="7.02677499"><ele></ele><time>2014-4-6T16:52:36Z</time></trkpt>
<trkpt lat="46.17533100" lon="7.02671598"><ele></ele><time>2014-4-6T16:52:39Z</time></trkpt>
<trkpt lat="46.17490193" lon="7.02675194"><ele></ele><time>2014-4-6T16:52:42Z</time></trkpt>
<trkpt lat="46.17421897" lon="7.02688797"><ele></ele><time>2014-4-6T16:52:45Z</time></trkpt>
<trkpt lat="46.17389794" lon="7.02697699"><ele></ele><time>2014-4-6T16:52:48Z</time></trkpt>
<trkpt lat="46.17337592" lon="7.02716793"><ele></ele><time>2014-4-6T16:52:51Z</time></trkpt>
<trkpt lat="46.17272599" lon="7.02747395"><ele></ele><time>2014-4-6T16:52:54Z</time></trkpt>
<trkpt lat="46.17202098" lon="7.02780294"><ele></ele><time>2014-4-6T16:52:57Z</time></trkpt>
<trkpt lat="46.17131498" lon="7.02812992"><ele></ele><time>2014-4-6T16:53:0Z</time></trkpt>
<trkpt lat="46.17060897" lon="7.02846293"><ele></ele><time>2014-4-6T16:53:3Z</time></trkpt>
<trkpt lat="46.16995996" lon="7.02877893"><ele></ele><time>2014-4-6T16:53:6Z</time></trkpt>
<trkpt lat="46.16946492" lon="7.02897197"><ele></ele><time>2014-4-6T16:53:9Z</time></trkpt>
<trkpt lat="46.16921296" lon="7.02903299"><ele></ele><time>2014-4-6T16:53:12Z</time></trkpt>
<trkpt lat="46.16902496" lon="7.02906995"><ele></ele><time>2014-4-6T16:53:15Z</time></trkpt>
<trkpt lat="46.16885799" lon="7.02915293"><ele></ele><time>2014-4-6T16:53:18Z</time></trkpt>
<trkpt lat="46.16850696" lon="7.02936499"><ele></ele><time>2014-4-6T16:53:21Z</time></trkpt>
<trkpt lat="46.16794495" lon="7.02960497"><ele></ele><time>2014-4-6T16:53:24Z</time></trkpt>
<trkpt lat="46.16753398" lon="7.02980597"><ele></ele><time>2014-4-6T16:53:27Z</time></trkpt>
<trkpt lat="46.16717398" lon="7.02996195"><ele></ele><time>2014-4-6T16:53:30Z</time></trkpt>
<trkpt lat="46.16694499" lon="7.03005994"><ele></ele><time>2014-4-6T16:53:33Z</time></trkpt>
<trkpt lat="46.16660695" lon="7.03016798"><ele></ele><time>2014-4-6T16:53:36Z</time></trkpt>
<trkpt lat="46.16622197" lon="7.03031592"><ele></ele><time>2014-4-6T16:53:39Z</time></trkpt>
<trkpt lat="46.16572299" lon="7.03056193"><ele></ele><time>2014-4-6T16:53:42Z</time></trkpt>
<trkpt lat="46.16517800" lon="7.03087692"><ele></ele><time>2014-4-6T16:53:45Z</time></trkpt>
<trkpt lat="46.16476494" lon="7.03113592"><ele></ele><time>2014-4-6T16:53:48Z</time></trkpt>
<trkpt lat="46.16435892" lon="7.03138394"><ele></ele><time>2014-4-6T16:53:51Z</time></trkpt>
<trkpt lat="46.16399095" lon="7.03157396"><ele></ele><time>2014-4-6T16:53:54Z</time></trkpt>
<trkpt lat="46.16355300" lon="7.03177094"><ele></ele><time>2014-4-6T16:53:57Z</time></trkpt>
<trkpt lat="46.16321898" lon="7.03190194"><ele></ele><time>2014-4-6T16:54:0Z</time></trkpt>
<trkpt lat="46.16267893" lon="7.03209599"><ele></ele><time>2014-4-6T16:54:3Z</time></trkpt>
<trkpt lat="46.16229798" lon="7.03220394"><ele></ele><time>2014-4-6T16:54:6Z</time></trkpt>
<trkpt lat="46.16216596" lon="7.03224393"><ele></ele><time>2014-4-6T16:54:9Z</time></trkpt>
<trkpt lat="46.16203395" lon="7.03227393"><ele></ele><time>2014-4-6T16:54:12Z</time></trkpt>
<trkpt lat="46.16152894" lon="7.03242900"><ele></ele><time>2014-4-6T16:54:15Z</time></trkpt>
<trkpt lat="46.16111998" lon="7.03252899"><ele></ele><time>2014-4-6T16:54:18Z</time></trkpt>
<trkpt lat="46.16067197" lon="7.03262698"><ele></ele><time>2014-4-6T16:54:21Z</time></trkpt>
<trkpt lat="46.16027693" lon="7.03264399"><ele></ele><time>2014-4-6T16:54:24Z</time></trkpt>
<trkpt lat="46.15992095" lon="7.03258499"><ele></ele><time>2014-4-6T16:54:27Z</time></trkpt>
<trkpt lat="46.15951493" lon="7.03250594"><ele></ele><time>2014-4-6T16:54:30Z</time></trkpt>
<trkpt lat="46.15912300" lon="7.03241299"><ele></ele><time>2014-4-6T16:54:33Z</time></trkpt>
<trkpt lat="46.15871195" lon="7.03231593"><ele></ele><time>2014-4-6T16:54:36Z</time></trkpt>
<trkpt lat="46.15832294" lon="7.03221794"><ele></ele><time>2014-4-6T16:54:39Z</time></trkpt>
<trkpt lat="46.15818095" lon="7.03217897"><ele></ele><time>2014-4-6T16:54:42Z</time></trkpt>
<trkpt lat="46.15799697" lon="7.03209096"><ele></ele><time>2014-4-6T16:54:45Z</time></trkpt>
<trkpt lat="46.15781492" lon="7.03205500"><ele></ele><time>2014-4-6T16:54:48Z</time></trkpt>
<trkpt lat="46.15753597" lon="7.03203798"><ele></ele><time>2014-4-6T16:54:51Z</time></trkpt>
<trkpt lat="46.15724394" lon="7.03187093"><ele></ele><time>2014-4-6T16:54:54Z</time></trkpt>
<trkpt lat="46.15714596" lon="7.03152996"><ele></ele><time>2014-4-6T16:54:57Z</time></trkpt>
<trkpt lat="46.15718493" lon="7.03142493"><ele></ele><time>2014-4-6T16:55:0Z</time></trkpt>
<trkpt lat="46.15723799" lon="7.03107297"><ele></ele><time>2014-4-6T16:55:3Z</time></trkpt>
<trkpt lat="46.15727998" lon="7.03082093"><ele></ele><time>2014-4-6T16:55:6Z</time></trkpt>
<trkpt lat="46.15719097" lon="7.03047995"><ele></ele><time>2014-4-6T16:55:9Z</time></trkpt>
<trkpt lat="46.15703599" lon="7.03016798"><ele></ele><time>2014-4-6T16:55:12Z</time></trkpt>
<trkpt lat="46.15692593" lon="7.03019396"><ele></ele><time>2014-4-6T16:55:15Z</time></trkpt>
<trkpt lat="46.15687799" lon="7.03027694"><ele></ele><time>2014-4-6T16:55:18Z</time></trkpt>
<trkpt lat="46.15651798" lon="7.03060996"><ele></ele><time>2014-4-6T16:55:21Z</time></trkpt>
<trkpt lat="46.15606192" lon="7.03088396"><ele></ele><time>2014-4-6T16:55:24Z</time></trkpt>
<trkpt lat="46.15581893" lon="7.03103894"><ele></ele><time>2014-4-6T16:55:27Z</time></trkpt>
<trkpt lat="46.15555993" lon="7.03119895"><ele></ele><time>2014-4-6T16:55:30Z</time></trkpt>
<trkpt lat="46.15525399" lon="7.03120792"><ele></ele><time>2014-4-6T16:55:33Z</time></trkpt>
<trkpt lat="46.15470297" lon="7.03117800"><ele></ele><time>2014-4-6T16:55:36Z</time></trkpt>
<trkpt lat="46.15420299" lon="7.03108194"><ele></ele><time>2014-4-6T16:55:39Z</time></trkpt>
<trkpt lat="46.15378993" lon="7.03101296"><ele></ele><time>2014-4-6T16:55:42Z</time></trkpt>
<trkpt lat="46.15329992" lon="7.03091900"><ele></ele><time>2014-4-6T16:55:45Z</time></trkpt>
<trkpt lat="46.15287898" lon="7.03084499"><ele></ele><time>2014-4-6T16:55:48Z</time></trkpt>
<trkpt lat="46.15234396" lon="7.03075195"><ele></ele><time>2014-4-6T16:55:51Z</time></trkpt>
<trkpt lat="46.15180694" lon="7.03063393"><ele></ele><time>2014-4-6T16:55:54Z</time></trkpt>
<trkpt lat="46.15126094" lon="7.03052999"><ele></ele><time>2014-4-6T16:55:57Z</time></trkpt>
<trkpt lat="46.15063095" lon="7.03045498"><ele></ele><time>2014-4-6T16:56:0Z</time></trkpt>
<trkpt lat="46.15014397" lon="7.03038993"><ele></ele><time>2014-4-6T16:56:3Z</time></trkpt>
<trkpt lat="46.14985093" lon="7.03031994"><ele></ele><time>2014-4-6T16:56:6Z</time></trkpt>
<trkpt lat="46.14956394" lon="7.03027292"><ele></ele><time>2014-4-6T16:56:9Z</time></trkpt>
<trkpt lat="46.14929597" lon="7.03012398"><ele></ele><time>2014-4-6T16:56:12Z</time></trkpt>
<trkpt lat="46.14892599" lon="7.02980597"><ele></ele><time>2014-4-6T16:56:15Z</time></trkpt>
<trkpt lat="46.14887495" lon="7.02977998"><ele></ele><time>2014-4-6T16:56:18Z</time></trkpt>
<trkpt lat="46.14852299" lon="7.02966498"><ele></ele><time>2014-4-6T16:56:21Z</time></trkpt>
<trkpt lat="46.14831193" lon="7.02957597"><ele></ele><time>2014-4-6T16:56:24Z</time></trkpt>
<trkpt lat="46.14794699" lon="7.02960396"><ele></ele><time>2014-4-6T16:56:27Z</time></trkpt>
<trkpt lat="46.14753493" lon="7.02970698"><ele></ele><time>2014-4-6T16:56:30Z</time></trkpt>
<trkpt lat="46.14719194" lon="7.02976892"><ele></ele><time>2014-4-6T16:56:33Z</time></trkpt>
<trkpt lat="46.14664192" lon="7.02992993"><ele></ele><time>2014-4-6T16:56:36Z</time></trkpt>
<trkpt lat="46.14622794" lon="7.03000797"><ele></ele><time>2014-4-6T16:56:39Z</time></trkpt>
<trkpt lat="46.14589292" lon="7.03005298"><ele></ele><time>2014-4-6T16:56:42Z</time></trkpt>
<trkpt lat="46.14544599" lon="7.03016295"><ele></ele><time>2014-4-6T16:56:45Z</time></trkpt>
<trkpt lat="46.14510292" lon="7.03025599"><ele></ele><time>2014-4-6T16:56:48Z</time></trkpt>
<trkpt lat="46.14500896" lon="7.03025498"><ele></ele><time>2014-4-6T16:56:51Z</time></trkpt>
<trkpt lat="46.14473496" lon="7.03034392"><ele></ele><time>2014-4-6T16:56:54Z</time></trkpt>
<trkpt lat="46.14457394" lon="7.03042799"><ele></ele><time>2014-4-6T16:56:57Z</time></trkpt>
<trkpt lat="46.14442893" lon="7.03031098"><ele></ele><time>2014-4-6T16:57:0Z</time></trkpt>
<trkpt lat="46.14440697" lon="7.03018793"><ele></ele><time>2014-4-6T16:57:3Z</time></trkpt>
<trkpt lat="46.14424495" lon="7.03000696"><ele></ele><time>2014-4-6T16:57:6Z</time></trkpt>
<trkpt lat="46.14416993" lon="7.02987193"><ele></ele><time>2014-4-6T16:57:9Z</time></trkpt>
<trkpt lat="46.14411696" lon="7.02976397"><ele></ele><time>2014-4-6T16:57:12Z</time></trkpt>
<trkpt lat="46.14410698" lon="7.02973799"><ele></ele><time>2014-4-6T16:57:15Z</time></trkpt>
<trkpt lat="46.14409592" lon="7.02961394"><ele></ele><time>2014-4-6T16:57:18Z</time></trkpt>
<trkpt lat="46.14409198" lon="7.02958594"><ele></ele><time>2014-4-6T16:57:21Z</time></trkpt>
<trkpt lat="46.14409500" lon="7.02953196"><ele></ele><time>2014-4-6T16:57:24Z</time></trkpt>
<trkpt lat="46.14407396" lon="7.02940900"><ele></ele><time>2014-4-6T16:57:27Z</time></trkpt>
<trkpt lat="46.14404395" lon="7.02922493"><ele></ele><time>2014-4-6T16:57:30Z</time></trkpt>
<trkpt lat="46.14405292" lon="7.02918596"><ele></ele><time>2014-4-6T16:57:33Z</time></trkpt>
<trkpt lat="46.14430496" lon="7.02903500"><ele></ele><time>2014-4-6T16:57:36Z</time></trkpt>
<trkpt lat="46.14412693" lon="7.02919099"><ele></ele><time>2014-4-6T16:57:39Z</time></trkpt>
<trkpt lat="46.14405996" lon="7.02929894"><ele></ele><time>2014-4-6T16:57:42Z</time></trkpt>
<trkpt lat="46.14391596" lon="7.02940598"><ele></ele><time>2014-4-6T16:57:45Z</time></trkpt>
<trkpt lat="46.14387698" lon="7.02954998"><ele></ele><time>2014-4-6T16:57:48Z</time></trkpt>
<trkpt lat="46.14382292" lon="7.02972894"><ele></ele><time>2014-4-6T16:57:51Z</time></trkpt>
<trkpt lat="46.14378696" lon="7.02975894"><ele></ele><time>2014-4-6T16:57:54Z</time></trkpt>
<trkpt lat="46.14377598" lon="7.02975400"><ele></ele><time>2014-4-6T16:57:57Z</time></trkpt>
<trkpt lat="46.14373198" lon="7.02973195"><ele></ele><time>2014-4-6T16:58:0Z</time></trkpt>
<trkpt lat="46.14366098" lon="7.02972692"><ele></ele><time>2014-4-6T16:58:3Z</time></trkpt>
<trkpt lat="46.14350592" lon="7.02976992"><ele></ele><time>2014-4-6T16:58:6Z</time></trkpt>
<trkpt lat="46.14335798" lon="7.02986397"><ele></ele><time>2014-4-6T16:58:9Z</time></trkpt>
<trkpt lat="46.14322395" lon="7.02998199"><ele></ele><time>2014-4-6T16:58:12Z</time></trkpt>
<trkpt lat="46.14302698" lon="7.03010998"><ele></ele><time>2014-4-6T16:58:15Z</time></trkpt>
<trkpt lat="46.14297895" lon="7.03013596"><ele></ele><time>2014-4-6T16:58:18Z</time></trkpt>
<trkpt lat="46.14276697" lon="7.03032397"><ele></ele><time>2014-4-6T16:58:21Z</time></trkpt>
<trkpt lat="46.14259296" lon="7.03048993"><ele></ele><time>2014-4-6T16:58:24Z</time></trkpt>
<trkpt lat="46.14246497" lon="7.03076293"><ele></ele><time>2014-4-6T16:58:27Z</time></trkpt>
<trkpt lat="46.14228794" lon="7.03091095"><ele></ele><time>2014-4-6T16:58:30Z</time></trkpt>
<trkpt lat="46.14207798" lon="7.03098798"><ele></ele><time>2014-4-6T16:58:33Z</time></trkpt>
<trkpt lat="46.14196398" lon="7.03098496"><ele></ele><time>2014-4-6T16:58:36Z</time></trkpt>
<trkpt lat="46.14171093" lon="7.03109896"><ele></ele><time>2014-4-6T16:58:39Z</time></trkpt>
<trkpt lat="46.14167397" lon="7.03112000"><ele></ele><time>2014-4-6T16:58:42Z</time></trkpt>
<trkpt lat="46.14148395" lon="7.03129493"><ele></ele><time>2014-4-6T16:58:45Z</time></trkpt>
<trkpt lat="46.14135898" lon="7.03145695"><ele></ele><time>2014-4-6T16:58:48Z</time></trkpt>
<trkpt lat="46.14121498" lon="7.03153993"><ele></ele><time>2014-4-6T16:58:51Z</time></trkpt>
<trkpt lat="46.14098196" lon="7.03176700"><ele></ele><time>2014-4-6T16:58:54Z</time></trkpt>
<trkpt lat="46.14086092" lon="7.03188996"><ele></ele><time>2014-4-6T16:58:57Z</time></trkpt>
<trkpt lat="46.14075598" lon="7.03197193"><ele></ele><time>2014-4-6T16:59:0Z</time></trkpt>
<trkpt lat="46.14073696" lon="7.03199197"><ele></ele><time>2014-4-6T16:59:3Z</time></trkpt>
<trkpt lat="46.14065892" lon="7.03211199"><ele></ele><time>2014-4-6T16:59:6Z</time></trkpt>
<trkpt lat="46.14055096" lon="7.03223395"><ele></ele><time>2014-4-6T16:59:9Z</time></trkpt>
<trkpt lat="46.14045692" lon="7.03236496"><ele></ele><time>2014-4-6T16:59:12Z</time></trkpt>
<trkpt lat="46.14036396" lon="7.03252698"><ele></ele><time>2014-4-6T16:59:15Z</time></trkpt>
<trkpt lat="46.14004696" lon="7.03289394"><ele></ele><time>2014-4-6T16:59:18Z</time></trkpt>
<trkpt lat="46.13978796" lon="7.03300894"><ele></ele><time>2014-4-6T16:59:21Z</time></trkpt>
<trkpt lat="46.13973398" lon="7.03300995"><ele></ele><time>2014-4-6T16:59:24Z</time></trkpt>
<trkpt lat="46.13961697" lon="7.03300299"><ele></ele><time>2014-4-6T16:59:27Z</time></trkpt>
<trkpt lat="46.13930994" lon="7.03306896"><ele></ele><time>2014-4-6T16:59:30Z</time></trkpt>
<trkpt lat="46.13909494" lon="7.03304599"><ele></ele><time>2014-4-6T16:59:33Z</time></trkpt>
<trkpt lat="46.13882697" lon="7.03299997"><ele></ele><time>2014-4-6T16:59:36Z</time></trkpt>
<trkpt lat="46.13857392" lon="7.03298598"><ele></ele><time>2014-4-6T16:59:39Z</time></trkpt>
<trkpt lat="46.13831400" lon="7.03304892"><ele></ele><time>2014-4-6T16:59:42Z</time></trkpt>
<trkpt lat="46.13828299" lon="7.03323894"><ele></ele><time>2014-4-6T16:59:45Z</time></trkpt>
<trkpt lat="46.13829799" lon="7.03352292"><ele></ele><time>2014-4-6T16:59:48Z</time></trkpt>
<trkpt lat="46.13833495" lon="7.03384495"><ele></ele><time>2014-4-6T16:59:51Z</time></trkpt>
<trkpt lat="46.13821694" lon="7.03398694"><ele></ele><time>2014-4-6T16:59:54Z</time></trkpt>
<trkpt lat="46.13784394" lon="7.03416397"><ele></ele><time>2014-4-6T16:59:57Z</time></trkpt>
<trkpt lat="46.13746793" lon="7.03437695"><ele></ele><time>2014-4-6T17:0:0Z</time></trkpt>
<trkpt lat="46.13703593" lon="7.03463595"><ele></ele><time>2014-4-6T17:0:3Z</time></trkpt>
<trkpt lat="46.13664592" lon="7.03487794"><ele></ele><time>2014-4-6T17:0:6Z</time></trkpt>
<trkpt lat="46.13621593" lon="7.03514792"><ele></ele><time>2014-4-6T17:0:9Z</time></trkpt>
<trkpt lat="46.13589699" lon="7.03533894"><ele></ele><time>2014-4-6T17:0:12Z</time></trkpt>
<trkpt lat="46.13498999" lon="7.03584295"><ele></ele><time>2014-4-6T17:0:15Z</time></trkpt>
<trkpt lat="46.13475999" lon="7.03592794"><ele></ele><time>2014-4-6T17:0:18Z</time></trkpt>
<trkpt lat="46.13460694" lon="7.03586600"><ele></ele><time>2014-4-6T17:0:21Z</time></trkpt>
<trkpt lat="46.13443393" lon="7.03569199"><ele></ele><time>2014-4-6T17:0:24Z</time></trkpt>
<trkpt lat="46.13435397" lon="7.03563600"><ele></ele><time>2014-4-6T17:0:27Z</time></trkpt>
<trkpt lat="46.13407795" lon="7.03539493"><ele></ele><time>2014-4-6T17:0:30Z</time></trkpt>
<trkpt lat="46.13398299" lon="7.03530399"><ele></ele><time>2014-4-6T17:0:33Z</time></trkpt>
<trkpt lat="46.13390998" lon="7.03516494"><ele></ele><time>2014-4-6T17:0:36Z</time></trkpt>
<trkpt lat="46.13388894" lon="7.03502596"><ele></ele><time>2014-4-6T17:0:39Z</time></trkpt>
<trkpt lat="46.13388693" lon="7.03486193"><ele></ele><time>2014-4-6T17:0:42Z</time></trkpt>
<trkpt lat="46.13386899" lon="7.03475095"><ele></ele><time>2014-4-6T17:0:45Z</time></trkpt>
<trkpt lat="46.13385793" lon="7.03465993"><ele></ele><time>2014-4-6T17:0:48Z</time></trkpt>
<trkpt lat="46.13384192" lon="7.03452699"><ele></ele><time>2014-4-6T17:0:51Z</time></trkpt>
<trkpt lat="46.13384100" lon="7.03448399"><ele></ele><time>2014-4-6T17:0:54Z</time></trkpt>
<trkpt lat="46.13383697" lon="7.03444292"><ele></ele><time>2014-4-6T17:0:57Z</time></trkpt>
<trkpt lat="46.13386195" lon="7.03431199"><ele></ele><time>2014-4-6T17:1:0Z</time></trkpt>
<trkpt lat="46.13387696" lon="7.03425894"><ele></ele><time>2014-4-6T17:1:3Z</time></trkpt>
<trkpt lat="46.13388098" lon="7.03423295"><ele></ele><time>2014-4-6T17:1:6Z</time></trkpt>
<trkpt lat="46.13392297" lon="7.03414394"><ele></ele><time>2014-4-6T17:1:9Z</time></trkpt>
<trkpt lat="46.13394795" lon="7.03408392"><ele></ele><time>2014-4-6T17:1:12Z</time></trkpt>
<trkpt lat="46.13400294" lon="7.03401695"><ele></ele><time>2014-4-6T17:1:15Z</time></trkpt>
<trkpt lat="46.13405398" lon="7.03391997"><ele></ele><time>2014-4-6T17:1:18Z</time></trkpt>
<trkpt lat="46.13407292" lon="7.03390094"><ele></ele><time>2014-4-6T17:1:21Z</time></trkpt>
<trkpt lat="46.13416194" lon="7.03381595"><ele></ele><time>2014-4-6T17:1:24Z</time></trkpt>
<trkpt lat="46.13424995" lon="7.03375594"><ele></ele><time>2014-4-6T17:1:27Z</time></trkpt>
<trkpt lat="46.13430795" lon="7.03372392"><ele></ele><time>2014-4-6T17:1:30Z</time></trkpt>
<trkpt lat="46.13432497" lon="7.03372694"><ele></ele><time>2014-4-6T17:1:33Z</time></trkpt>
<trkpt lat="46.13437492" lon="7.03369098"><ele></ele><time>2014-4-6T17:1:36Z</time></trkpt>
<trkpt lat="46.13438297" lon="7.03365292"><ele></ele><time>2014-4-6T17:1:39Z</time></trkpt>
<trkpt lat="46.13436696" lon="7.03364194"><ele></ele><time>2014-4-6T17:1:42Z</time></trkpt>
<trkpt lat="46.13435196" lon="7.03364597"><ele></ele><time>2014-4-6T17:1:45Z</time></trkpt>
<trkpt lat="46.13423193" lon="7.03369592"><ele></ele><time>2014-4-6T17:1:48Z</time></trkpt>
<trkpt lat="46.13415498" lon="7.03368193"><ele></ele><time>2014-4-6T17:1:51Z</time></trkpt>
<trkpt lat="46.13414694" lon="7.03368394"><ele></ele><time>2014-4-6T17:1:54Z</time></trkpt>
<trkpt lat="46.13410897" lon="7.03368293"><ele></ele><time>2014-4-6T17:1:57Z</time></trkpt>
<trkpt lat="46.13404199" lon="7.03373498"><ele></ele><time>2014-4-6T17:2:0Z</time></trkpt>
<trkpt lat="46.13396597" lon="7.03379097"><ele></ele><time>2014-4-6T17:2:3Z</time></trkpt>
<trkpt lat="46.13395097" lon="7.03381998"><ele></ele><time>2014-4-6T17:2:6Z</time></trkpt>
<trkpt lat="46.13390394" lon="7.03387295"><ele></ele><time>2014-4-6T17:2:9Z</time></trkpt>
<trkpt lat="46.13386296" lon="7.03391092"><ele></ele><time>2014-4-6T17:2:12Z</time></trkpt>
<trkpt lat="46.13378693" lon="7.03397496"><ele></ele><time>2014-4-6T17:2:15Z</time></trkpt>
<trkpt lat="46.13370999" lon="7.03402198"><ele></ele><time>2014-4-6T17:2:18Z</time></trkpt>
<trkpt lat="46.13367093" lon="7.03406196"><ele></ele><time>2014-4-6T17:2:21Z</time></trkpt>
<trkpt lat="46.13365894" lon="7.03407294"><ele></ele><time>2014-4-6T17:2:24Z</time></trkpt>
<trkpt lat="46.13360194" lon="7.03414293"><ele></ele><time>2014-4-6T17:2:27Z</time></trkpt>
<trkpt lat="46.13358200" lon="7.03415995"><ele></ele><time>2014-4-6T17:2:30Z</time></trkpt>
<trkpt lat="46.13358099" lon="7.03410496"><ele></ele><time>2014-4-6T17:2:33Z</time></trkpt>
<trkpt lat="46.13358292" lon="7.03410194"><ele></ele><time>2014-4-6T17:2:36Z</time></trkpt>
<trkpt lat="46.13358292" lon="7.03406196"><ele></ele><time>2014-4-6T17:2:39Z</time></trkpt>
<trkpt lat="46.13359993" lon="7.03404193"><ele></ele><time>2014-4-6T17:2:42Z</time></trkpt>
<trkpt lat="46.13362692" lon="7.03398292"><ele></ele><time>2014-4-6T17:2:45Z</time></trkpt>
<trkpt lat="46.13368493" lon="7.03388594"><ele></ele><time>2014-4-6T17:2:48Z</time></trkpt>
<trkpt lat="46.13377294" lon="7.03377094"><ele></ele><time>2014-4-6T17:2:51Z</time></trkpt>
<trkpt lat="46.13384795" lon="7.03369995"><ele></ele><time>2014-4-6T17:2:54Z</time></trkpt>
<trkpt lat="46.13392096" lon="7.03360297"><ele></ele><time>2014-4-6T17:2:57Z</time></trkpt>
<trkpt lat="46.13402196" lon="7.03348193"><ele></ele><time>2014-4-6T17:3:0Z</time></trkpt>
<trkpt lat="46.13409497" lon="7.03336299"><ele></ele><time>2014-4-6T17:3:3Z</time></trkpt>
<trkpt lat="46.13419094" lon="7.03326995"><ele></ele><time>2014-4-6T17:3:6Z</time></trkpt>
<trkpt lat="46.13420997" lon="7.03324892"><ele></ele><time>2014-4-6T17:3:9Z</time></trkpt>
<trkpt lat="46.13416496" lon="7.03319293"><ele></ele><time>2014-4-6T17:3:12Z</time></trkpt>
<trkpt lat="46.13414794" lon="7.03319695"><ele></ele><time>2014-4-6T17:3:15Z</time></trkpt>
<trkpt lat="46.13406496" lon="7.03326099"><ele></ele><time>2014-4-6T17:3:18Z</time></trkpt>
<trkpt lat="46.13402992" lon="7.03326593"><ele></ele><time>2014-4-6T17:3:21Z</time></trkpt>
<trkpt lat="46.13395994" lon="7.03331597"><ele></ele><time>2014-4-6T17:3:24Z</time></trkpt>
<trkpt lat="46.13392599" lon="7.03334992"><ele></ele><time>2014-4-6T17:3:27Z</time></trkpt>
<trkpt lat="46.13387796" lon="7.03340298"><ele></ele><time>2014-4-6T17:3:30Z</time></trkpt>
<trkpt lat="46.13383295" lon="7.03345696"><ele></ele><time>2014-4-6T17:3:33Z</time></trkpt>
<trkpt lat="46.13371694" lon="7.03356299"><ele></ele><time>2014-4-6T17:3:36Z</time></trkpt>
<trkpt lat="46.13366992" lon="7.03361093"><ele></ele><time>2014-4-6T17:3:39Z</time></trkpt>
<trkpt lat="46.13358292" lon="7.03369299"><ele></ele><time>2014-4-6T17:3:42Z</time></trkpt>
<trkpt lat="46.13349600" lon="7.03375896"><ele></ele><time>2014-4-6T17:3:45Z</time></trkpt>
<trkpt lat="46.13344294" lon="7.03376692"><ele></ele><time>2014-4-6T17:3:48Z</time></trkpt>
<trkpt lat="46.13333800" lon="7.03380698"><ele></ele><time>2014-4-6T17:3:51Z</time></trkpt>
<trkpt lat="46.13325695" lon="7.03385199"><ele></ele><time>2014-4-6T17:3:54Z</time></trkpt>
<trkpt lat="46.13324194" lon="7.03386096"><ele></ele><time>2014-4-6T17:3:57Z</time></trkpt>
<trkpt lat="46.13319199" lon="7.03392098"><ele></ele><time>2014-4-6T17:4:0Z</time></trkpt>
<trkpt lat="46.13313993" lon="7.03398694"><ele></ele><time>2014-4-6T17:4:3Z</time></trkpt>
<trkpt lat="46.13313792" lon="7.03400295"><ele></ele><time>2014-4-6T17:4:6Z</time></trkpt>
<trkpt lat="46.13309794" lon="7.03408493"><ele></ele><time>2014-4-6T17:4:9Z</time></trkpt>
<trkpt lat="46.13310196" lon="7.03409599"><ele></ele><time>2014-4-6T17:4:12Z</time></trkpt>
<trkpt lat="46.13310699" lon="7.03405693"><ele></ele><time>2014-4-6T17:4:15Z</time></trkpt>
<trkpt lat="46.13311395" lon="7.03401494"><ele></ele><time>2014-4-6T17:4:18Z</time></trkpt>
<trkpt lat="46.13310892" lon="7.03397395"><ele></ele><time>2014-4-6T17:4:21Z</time></trkpt>
<trkpt lat="46.13312099" lon="7.03392894"><ele></ele><time>2014-4-6T17:4:24Z</time></trkpt>
<trkpt lat="46.13310599" lon="7.03384194"><ele></ele><time>2014-4-6T17:4:27Z</time></trkpt>
<trkpt lat="46.13310993" lon="7.03379500"><ele></ele><time>2014-4-6T17:4:30Z</time></trkpt>
<trkpt lat="46.13310993" lon="7.03378594"><ele></ele><time>2014-4-6T17:4:33Z</time></trkpt>
<trkpt lat="46.13320397" lon="7.03365695"><ele></ele><time>2014-4-6T17:4:36Z</time></trkpt>
<trkpt lat="46.13321797" lon="7.03364898"><ele></ele><time>2014-4-6T17:4:39Z</time></trkpt>
<trkpt lat="46.13324194" lon="7.03361093"><ele></ele><time>2014-4-6T17:4:42Z</time></trkpt>
<trkpt lat="46.13318394" lon="7.03361093"><ele></ele><time>2014-4-6T17:4:45Z</time></trkpt>
<trkpt lat="46.13316994" lon="7.03362895"><ele></ele><time>2014-4-6T17:4:48Z</time></trkpt>
<trkpt lat="46.13309199" lon="7.03371093"><ele></ele><time>2014-4-6T17:4:51Z</time></trkpt>
<trkpt lat="46.13307397" lon="7.03372694"><ele></ele><time>2014-4-6T17:4:54Z</time></trkpt>
<trkpt lat="46.13304094" lon="7.03375200"><ele></ele><time>2014-4-6T17:4:57Z</time></trkpt>
<trkpt lat="46.13303600" lon="7.03377295"><ele></ele><time>2014-4-6T17:5:0Z</time></trkpt>
<trkpt lat="46.13304296" lon="7.03381998"><ele></ele><time>2014-4-6T17:5:3Z</time></trkpt>
<trkpt lat="46.13310800" lon="7.03386893"><ele></ele><time>2014-4-6T17:5:6Z</time></trkpt>
<trkpt lat="46.13315100" lon="7.03375493"><ele></ele><time>2014-4-6T17:5:9Z</time></trkpt>
<trkpt lat="46.13315695" lon="7.03372694"><ele></ele><time>2014-4-6T17:5:12Z</time></trkpt>
<trkpt lat="46.13311496" lon="7.03367095"><ele></ele><time>2014-4-6T17:5:15Z</time></trkpt>
<trkpt lat="46.13306693" lon="7.03362392"><ele></ele><time>2014-4-6T17:5:18Z</time></trkpt>
<trkpt lat="46.13299996" lon="7.03361797"><ele></ele><time>2014-4-6T17:5:21Z</time></trkpt>
<trkpt lat="46.13302192" lon="7.03359098"><ele></ele><time>2014-4-6T17:5:24Z</time></trkpt>
<trkpt lat="46.13305796" lon="7.03353893"><ele></ele><time>2014-4-6T17:5:27Z</time></trkpt>
<trkpt lat="46.13299199" lon="7.03348193"><ele></ele><time>2014-4-6T17:5:30Z</time></trkpt>
<trkpt lat="46.13293097" lon="7.03351999"><ele></ele><time>2014-4-6T17:5:33Z</time></trkpt>
<trkpt lat="46.13287398" lon="7.03354295"><ele></ele><time>2014-4-6T17:5:36Z</time></trkpt>
<trkpt lat="46.13288496" lon="7.03353197"><ele></ele><time>2014-4-6T17:5:39Z</time></trkpt>
<trkpt lat="46.13293692" lon="7.03353097"><ele></ele><time>2014-4-6T17:5:42Z</time></trkpt>
<trkpt lat="46.13298998" lon="7.03357598"><ele></ele><time>2014-4-6T17:5:45Z</time></trkpt>
<trkpt lat="46.13300499" lon="7.03363096"><ele></ele><time>2014-4-6T17:5:48Z</time></trkpt>
<trkpt lat="46.13302795" lon="7.03368997"><ele></ele><time>2014-4-6T17:5:51Z</time></trkpt>
<trkpt lat="46.13309694" lon="7.03377496"><ele></ele><time>2014-4-6T17:5:54Z</time></trkpt>
<trkpt lat="46.13314496" lon="7.03382894"><ele></ele><time>2014-4-6T17:5:57Z</time></trkpt>
<trkpt lat="46.13315494" lon="7.03388393"><ele></ele><time>2014-4-6T17:6:0Z</time></trkpt>
<trkpt lat="46.13309694" lon="7.03388494"><ele></ele><time>2014-4-6T17:6:3Z</time></trkpt>
<trkpt lat="46.13295293" lon="7.03379793"><ele></ele><time>2014-4-6T17:6:6Z</time></trkpt>
<trkpt lat="46.13285294" lon="7.03374596"><ele></ele><time>2014-4-6T17:6:9Z</time></trkpt>
<trkpt lat="46.13279494" lon="7.03367195"><ele></ele><time>2014-4-6T17:6:12Z</time></trkpt>
<trkpt lat="46.13274498" lon="7.03361194"><ele></ele><time>2014-4-6T17:6:15Z</time></trkpt>
<trkpt lat="46.13272495" lon="7.03352200"><ele></ele><time>2014-4-6T17:6:18Z</time></trkpt>
<trkpt lat="46.13271900" lon="7.03349300"><ele></ele><time>2014-4-6T17:6:21Z</time></trkpt>
<trkpt lat="46.13272796" lon="7.03340893"><ele></ele><time>2014-4-6T17:6:24Z</time></trkpt>
<trkpt lat="46.13271799" lon="7.03335796"><ele></ele><time>2014-4-6T17:6:27Z</time></trkpt>
<trkpt lat="46.13275294" lon="7.03328697"><ele></ele><time>2014-4-6T17:6:30Z</time></trkpt>
<trkpt lat="46.13279292" lon="7.03324397"><ele></ele><time>2014-4-6T17:6:33Z</time></trkpt>
<trkpt lat="46.13283098" lon="7.03321396"><ele></ele><time>2014-4-6T17:6:36Z</time></trkpt>
<trkpt lat="46.13289493" lon="7.03318597"><ele></ele><time>2014-4-6T17:6:39Z</time></trkpt>
<trkpt lat="46.13294598" lon="7.03317298"><ele></ele><time>2014-4-6T17:6:42Z</time></trkpt>
<trkpt lat="46.13302192" lon="7.03314993"><ele></ele><time>2014-4-6T17:6:45Z</time></trkpt>
<trkpt lat="46.13306098" lon="7.03312897"><ele></ele><time>2014-4-6T17:6:48Z</time></trkpt>
<trkpt lat="46.13306492" lon="7.03309092"><ele></ele><time>2014-4-6T17:6:51Z</time></trkpt>
<trkpt lat="46.13297699" lon="7.03306896"><ele></ele><time>2014-4-6T17:6:54Z</time></trkpt>
<trkpt lat="46.13291396" lon="7.03305496"><ele></ele><time>2014-4-6T17:6:57Z</time></trkpt>
<trkpt lat="46.13288898" lon="7.03305596"><ele></ele><time>2014-4-6T17:7:0Z</time></trkpt>
<trkpt lat="46.13281799" lon="7.03305999"><ele></ele><time>2014-4-6T17:7:3Z</time></trkpt>
<trkpt lat="46.13274992" lon="7.03304096"><ele></ele><time>2014-4-6T17:7:6Z</time></trkpt>
<trkpt lat="46.13272998" lon="7.03304599"><ele></ele><time>2014-4-6T17:7:9Z</time></trkpt>
<trkpt lat="46.13274498" lon="7.03311397"><ele></ele><time>2014-4-6T17:7:12Z</time></trkpt>
<trkpt lat="46.13273492" lon="7.03313693"><ele></ele><time>2014-4-6T17:7:15Z</time></trkpt>
<trkpt lat="46.13261598" lon="7.03327792"><ele></ele><time>2014-4-6T17:7:18Z</time></trkpt>
<trkpt lat="46.13256292" lon="7.03339200"><ele></ele><time>2014-4-6T17:7:21Z</time></trkpt>
<trkpt lat="46.13253593" lon="7.03344698"><ele></ele><time>2014-4-6T17:7:24Z</time></trkpt>
<trkpt lat="46.13250400" lon="7.03340197"><ele></ele><time>2014-4-6T17:7:27Z</time></trkpt>
<trkpt lat="46.13250693" lon="7.03336693"><ele></ele><time>2014-4-6T17:7:30Z</time></trkpt>
<trkpt lat="46.13254993" lon="7.03327197"><ele></ele><time>2014-4-6T17:7:33Z</time></trkpt>
<trkpt lat="46.13254792" lon="7.03325998"><ele></ele><time>2014-4-6T17:7:36Z</time></trkpt>
<trkpt lat="46.13247399" lon="7.03320994"><ele></ele><time>2014-4-6T17:7:39Z</time></trkpt>
<trkpt lat="46.13251599" lon="7.03312193"><ele></ele><time>2014-4-6T17:7:42Z</time></trkpt>
<trkpt lat="46.13256494" lon="7.03304498"><ele></ele><time>2014-4-6T17:7:45Z</time></trkpt>
<trkpt lat="46.13254993" lon="7.03299494"><ele></ele><time>2014-4-6T17:7:48Z</time></trkpt>
<trkpt lat="46.13256594" lon="7.03291699"><ele></ele><time>2014-4-6T17:7:51Z</time></trkpt>
<trkpt lat="46.13257600" lon="7.03291196"><ele></ele><time>2014-4-6T17:7:54Z</time></trkpt>
<trkpt lat="46.13261598" lon="7.03289294"><ele></ele><time>2014-4-6T17:7:57Z</time></trkpt>
<trkpt lat="46.13265093" lon="7.03290098"><ele></ele><time>2014-4-6T17:8:0Z</time></trkpt>
<trkpt lat="46.13264993" lon="7.03290895"><ele></ele><time>2014-4-6T17:8:3Z</time></trkpt>
<trkpt lat="46.13259494" lon="7.03296795"><ele></ele><time>2014-4-6T17:8:6Z</time></trkpt>
<trkpt lat="46.13238900" lon="7.03319494"><ele></ele><time>2014-4-6T17:8:9Z</time></trkpt>
<trkpt lat="46.13235296" lon="7.03323894"><ele></ele><time>2014-4-6T17:8:12Z</time></trkpt>
<trkpt lat="46.13231398" lon="7.03328395"><ele></ele><time>2014-4-6T17:8:15Z</time></trkpt>
<trkpt lat="46.13230392" lon="7.03329393"><ele></ele><time>2014-4-6T17:8:18Z</time></trkpt>
<trkpt lat="46.13224299" lon="7.03327498"><ele></ele><time>2014-4-6T17:8:21Z</time></trkpt>
<trkpt lat="46.13220200" lon="7.03322193"><ele></ele><time>2014-4-6T17:8:24Z</time></trkpt>
<trkpt lat="46.13220493" lon="7.03313492"><ele></ele><time>2014-4-6T17:8:27Z</time></trkpt>
<trkpt lat="46.13219697" lon="7.03307692"><ele></ele><time>2014-4-6T17:8:30Z</time></trkpt>
<trkpt lat="46.13215699" lon="7.03304599"><ele></ele><time>2014-4-6T17:8:33Z</time></trkpt>
<trkpt lat="46.13222295" lon="7.03295295"><ele></ele><time>2014-4-6T17:8:36Z</time></trkpt>
<trkpt lat="46.13228993" lon="7.03284600"><ele></ele><time>2014-4-6T17:8:39Z</time></trkpt>
<trkpt lat="46.13231993" lon="7.03281297"><ele></ele><time>2014-4-6T17:8:42Z</time></trkpt>
<trkpt lat="46.13245698" lon="7.03268196"><ele></ele><time>2014-4-6T17:8:45Z</time></trkpt>
<trkpt lat="46.13245396" lon="7.03263092"><ele></ele><time>2014-4-6T17:8:48Z</time></trkpt>
<trkpt lat="46.13245094" lon="7.03262597"><ele></ele><time>2014-4-6T17:8:51Z</time></trkpt>
<trkpt lat="46.13247198" lon="7.03264299"><ele></ele><time>2014-4-6T17:8:54Z</time></trkpt>
<trkpt lat="46.13249595" lon="7.03265497"><ele></ele><time>2014-4-6T17:8:57Z</time></trkpt>
<trkpt lat="46.13236897" lon="7.03284994"><ele></ele><time>2014-4-6T17:9:0Z</time></trkpt>
<trkpt lat="46.13229697" lon="7.03295295"><ele></ele><time>2014-4-6T17:9:3Z</time></trkpt>
<trkpt lat="46.13225296" lon="7.03298497"><ele></ele><time>2014-4-6T17:9:6Z</time></trkpt>
<trkpt lat="46.13217794" lon="7.03307994"><ele></ele><time>2014-4-6T17:9:9Z</time></trkpt>
<trkpt lat="46.13213595" lon="7.03318194"><ele></ele><time>2014-4-6T17:9:12Z</time></trkpt>
<trkpt lat="46.13213000" lon="7.03319997"><ele></ele><time>2014-4-6T17:9:15Z</time></trkpt>
<trkpt lat="46.13210100" lon="7.03331698"><ele></ele><time>2014-4-6T17:9:18Z</time></trkpt>
<trkpt lat="46.13202095" lon="7.03332595"><ele></ele><time>2014-4-6T17:9:21Z</time></trkpt>
<trkpt lat="46.13202397" lon="7.03323592"><ele></ele><time>2014-4-6T17:9:24Z</time></trkpt>
<trkpt lat="46.13202799" lon="7.03322000"><ele></ele><time>2014-4-6T17:9:27Z</time></trkpt>
<trkpt lat="46.13204794" lon="7.03311992"><ele></ele><time>2014-4-6T17:9:30Z</time></trkpt>
<trkpt lat="46.13200796" lon="7.03304993"><ele></ele><time>2014-4-6T17:9:33Z</time></trkpt>
<trkpt lat="46.13201198" lon="7.03301992"><ele></ele><time>2014-4-6T17:9:36Z</time></trkpt>
<trkpt lat="46.13204895" lon="7.03292496"><ele></ele><time>2014-4-6T17:9:39Z</time></trkpt>
<trkpt lat="46.13205699" lon="7.03284499"><ele></ele><time>2014-4-6T17:9:42Z</time></trkpt>
<trkpt lat="46.13202497" lon="7.03282697"><ele></ele><time>2014-4-6T17:9:45Z</time></trkpt>
<trkpt lat="46.13201793" lon="7.03282496"><ele></ele><time>2014-4-6T17:9:48Z</time></trkpt>
<trkpt lat="46.13206093" lon="7.03272899"><ele></ele><time>2014-4-6T17:9:51Z</time></trkpt>
<trkpt lat="46.13218197" lon="7.03260695"><ele></ele><time>2014-4-6T17:9:54Z</time></trkpt>
<trkpt lat="46.13224399" lon="7.03253092"><ele></ele><time>2014-4-6T17:9:57Z</time></trkpt>
<trkpt lat="46.13224693" lon="7.03252698"><ele></ele><time>2014-4-6T17:10:0Z</time></trkpt>
<trkpt lat="46.13227593" lon="7.03260100"><ele></ele><time>2014-4-6T17:10:3Z</time></trkpt>
<trkpt lat="46.13221499" lon="7.03262296"><ele></ele><time>2014-4-6T17:10:6Z</time></trkpt>
<trkpt lat="46.13212698" lon="7.03267694"><ele></ele><time>2014-4-6T17:10:9Z</time></trkpt>
<trkpt lat="46.13203797" lon="7.03274793"><ele></ele><time>2014-4-6T17:10:12Z</time></trkpt>
<trkpt lat="46.13196295" lon="7.03280895"><ele></ele><time>2014-4-6T17:10:15Z</time></trkpt>
<trkpt lat="46.13192297" lon="7.03284600"><ele></ele><time>2014-4-6T17:10:18Z</time></trkpt>
<trkpt lat="46.13189296" lon="7.03290593"><ele></ele><time>2014-4-6T17:10:21Z</time></trkpt>
<trkpt lat="46.13187100" lon="7.03296997"><ele></ele><time>2014-4-6T17:10:24Z</time></trkpt>
<trkpt lat="46.13184099" lon="7.03307793"><ele></ele><time>2014-4-6T17:10:27Z</time></trkpt>
<trkpt lat="46.13184493" lon="7.03311900"><ele></ele><time>2014-4-6T17:10:30Z</time></trkpt>
<trkpt lat="46.13180797" lon="7.03317398"><ele></ele><time>2014-4-6T17:10:33Z</time></trkpt>
<trkpt lat="46.13181098" lon="7.03311095"><ele></ele><time>2014-4-6T17:10:36Z</time></trkpt>
<trkpt lat="46.13181098" lon="7.03307994"><ele></ele><time>2014-4-6T17:10:39Z</time></trkpt>
<trkpt lat="46.13180998" lon="7.03301992"><ele></ele><time>2014-4-6T17:10:42Z</time></trkpt>
<trkpt lat="46.13182297" lon="7.03295798"><ele></ele><time>2014-4-6T17:10:45Z</time></trkpt>
<trkpt lat="46.13181995" lon="7.03292998"><ele></ele><time>2014-4-6T17:10:48Z</time></trkpt>
<trkpt lat="46.13180797" lon="7.03289495"><ele></ele><time>2014-4-6T17:10:51Z</time></trkpt>
<trkpt lat="46.13182398" lon="7.03283192"><ele></ele><time>2014-4-6T17:10:54Z</time></trkpt>
<trkpt lat="46.13182800" lon="7.03280593"><ele></ele><time>2014-4-6T17:10:57Z</time></trkpt>
<trkpt lat="46.13186396" lon="7.03275698"><ele></ele><time>2014-4-6T17:11:0Z</time></trkpt>
<trkpt lat="46.13191593" lon="7.03268800"><ele></ele><time>2014-4-6T17:11:3Z</time></trkpt>
<trkpt lat="46.13192196" lon="7.03259597"><ele></ele><time>2014-4-6T17:11:6Z</time></trkpt>
<trkpt lat="46.13190494" lon="7.03257199"><ele></ele><time>2014-4-6T17:11:9Z</time></trkpt>
<trkpt lat="46.13193797" lon="7.03244995"><ele></ele><time>2014-4-6T17:11:12Z</time></trkpt>
<trkpt lat="46.13194300" lon="7.03240494"><ele></ele><time>2014-4-6T17:11:15Z</time></trkpt>
<trkpt lat="46.13189396" lon="7.03254995"><ele></ele><time>2014-4-6T17:11:18Z</time></trkpt>
<trkpt lat="46.13190092" lon="7.03255699"><ele></ele><time>2014-4-6T17:11:21Z</time></trkpt>
<trkpt lat="46.13186697" lon="7.03265900"><ele></ele><time>2014-4-6T17:11:24Z</time></trkpt>
<trkpt lat="46.13182993" lon="7.03271499"><ele></ele><time>2014-4-6T17:11:27Z</time></trkpt>
<trkpt lat="46.13181794" lon="7.03264693"><ele></ele><time>2014-4-6T17:11:30Z</time></trkpt>
<trkpt lat="46.13183194" lon="7.03250192"><ele></ele><time>2014-4-6T17:11:33Z</time></trkpt>
<trkpt lat="46.13180696" lon="7.03243797"><ele></ele><time>2014-4-6T17:11:36Z</time></trkpt>
<trkpt lat="46.13181098" lon="7.03237192"><ele></ele><time>2014-4-6T17:11:39Z</time></trkpt>
<trkpt lat="46.13184895" lon="7.03228592"><ele></ele><time>2014-4-6T17:11:42Z</time></trkpt>
<trkpt lat="46.13185298" lon="7.03227594"><ele></ele><time>2014-4-6T17:11:45Z</time></trkpt>
<trkpt lat="46.13189396" lon="7.03226798"><ele></ele><time>2014-4-6T17:11:48Z</time></trkpt>
<trkpt lat="46.13186396" lon="7.03227796"><ele></ele><time>2014-4-6T17:11:51Z</time></trkpt>
<trkpt lat="46.13182599" lon="7.03231199"><ele></ele><time>2014-4-6T17:11:54Z</time></trkpt>
<trkpt lat="46.13180696" lon="7.03232397"><ele></ele><time>2014-4-6T17:11:57Z</time></trkpt>
<trkpt lat="46.13180897" lon="7.03232297"><ele></ele><time>2014-4-6T17:12:0Z</time></trkpt>
<trkpt lat="46.13173898" lon="7.03239497"><ele></ele><time>2014-4-6T17:12:3Z</time></trkpt>
<trkpt lat="46.13170495" lon="7.03247292"><ele></ele><time>2014-4-6T17:12:6Z</time></trkpt>
<trkpt lat="46.13164997" lon="7.03254894"><ele></ele><time>2014-4-6T17:12:9Z</time></trkpt>
<trkpt lat="46.13164192" lon="7.03255196"><ele></ele><time>2014-4-6T17:12:12Z</time></trkpt>
<trkpt lat="46.13158995" lon="7.03250100"><ele></ele><time>2014-4-6T17:12:15Z</time></trkpt>
<trkpt lat="46.13160093" lon="7.03242296"><ele></ele><time>2014-4-6T17:12:18Z</time></trkpt>
<trkpt lat="46.13164796" lon="7.03232992"><ele></ele><time>2014-4-6T17:12:21Z</time></trkpt>
<trkpt lat="46.13164192" lon="7.03232397"><ele></ele><time>2014-4-6T17:12:24Z</time></trkpt>
<trkpt lat="46.13164192" lon="7.03225994"><ele></ele><time>2014-4-6T17:12:27Z</time></trkpt>
<trkpt lat="46.13166992" lon="7.03221300"><ele></ele><time>2014-4-6T17:12:30Z</time></trkpt>
<trkpt lat="46.13169800" lon="7.03218492"><ele></ele><time>2014-4-6T17:12:33Z</time></trkpt>
<trkpt lat="46.13171593" lon="7.03217000"><ele></ele><time>2014-4-6T17:12:36Z</time></trkpt>
<trkpt lat="46.13168400" lon="7.03217595"><ele></ele><time>2014-4-6T17:12:39Z</time></trkpt>
<trkpt lat="46.13165198" lon="7.03221895"><ele></ele><time>2014-4-6T17:12:42Z</time></trkpt>
<trkpt lat="46.13157093" lon="7.03224393"><ele></ele><time>2014-4-6T17:12:45Z</time></trkpt>
<trkpt lat="46.13156397" lon="7.03227695"><ele></ele><time>2014-4-6T17:12:48Z</time></trkpt>
<trkpt lat="46.13151896" lon="7.03235993"><ele></ele><time>2014-4-6T17:12:51Z</time></trkpt>
<trkpt lat="46.13150798" lon="7.03238298"><ele></ele><time>2014-4-6T17:12:54Z</time></trkpt>
<trkpt lat="46.13149700" lon="7.03240293"><ele></ele><time>2014-4-6T17:12:57Z</time></trkpt>
<trkpt lat="46.13147898" lon="7.03250100"><ele></ele><time>2014-4-6T17:13:0Z</time></trkpt>
<trkpt lat="46.13146992" lon="7.03252992"><ele></ele><time>2014-4-6T17:13:3Z</time></trkpt>
<trkpt lat="46.13148593" lon="7.03266495"><ele></ele><time>2014-4-6T17:13:6Z</time></trkpt>
<trkpt lat="46.13150597" lon="7.03280099"><ele></ele><time>2014-4-6T17:13:9Z</time></trkpt>
<trkpt lat="46.13150798" lon="7.03290794"><ele></ele><time>2014-4-6T17:13:12Z</time></trkpt>
<trkpt lat="46.13151100" lon="7.03299092"><ele></ele><time>2014-4-6T17:13:15Z</time></trkpt>
<trkpt lat="46.13144897" lon="7.03294599"><ele></ele><time>2014-4-6T17:13:18Z</time></trkpt>
<trkpt lat="46.13143195" lon="7.03291398"><ele></ele><time>2014-4-6T17:13:21Z</time></trkpt>
<trkpt lat="46.13137697" lon="7.03281197"><ele></ele><time>2014-4-6T17:13:24Z</time></trkpt>
<trkpt lat="46.13133900" lon="7.03270795"><ele></ele><time>2014-4-6T17:13:27Z</time></trkpt>
<trkpt lat="46.13128795" lon="7.03255892"><ele></ele><time>2014-4-6T17:13:30Z</time></trkpt>
<trkpt lat="46.13127798" lon="7.03249396"><ele></ele><time>2014-4-6T17:13:33Z</time></trkpt>
<trkpt lat="46.13127194" lon="7.03237292"><ele></ele><time>2014-4-6T17:13:36Z</time></trkpt>
<trkpt lat="46.13126893" lon="7.03233495"><ele></ele><time>2014-4-6T17:13:39Z</time></trkpt>
<trkpt lat="46.13124093" lon="7.03222398"><ele></ele><time>2014-4-6T17:13:42Z</time></trkpt>
<trkpt lat="46.13122894" lon="7.03216195"><ele></ele><time>2014-4-6T17:13:45Z</time></trkpt>
<trkpt lat="46.13120992" lon="7.03207092"><ele></ele><time>2014-4-6T17:13:48Z</time></trkpt>
<trkpt lat="46.13124395" lon="7.03199599"><ele></ele><time>2014-4-6T17:13:51Z</time></trkpt>
<trkpt lat="46.13134394" lon="7.03193195"><ele></ele><time>2014-4-6T17:13:54Z</time></trkpt>
<trkpt lat="46.13138493" lon="7.03191594"><ele></ele><time>2014-4-6T17:13:57Z</time></trkpt>
<trkpt lat="46.13143899" lon="7.03189398"><ele></ele><time>2014-4-6T17:14:0Z</time></trkpt>
<trkpt lat="46.13150395" lon="7.03183497"><ele></ele><time>2014-4-6T17:14:3Z</time></trkpt>
<trkpt lat="46.13151996" lon="7.03182299"><ele></ele><time>2014-4-6T17:14:6Z</time></trkpt>
<trkpt lat="46.13154695" lon="7.03175895"><ele></ele><time>2014-4-6T17:14:9Z</time></trkpt>
<trkpt lat="46.13152298" lon="7.03177697"><ele></ele><time>2014-4-6T17:14:12Z</time></trkpt>
<trkpt lat="46.13148392" lon="7.03178896"><ele></ele><time>2014-4-6T17:14:15Z</time></trkpt>
<trkpt lat="46.13143497" lon="7.03177697"><ele></ele><time>2014-4-6T17:14:18Z</time></trkpt>
<trkpt lat="46.13133900" lon="7.03176096"><ele></ele><time>2014-4-6T17:14:21Z</time></trkpt>
<trkpt lat="46.13125493" lon="7.03175300"><ele></ele><time>2014-4-6T17:14:24Z</time></trkpt>
<trkpt lat="46.13122299" lon="7.03174897"><ele></ele><time>2014-4-6T17:14:27Z</time></trkpt>
<trkpt lat="46.13113699" lon="7.03176297"><ele></ele><time>2014-4-6T17:14:30Z</time></trkpt>
<trkpt lat="46.13108394" lon="7.03173498"><ele></ele><time>2014-4-6T17:14:33Z</time></trkpt>
<trkpt lat="46.13101093" lon="7.03173397"><ele></ele><time>2014-4-6T17:14:36Z</time></trkpt>
<trkpt lat="46.13097196" lon="7.03174998"><ele></ele><time>2014-4-6T17:14:39Z</time></trkpt>
<trkpt lat="46.13092200" lon="7.03178896"><ele></ele><time>2014-4-6T17:14:42Z</time></trkpt>
<trkpt lat="46.13091596" lon="7.03179399"><ele></ele><time>2014-4-6T17:14:45Z</time></trkpt>
<trkpt lat="46.13088596" lon="7.03184092"><ele></ele><time>2014-4-6T17:14:48Z</time></trkpt>
<trkpt lat="46.13080298" lon="7.03178694"><ele></ele><time>2014-4-6T17:14:51Z</time></trkpt>
<trkpt lat="46.13080398" lon="7.03171193"><ele></ele><time>2014-4-6T17:14:54Z</time></trkpt>
<trkpt lat="46.13086198" lon="7.03162199"><ele></ele><time>2014-4-6T17:14:57Z</time></trkpt>
<trkpt lat="46.13090792" lon="7.03159299"><ele></ele><time>2014-4-6T17:15:0Z</time></trkpt>
<trkpt lat="46.13093399" lon="7.03158092"><ele></ele><time>2014-4-6T17:15:3Z</time></trkpt>
<trkpt lat="46.13097992" lon="7.03157899"><ele></ele><time>2014-4-6T17:15:6Z</time></trkpt>
<trkpt lat="46.13102099" lon="7.03157195"><ele></ele><time>2014-4-6T17:15:9Z</time></trkpt>
<trkpt lat="46.13108394" lon="7.03155594"><ele></ele><time>2014-4-6T17:15:12Z</time></trkpt>
<trkpt lat="46.13107497" lon="7.03154496"><ele></ele><time>2014-4-6T17:15:15Z</time></trkpt>
<trkpt lat="46.13098998" lon="7.03156793"><ele></ele><time>2014-4-6T17:15:18Z</time></trkpt>
<trkpt lat="46.13093893" lon="7.03156197"><ele></ele><time>2014-4-6T17:15:21Z</time></trkpt>
<trkpt lat="46.13092493" lon="7.03154798"><ele></ele><time>2014-4-6T17:15:24Z</time></trkpt>
<trkpt lat="46.13083399" lon="7.03155795"><ele></ele><time>2014-4-6T17:15:27Z</time></trkpt>
<trkpt lat="46.13078395" lon="7.03158997"><ele></ele><time>2014-4-6T17:15:30Z</time></trkpt>
<trkpt lat="46.13070793" lon="7.03161193"><ele></ele><time>2014-4-6T17:15:33Z</time></trkpt>
<trkpt lat="46.13063400" lon="7.03156197"><ele></ele><time>2014-4-6T17:15:36Z</time></trkpt>
<trkpt lat="46.13062595" lon="7.03151395"><ele></ele><time>2014-4-6T17:15:39Z</time></trkpt>
<trkpt lat="46.13062092" lon="7.03148293"><ele></ele><time>2014-4-6T17:15:42Z</time></trkpt>
<trkpt lat="46.13060298" lon="7.03150892"><ele></ele><time>2014-4-6T17:15:45Z</time></trkpt>
<trkpt lat="46.13057398" lon="7.03157698"><ele></ele><time>2014-4-6T17:15:48Z</time></trkpt>
<trkpt lat="46.13054297" lon="7.03155594"><ele></ele><time>2014-4-6T17:15:51Z</time></trkpt>
<trkpt lat="46.13045496" lon="7.03155695"><ele></ele><time>2014-4-6T17:15:54Z</time></trkpt>
<trkpt lat="46.13046192" lon="7.03155795"><ele></ele><time>2014-4-6T17:15:57Z</time></trkpt>
<trkpt lat="46.13049394" lon="7.03149894"><ele></ele><time>2014-4-6T17:16:0Z</time></trkpt>
<trkpt lat="46.13047893" lon="7.03144999"><ele></ele><time>2014-4-6T17:16:3Z</time></trkpt>
<trkpt lat="46.13044297" lon="7.03140699"><ele></ele><time>2014-4-6T17:16:6Z</time></trkpt>
<trkpt lat="46.13043099" lon="7.03131999"><ele></ele><time>2014-4-6T17:16:9Z</time></trkpt>
<trkpt lat="46.13053492" lon="7.03129493"><ele></ele><time>2014-4-6T17:16:12Z</time></trkpt>
<trkpt lat="46.13059997" lon="7.03130096"><ele></ele><time>2014-4-6T17:16:15Z</time></trkpt>
<trkpt lat="46.13066895" lon="7.03131697"><ele></ele><time>2014-4-6T17:16:18Z</time></trkpt>
<trkpt lat="46.13070399" lon="7.03131898"><ele></ele><time>2014-4-6T17:16:21Z</time></trkpt>
<trkpt lat="46.13070499" lon="7.03129392"><ele></ele><time>2014-4-6T17:16:24Z</time></trkpt>
<trkpt lat="46.13062293" lon="7.03128696"><ele></ele><time>2014-4-6T17:16:27Z</time></trkpt>
<trkpt lat="46.13050693" lon="7.03124296"><ele></ele><time>2014-4-6T17:16:30Z</time></trkpt>
<trkpt lat="46.13045597" lon="7.03118093"><ele></ele><time>2014-4-6T17:16:33Z</time></trkpt>
<trkpt lat="46.13038799" lon="7.03112092"><ele></ele><time>2014-4-6T17:16:36Z</time></trkpt>
<trkpt lat="46.13035999" lon="7.03110793"><ele></ele><time>2014-4-6T17:16:39Z</time></trkpt>
<trkpt lat="46.13031498" lon="7.03105998"><ele></ele><time>2014-4-6T17:16:42Z</time></trkpt>
<trkpt lat="46.13027500" lon="7.03103299"><ele></ele><time>2014-4-6T17:16:45Z</time></trkpt>
<trkpt lat="46.13024499" lon="7.03094599"><ele></ele><time>2014-4-6T17:16:48Z</time></trkpt>
<trkpt lat="46.13022898" lon="7.03085496"><ele></ele><time>2014-4-6T17:16:51Z</time></trkpt>
<trkpt lat="46.13023192" lon="7.03078900"><ele></ele><time>2014-4-6T17:16:54Z</time></trkpt>
<trkpt lat="46.13021892" lon="7.03069596"><ele></ele><time>2014-4-6T17:16:57Z</time></trkpt>
<trkpt lat="46.13021398" lon="7.03068196"><ele></ele><time>2014-4-6T17:17:0Z</time></trkpt>
<trkpt lat="46.13018297" lon="7.03065095"><ele></ele><time>2014-4-6T17:17:3Z</time></trkpt>
<trkpt lat="46.13024298" lon="7.03076293"><ele></ele><time>2014-4-6T17:17:6Z</time></trkpt>
<trkpt lat="46.13023192" lon="7.03077097"><ele></ele><time>2014-4-6T17:17:9Z</time></trkpt>
<trkpt lat="46.13018892" lon="7.03078799"><ele></ele><time>2014-4-6T17:17:12Z</time></trkpt>
<trkpt lat="46.13013393" lon="7.03078992"><ele></ele><time>2014-4-6T17:17:15Z</time></trkpt>
<trkpt lat="46.13010895" lon="7.03075597"><ele></ele><time>2014-4-6T17:17:18Z</time></trkpt>
<trkpt lat="46.13007995" lon="7.03069998"><ele></ele><time>2014-4-6T17:17:21Z</time></trkpt>
<trkpt lat="46.13005397" lon="7.03069897"><ele></ele><time>2014-4-6T17:17:24Z</time></trkpt>
<trkpt lat="46.13003494" lon="7.03063393"><ele></ele><time>2014-4-6T17:17:27Z</time></trkpt>
<trkpt lat="46.12998499" lon="7.03065095"><ele></ele><time>2014-4-6T17:17:30Z</time></trkpt>
<trkpt lat="46.12996194" lon="7.03064399"><ele></ele><time>2014-4-6T17:17:33Z</time></trkpt>
<trkpt lat="46.12993998" lon="7.03061096"><ele></ele><time>2014-4-6T17:17:36Z</time></trkpt>
<trkpt lat="46.12994299" lon="7.03057299"><ele></ele><time>2014-4-6T17:17:39Z</time></trkpt>
<trkpt lat="46.13000292" lon="7.03056394"><ele></ele><time>2014-4-6T17:17:42Z</time></trkpt>
<trkpt lat="46.13001298" lon="7.03055900"><ele></ele><time>2014-4-6T17:17:45Z</time></trkpt>
<trkpt lat="46.13005196" lon="7.03054198"><ele></ele><time>2014-4-6T17:17:48Z</time></trkpt>
<trkpt lat="46.13009093" lon="7.03047794"><ele></ele><time>2014-4-6T17:17:51Z</time></trkpt>
<trkpt lat="46.13008800" lon="7.03046696"><ele></ele><time>2014-4-6T17:17:54Z</time></trkpt>
<trkpt lat="46.12999194" lon="7.03041399"><ele></ele><time>2014-4-6T17:17:57Z</time></trkpt>
<trkpt lat="46.12997099" lon="7.03040100"><ele></ele><time>2014-4-6T17:18:0Z</time></trkpt>
<trkpt lat="46.12992397" lon="7.03029597"><ele></ele><time>2014-4-6T17:18:3Z</time></trkpt>
<trkpt lat="46.12987694" lon="7.03025398"><ele></ele><time>2014-4-6T17:18:6Z</time></trkpt>
<trkpt lat="46.12983596" lon="7.03022699"><ele></ele><time>2014-4-6T17:18:9Z</time></trkpt>
<trkpt lat="46.12982498" lon="7.03023294"><ele></ele><time>2014-4-6T17:18:12Z</time></trkpt>
<trkpt lat="46.12981492" lon="7.03026194"><ele></ele><time>2014-4-6T17:18:15Z</time></trkpt>
<trkpt lat="46.12980000" lon="7.03027493"><ele></ele><time>2014-4-6T17:18:18Z</time></trkpt>
<trkpt lat="46.12975599" lon="7.03018893"><ele></ele><time>2014-4-6T17:18:21Z</time></trkpt>
<trkpt lat="46.12976396" lon="7.03017100"><ele></ele><time>2014-4-6T17:18:24Z</time></trkpt>
<trkpt lat="46.12978399" lon="7.03012993"><ele></ele><time>2014-4-6T17:18:27Z</time></trkpt>
<trkpt lat="46.12979094" lon="7.03010193"><ele></ele><time>2014-4-6T17:18:30Z</time></trkpt>
<trkpt lat="46.12981793" lon="7.03011593"><ele></ele><time>2014-4-6T17:18:33Z</time></trkpt>
<trkpt lat="46.12981995" lon="7.03012196"><ele></ele><time>2014-4-6T17:18:36Z</time></trkpt>
<trkpt lat="46.12986999" lon="7.03014694"><ele></ele><time>2014-4-6T17:18:39Z</time></trkpt>
<trkpt lat="46.12996093" lon="7.03011392"><ele></ele><time>2014-4-6T17:18:42Z</time></trkpt>
<trkpt lat="46.12998700" lon="7.03012800"><ele></ele><time>2014-4-6T17:18:45Z</time></trkpt>
<trkpt lat="46.12999798" lon="7.03012993"><ele></ele><time>2014-4-6T17:18:48Z</time></trkpt>
<trkpt lat="46.12997392" lon="7.03012196"><ele></ele><time>2014-4-6T17:18:51Z</time></trkpt>
<trkpt lat="46.12991097" lon="7.03012498"><ele></ele><time>2014-4-6T17:18:54Z</time></trkpt>
<trkpt lat="46.12985297" lon="7.03009497"><ele></ele><time>2014-4-6T17:18:57Z</time></trkpt>
<trkpt lat="46.12982498" lon="7.03003898"><ele></ele><time>2014-4-6T17:19:0Z</time></trkpt>
<trkpt lat="46.12976094" lon="7.03004493"><ele></ele><time>2014-4-6T17:19:3Z</time></trkpt>
<trkpt lat="46.12971995" lon="7.03004695"><ele></ele><time>2014-4-6T17:19:6Z</time></trkpt>
<trkpt lat="46.12965893" lon="7.03003194"><ele></ele><time>2014-4-6T17:19:9Z</time></trkpt>
<trkpt lat="46.12960294" lon="7.03000797"><ele></ele><time>2014-4-6T17:19:12Z</time></trkpt>
<trkpt lat="46.12954393" lon="7.02998794"><ele></ele><time>2014-4-6T17:19:15Z</time></trkpt>
<trkpt lat="46.12945500" lon="7.03000696"><ele></ele><time>2014-4-6T17:19:18Z</time></trkpt>
<trkpt lat="46.12943899" lon="7.03002892"><ele></ele><time>2014-4-6T17:19:21Z</time></trkpt>
<trkpt lat="46.12941200" lon="7.03004594"><ele></ele><time>2014-4-6T17:19:24Z</time></trkpt>
<trkpt lat="46.12937395" lon="7.03006195"><ele></ele><time>2014-4-6T17:19:27Z</time></trkpt>
<trkpt lat="46.12934595" lon="7.03002498"><ele></ele><time>2014-4-6T17:19:30Z</time></trkpt>
<trkpt lat="46.12936498" lon="7.02989993"><ele></ele><time>2014-4-6T17:19:33Z</time></trkpt>
<trkpt lat="46.12941594" lon="7.02985500"><ele></ele><time>2014-4-6T17:19:36Z</time></trkpt>
<trkpt lat="46.12948492" lon="7.02985399"><ele></ele><time>2014-4-6T17:19:39Z</time></trkpt>
<trkpt lat="46.12952792" lon="7.02983597"><ele></ele><time>2014-4-6T17:19:42Z</time></trkpt>
<trkpt lat="46.12952700" lon="7.02983899"><ele></ele><time>2014-4-6T17:19:45Z</time></trkpt>
<trkpt lat="46.12943094" lon="7.02980898"><ele></ele><time>2014-4-6T17:19:48Z</time></trkpt>
<trkpt lat="46.12934092" lon="7.02986196"><ele></ele><time>2014-4-6T17:19:51Z</time></trkpt>
<trkpt lat="46.12931393" lon="7.02984997"><ele></ele><time>2014-4-6T17:19:54Z</time></trkpt>
<trkpt lat="46.12923598" lon="7.02981493"><ele></ele><time>2014-4-6T17:19:57Z</time></trkpt>
<trkpt lat="46.12916993" lon="7.02976992"><ele></ele><time>2014-4-6T17:20:0Z</time></trkpt>
<trkpt lat="46.12909793" lon="7.02974796"><ele></ele><time>2014-4-6T17:20:3Z</time></trkpt>
<trkpt lat="46.12901595" lon="7.02970798"><ele></ele><time>2014-4-6T17:20:6Z</time></trkpt>
<trkpt lat="46.12895996" lon="7.02963196"><ele></ele><time>2014-4-6T17:20:9Z</time></trkpt>
<trkpt lat="46.12890095" lon="7.02960296"><ele></ele><time>2014-4-6T17:20:12Z</time></trkpt>
<trkpt lat="46.12878595" lon="7.02954797"><ele></ele><time>2014-4-6T17:20:15Z</time></trkpt>
<trkpt lat="46.12876299" lon="7.02952299"><ele></ele><time>2014-4-6T17:20:18Z</time></trkpt>
<trkpt lat="46.12875897" lon="7.02944496"><ele></ele><time>2014-4-6T17:20:21Z</time></trkpt>
<trkpt lat="46.12878193" lon="7.02943297"><ele></ele><time>2014-4-6T17:20:24Z</time></trkpt>
<trkpt lat="46.12883398" lon="7.02942895"><ele></ele><time>2014-4-6T17:20:27Z</time></trkpt>
<trkpt lat="46.12888293" lon="7.02944395"><ele></ele><time>2014-4-6T17:20:30Z</time></trkpt>
<trkpt lat="46.12897497" lon="7.02948293"><ele></ele><time>2014-4-6T17:20:33Z</time></trkpt>
<trkpt lat="46.12904697" lon="7.02951193"><ele></ele><time>2014-4-6T17:20:36Z</time></trkpt>
<trkpt lat="46.12909198" lon="7.02953096"><ele></ele><time>2014-4-6T17:20:39Z</time></trkpt>
<trkpt lat="46.12917295" lon="7.02955493"><ele></ele><time>2014-4-6T17:20:42Z</time></trkpt>
<trkpt lat="46.12924595" lon="7.02953598"><ele></ele><time>2014-4-6T17:20:45Z</time></trkpt>
<trkpt lat="46.12925593" lon="7.02949097"><ele></ele><time>2014-4-6T17:20:48Z</time></trkpt>
<trkpt lat="46.12924595" lon="7.02948796"><ele></ele><time>2014-4-6T17:20:51Z</time></trkpt>
<trkpt lat="46.12916993" lon="7.02944395"><ele></ele><time>2014-4-6T17:20:54Z</time></trkpt>
<trkpt lat="46.12915694" lon="7.02942300"><ele></ele><time>2014-4-6T17:20:57Z</time></trkpt>
<trkpt lat="46.12907496" lon="7.02935393"><ele></ele><time>2014-4-6T17:21:0Z</time></trkpt>
<trkpt lat="46.12905594" lon="7.02932895"><ele></ele><time>2014-4-6T17:21:3Z</time></trkpt>
<trkpt lat="46.12901294" lon="7.02930498"><ele></ele><time>2014-4-6T17:21:6Z</time></trkpt>
<trkpt lat="46.12893297" lon="7.02923499"><ele></ele><time>2014-4-6T17:21:9Z</time></trkpt>
<trkpt lat="46.12888495" lon="7.02917900"><ele></ele><time>2014-4-6T17:21:12Z</time></trkpt>
<trkpt lat="46.12884899" lon="7.02915494"><ele></ele><time>2014-4-6T17:21:15Z</time></trkpt>
<trkpt lat="46.12879794" lon="7.02912695"><ele></ele><time>2014-4-6T17:21:18Z</time></trkpt>
<trkpt lat="46.12873793" lon="7.02901094"><ele></ele><time>2014-4-6T17:21:21Z</time></trkpt>
<trkpt lat="46.12868294" lon="7.02893592"><ele></ele><time>2014-4-6T17:21:24Z</time></trkpt>
<trkpt lat="46.12864095" lon="7.02887893"><ele></ele><time>2014-4-6T17:21:27Z</time></trkpt>
<trkpt lat="46.12859795" lon="7.02880793"><ele></ele><time>2014-4-6T17:21:30Z</time></trkpt>
<trkpt lat="46.12856492" lon="7.02876393"><ele></ele><time>2014-4-6T17:21:33Z</time></trkpt>
<trkpt lat="46.12854095" lon="7.02872395"><ele></ele><time>2014-4-6T17:21:36Z</time></trkpt>
<trkpt lat="46.12852192" lon="7.02869494"><ele></ele><time>2014-4-6T17:21:39Z</time></trkpt>
<trkpt lat="46.12849795" lon="7.02864993"><ele></ele><time>2014-4-6T17:21:42Z</time></trkpt>
<trkpt lat="46.12844598" lon="7.02860895"><ele></ele><time>2014-4-6T17:21:45Z</time></trkpt>
<trkpt lat="46.12843995" lon="7.02860593"><ele></ele><time>2014-4-6T17:21:48Z</time></trkpt>
<trkpt lat="46.12837398" lon="7.02857894"><ele></ele><time>2014-4-6T17:21:51Z</time></trkpt>
<trkpt lat="46.12831799" lon="7.02848095"><ele></ele><time>2014-4-6T17:21:54Z</time></trkpt>
<trkpt lat="46.12825898" lon="7.02841792"><ele></ele><time>2014-4-6T17:21:57Z</time></trkpt>
<trkpt lat="46.12824499" lon="7.02838699"><ele></ele><time>2014-4-6T17:22:0Z</time></trkpt>
<trkpt lat="46.12820894" lon="7.02833796"><ele></ele><time>2014-4-6T17:22:3Z</time></trkpt>
<trkpt lat="46.12819193" lon="7.02830996"><ele></ele><time>2014-4-6T17:22:6Z</time></trkpt>
<trkpt lat="46.12814600" lon="7.02824794"><ele></ele><time>2014-4-6T17:22:9Z</time></trkpt>
<trkpt lat="46.12811599" lon="7.02821692"><ele></ele><time>2014-4-6T17:22:12Z</time></trkpt>
<trkpt lat="46.12808992" lon="7.02818499"><ele></ele><time>2014-4-6T17:22:15Z</time></trkpt>
<trkpt lat="46.12805296" lon="7.02812598"><ele></ele><time>2014-4-6T17:22:18Z</time></trkpt>
<trkpt lat="46.12796696" lon="7.02804199"><ele></ele><time>2014-4-6T17:22:21Z</time></trkpt>
<trkpt lat="46.12793997" lon="7.02801794"><ele></ele><time>2014-4-6T17:22:24Z</time></trkpt>
<trkpt lat="46.12789496" lon="7.02797100"><ele></ele><time>2014-4-6T17:22:27Z</time></trkpt>
<trkpt lat="46.12783293" lon="7.02790998"><ele></ele><time>2014-4-6T17:22:30Z</time></trkpt>
<trkpt lat="46.12777392" lon="7.02784100"><ele></ele><time>2014-4-6T17:22:33Z</time></trkpt>
<trkpt lat="46.12770092" lon="7.02775299"><ele></ele><time>2014-4-6T17:22:36Z</time></trkpt>
<trkpt lat="46.12766395" lon="7.02769792"><ele></ele><time>2014-4-6T17:22:39Z</time></trkpt>
<trkpt lat="46.12758592" lon="7.02763899"><ele></ele><time>2014-4-6T17:22:42Z</time></trkpt>
<trkpt lat="46.12754392" lon="7.02755492"><ele></ele><time>2014-4-6T17:22:45Z</time></trkpt>
<trkpt lat="46.12751593" lon="7.02748493"><ele></ele><time>2014-4-6T17:22:48Z</time></trkpt>
<trkpt lat="46.12747192" lon="7.02743297"><ele></ele><time>2014-4-6T17:22:51Z</time></trkpt>
<trkpt lat="46.12739196" lon="7.02737295"><ele></ele><time>2014-4-6T17:22:54Z</time></trkpt>
<trkpt lat="46.12734796" lon="7.02735200"><ele></ele><time>2014-4-6T17:22:57Z</time></trkpt>
<trkpt lat="46.12729993" lon="7.02731495"><ele></ele><time>2014-4-6T17:23:0Z</time></trkpt>
<trkpt lat="46.12728794" lon="7.02728595"><ele></ele><time>2014-4-6T17:23:3Z</time></trkpt>
<trkpt lat="46.12724796" lon="7.02725393"><ele></ele><time>2014-4-6T17:23:6Z</time></trkpt>
<trkpt lat="46.12716498" lon="7.02724094"><ele></ele><time>2014-4-6T17:23:9Z</time></trkpt>
<trkpt lat="46.12711896" lon="7.02717497"><ele></ele><time>2014-4-6T17:23:12Z</time></trkpt>
<trkpt lat="46.12705492" lon="7.02712895"><ele></ele><time>2014-4-6T17:23:15Z</time></trkpt>
<trkpt lat="46.12701192" lon="7.02711294"><ele></ele><time>2014-4-6T17:23:18Z</time></trkpt>
<trkpt lat="46.12691897" lon="7.02713499"><ele></ele><time>2014-4-6T17:23:21Z</time></trkpt>
<trkpt lat="46.12688494" lon="7.02714597"><ele></ele><time>2014-4-6T17:23:24Z</time></trkpt>
<trkpt lat="46.12678000" lon="7.02713893"><ele></ele><time>2014-4-6T17:23:27Z</time></trkpt>
<trkpt lat="46.12676994" lon="7.02713097"><ele></ele><time>2014-4-6T17:23:30Z</time></trkpt>
<trkpt lat="46.12669098" lon="7.02702192"><ele></ele><time>2014-4-6T17:23:33Z</time></trkpt>
<trkpt lat="46.12667799" lon="7.02700197"><ele></ele><time>2014-4-6T17:23:36Z</time></trkpt>
<trkpt lat="46.12661697" lon="7.02699199"><ele></ele><time>2014-4-6T17:23:39Z</time></trkpt>
<trkpt lat="46.12653592" lon="7.02691798"><ele></ele><time>2014-4-6T17:23:42Z</time></trkpt>
<trkpt lat="46.12647297" lon="7.02683492"><ele></ele><time>2014-4-6T17:23:45Z</time></trkpt>
<trkpt lat="46.12642695" lon="7.02678697"><ele></ele><time>2014-4-6T17:23:48Z</time></trkpt>
<trkpt lat="46.12638596" lon="7.02675696"><ele></ele><time>2014-4-6T17:23:51Z</time></trkpt>
<trkpt lat="46.12634095" lon="7.02671095"><ele></ele><time>2014-4-6T17:23:54Z</time></trkpt>
<trkpt lat="46.12627197" lon="7.02666393"><ele></ele><time>2014-4-6T17:23:57Z</time></trkpt>
<trkpt lat="46.12617399" lon="7.02655898"><ele></ele><time>2014-4-6T17:24:0Z</time></trkpt>
<trkpt lat="46.12608396" lon="7.02646695"><ele></ele><time>2014-4-6T17:24:3Z</time></trkpt>
<trkpt lat="46.12601297" lon="7.02639596"><ele></ele><time>2014-4-6T17:24:6Z</time></trkpt>
<trkpt lat="46.12592697" lon="7.02633795"><ele></ele><time>2014-4-6T17:24:9Z</time></trkpt>
<trkpt lat="46.12584592" lon="7.02622094"><ele></ele><time>2014-4-6T17:24:12Z</time></trkpt>
<trkpt lat="46.12576495" lon="7.02609295"><ele></ele><time>2014-4-6T17:24:15Z</time></trkpt>
<trkpt lat="46.12573293" lon="7.02604693"><ele></ele><time>2014-4-6T17:24:18Z</time></trkpt>
<trkpt lat="46.12568993" lon="7.02599195"><ele></ele><time>2014-4-6T17:24:21Z</time></trkpt>
<trkpt lat="46.12557795" lon="7.02590000"><ele></ele><time>2014-4-6T17:24:24Z</time></trkpt>
<trkpt lat="46.12550092" lon="7.02583194"><ele></ele><time>2014-4-6T17:24:27Z</time></trkpt>
<trkpt lat="46.12546194" lon="7.02580394"><ele></ele><time>2014-4-6T17:24:30Z</time></trkpt>
<trkpt lat="46.12540595" lon="7.02575499"><ele></ele><time>2014-4-6T17:24:33Z</time></trkpt>
<trkpt lat="46.12531794" lon="7.02567796"><ele></ele><time>2014-4-6T17:24:36Z</time></trkpt>
<trkpt lat="46.12522096" lon="7.02557595"><ele></ele><time>2014-4-6T17:24:39Z</time></trkpt>
<trkpt lat="46.12515592" lon="7.02549993"><ele></ele><time>2014-4-6T17:24:42Z</time></trkpt>
<trkpt lat="46.12508995" lon="7.02543598"><ele></ele><time>2014-4-6T17:24:45Z</time></trkpt>
<trkpt lat="46.12501795" lon="7.02538292"><ele></ele><time>2014-4-6T17:24:48Z</time></trkpt>
<trkpt lat="46.12491595" lon="7.02532098"><ele></ele><time>2014-4-6T17:24:51Z</time></trkpt>
<trkpt lat="46.12483892" lon="7.02526398"><ele></ele><time>2014-4-6T17:24:54Z</time></trkpt>
<trkpt lat="46.12474797" lon="7.02518494"><ele></ele><time>2014-4-6T17:24:57Z</time></trkpt>
<trkpt lat="46.12468293" lon="7.02514697"><ele></ele><time>2014-4-6T17:25:0Z</time></trkpt>
<trkpt lat="46.12462300" lon="7.02510498"><ele></ele><time>2014-4-6T17:25:3Z</time></trkpt>
<trkpt lat="46.12455100" lon="7.02504295"><ele></ele><time>2014-4-6T17:25:6Z</time></trkpt>
<trkpt lat="46.12450699" lon="7.02501093"><ele></ele><time>2014-4-6T17:25:9Z</time></trkpt>
<trkpt lat="46.12442493" lon="7.02493298"><ele></ele><time>2014-4-6T17:25:12Z</time></trkpt>
<trkpt lat="46.12431295" lon="7.02487095"><ele></ele><time>2014-4-6T17:25:15Z</time></trkpt>
<trkpt lat="46.12418295" lon="7.02476400"><ele></ele><time>2014-4-6T17:25:18Z</time></trkpt>
<trkpt lat="46.12400198" lon="7.02463098"><ele></ele><time>2014-4-6T17:25:21Z</time></trkpt>
<trkpt lat="46.12387592" lon="7.02450500"><ele></ele><time>2014-4-6T17:25:24Z</time></trkpt>
<trkpt lat="46.12380300" lon="7.02442897"><ele></ele><time>2014-4-6T17:25:27Z</time></trkpt>
<trkpt lat="46.12372597" lon="7.02428799"><ele></ele><time>2014-4-6T17:25:30Z</time></trkpt>
<trkpt lat="46.12365799" lon="7.02415396"><ele></ele><time>2014-4-6T17:25:33Z</time></trkpt>
<trkpt lat="46.12358599" lon="7.02400393"><ele></ele><time>2014-4-6T17:25:36Z</time></trkpt>
<trkpt lat="46.12354198" lon="7.02383596"><ele></ele><time>2014-4-6T17:25:39Z</time></trkpt>
<trkpt lat="46.12348599" lon="7.02369992"><ele></ele><time>2014-4-6T17:25:42Z</time></trkpt>
<trkpt lat="46.12341098" lon="7.02360897"><ele></ele><time>2014-4-6T17:25:45Z</time></trkpt>
<trkpt lat="46.12340192" lon="7.02359992"><ele></ele><time>2014-4-6T17:25:48Z</time></trkpt>
<trkpt lat="46.12332498" lon="7.02356296"><ele></ele><time>2014-4-6T17:25:51Z</time></trkpt>
<trkpt lat="46.12330193" lon="7.02355600"><ele></ele><time>2014-4-6T17:25:54Z</time></trkpt>
<trkpt lat="46.12320998" lon="7.02348693"><ele></ele><time>2014-4-6T17:25:57Z</time></trkpt>
<trkpt lat="46.12312700" lon="7.02343195"><ele></ele><time>2014-4-6T17:26:0Z</time></trkpt>
<trkpt lat="46.12308794" lon="7.02338694"><ele></ele><time>2014-4-6T17:26:3Z</time></trkpt>
<trkpt lat="46.12300596" lon="7.02329700"><ele></ele><time>2014-4-6T17:26:6Z</time></trkpt>
<trkpt lat="46.12294997" lon="7.02319600"><ele></ele><time>2014-4-6T17:26:9Z</time></trkpt>
<trkpt lat="46.12289599" lon="7.02309499"><ele></ele><time>2014-4-6T17:26:12Z</time></trkpt>
<trkpt lat="46.12281896" lon="7.02300992"><ele></ele><time>2014-4-6T17:26:15Z</time></trkpt>
<trkpt lat="46.12270597" lon="7.02286994"><ele></ele><time>2014-4-6T17:26:18Z</time></trkpt>
<trkpt lat="46.12269097" lon="7.02283893"><ele></ele><time>2014-4-6T17:26:21Z</time></trkpt>
<trkpt lat="46.12261696" lon="7.02275695"><ele></ele><time>2014-4-6T17:26:24Z</time></trkpt>
<trkpt lat="46.12259399" lon="7.02269199"><ele></ele><time>2014-4-6T17:26:27Z</time></trkpt>
<trkpt lat="46.12257295" lon="7.02266400"><ele></ele><time>2014-4-6T17:26:30Z</time></trkpt>
<trkpt lat="46.12255099" lon="7.02261295"><ele></ele><time>2014-4-6T17:26:33Z</time></trkpt>
<trkpt lat="46.12250196" lon="7.02247893"><ele></ele><time>2014-4-6T17:26:36Z</time></trkpt>
<trkpt lat="46.12235494" lon="7.02235596"><ele></ele><time>2014-4-6T17:26:39Z</time></trkpt>
<trkpt lat="46.12228596" lon="7.02231196"><ele></ele><time>2014-4-6T17:26:42Z</time></trkpt>
<trkpt lat="46.12226794" lon="7.02233895"><ele></ele><time>2014-4-6T17:26:45Z</time></trkpt>
<trkpt lat="46.12233097" lon="7.02236594"><ele></ele><time>2014-4-6T17:26:48Z</time></trkpt>
<trkpt lat="46.12244597" lon="7.02246300"><ele></ele><time>2014-4-6T17:26:51Z</time></trkpt>
<trkpt lat="46.12249400" lon="7.02251798"><ele></ele><time>2014-4-6T17:26:54Z</time></trkpt>
<trkpt lat="46.12249793" lon="7.02252192"><ele></ele><time>2014-4-6T17:26:57Z</time></trkpt>
<trkpt lat="46.12255393" lon="7.02254397"><ele></ele><time>2014-4-6T17:27:0Z</time></trkpt>
<trkpt lat="46.12266297" lon="7.02265796"><ele></ele><time>2014-4-6T17:27:3Z</time></trkpt>
<trkpt lat="46.12273799" lon="7.02272594"><ele></ele><time>2014-4-6T17:27:6Z</time></trkpt>
<trkpt lat="46.12285693" lon="7.02281496"><ele></ele><time>2014-4-6T17:27:9Z</time></trkpt>
<trkpt lat="46.12295995" lon="7.02291495"><ele></ele><time>2014-4-6T17:27:12Z</time></trkpt>
<trkpt lat="46.12306296" lon="7.02300497"><ele></ele><time>2014-4-6T17:27:15Z</time></trkpt>
<trkpt lat="46.12317092" lon="7.02307094"><ele></ele><time>2014-4-6T17:27:18Z</time></trkpt>
<trkpt lat="46.12325398" lon="7.02310396"><ele></ele><time>2014-4-6T17:27:21Z</time></trkpt>
<trkpt lat="46.12335297" lon="7.02312995"><ele></ele><time>2014-4-6T17:27:24Z</time></trkpt>
<trkpt lat="46.12346294" lon="7.02316599"><ele></ele><time>2014-4-6T17:27:27Z</time></trkpt>
<trkpt lat="46.12358599" lon="7.02320798"><ele></ele><time>2014-4-6T17:27:30Z</time></trkpt>
<trkpt lat="46.12370795" lon="7.02325894"><ele></ele><time>2014-4-6T17:27:33Z</time></trkpt>
<trkpt lat="46.12382395" lon="7.02331192"><ele></ele><time>2014-4-6T17:27:36Z</time></trkpt>
<trkpt lat="46.12397097" lon="7.02338794"><ele></ele><time>2014-4-6T17:27:39Z</time></trkpt>
<trkpt lat="46.12407398" lon="7.02343295"><ele></ele><time>2014-4-6T17:27:42Z</time></trkpt>
<trkpt lat="46.12417096" lon="7.02345994"><ele></ele><time>2014-4-6T17:27:45Z</time></trkpt>
<trkpt lat="46.12425797" lon="7.02349892"><ele></ele><time>2014-4-6T17:27:48Z</time></trkpt>
<trkpt lat="46.12426098" lon="7.02349498"><ele></ele><time>2014-4-6T17:27:51Z</time></trkpt>
<trkpt lat="46.12426392" lon="7.02348199"><ele></ele><time>2014-4-6T17:27:54Z</time></trkpt>
<trkpt lat="46.12431899" lon="7.02348593"><ele></ele><time>2014-4-6T17:27:57Z</time></trkpt>
<trkpt lat="46.12443600" lon="7.02357494"><ele></ele><time>2014-4-6T17:28:0Z</time></trkpt>
<trkpt lat="46.12455192" lon="7.02367293"><ele></ele><time>2014-4-6T17:28:3Z</time></trkpt>
<trkpt lat="46.12463599" lon="7.02374593"><ele></ele><time>2014-4-6T17:28:6Z</time></trkpt>
<trkpt lat="46.12475292" lon="7.02383294"><ele></ele><time>2014-4-6T17:28:9Z</time></trkpt>
<trkpt lat="46.12484596" lon="7.02390192"><ele></ele><time>2014-4-6T17:28:12Z</time></trkpt>
<trkpt lat="46.12495895" lon="7.02395297"><ele></ele><time>2014-4-6T17:28:15Z</time></trkpt>
<trkpt lat="46.12505592" lon="7.02397694"><ele></ele><time>2014-4-6T17:28:18Z</time></trkpt>
<trkpt lat="46.12514192" lon="7.02400493"><ele></ele><time>2014-4-6T17:28:21Z</time></trkpt>
<trkpt lat="46.12527595" lon="7.02406294"><ele></ele><time>2014-4-6T17:28:24Z</time></trkpt>
<trkpt lat="46.12536999" lon="7.02410996"><ele></ele><time>2014-4-6T17:28:27Z</time></trkpt>
<trkpt lat="46.12547594" lon="7.02410694"><ele></ele><time>2014-4-6T17:28:30Z</time></trkpt>
<trkpt lat="46.12559396" lon="7.02401994"><ele></ele><time>2014-4-6T17:28:33Z</time></trkpt>
<trkpt lat="46.12569597" lon="7.02396797"><ele></ele><time>2014-4-6T17:28:36Z</time></trkpt>
<trkpt lat="46.12579496" lon="7.02392296"><ele></ele><time>2014-4-6T17:28:39Z</time></trkpt>
<trkpt lat="46.12590895" lon="7.02386596"><ele></ele><time>2014-4-6T17:28:42Z</time></trkpt>
<trkpt lat="46.12599595" lon="7.02381299"><ele></ele><time>2014-4-6T17:28:45Z</time></trkpt>
<trkpt lat="46.12607097" lon="7.02376798"><ele></ele><time>2014-4-6T17:28:48Z</time></trkpt>
<trkpt lat="46.12616493" lon="7.02369497"><ele></ele><time>2014-4-6T17:28:51Z</time></trkpt>
<trkpt lat="46.12623995" lon="7.02363596"><ele></ele><time>2014-4-6T17:28:54Z</time></trkpt>
<trkpt lat="46.12638395" lon="7.02359598"><ele></ele><time>2014-4-6T17:28:57Z</time></trkpt>
<trkpt lat="46.12652594" lon="7.02361694"><ele></ele><time>2014-4-6T17:29:0Z</time></trkpt>
<trkpt lat="46.12664295" lon="7.02366396"><ele></ele><time>2014-4-6T17:29:3Z</time></trkpt>
<trkpt lat="46.12676198" lon="7.02371593"><ele></ele><time>2014-4-6T17:29:6Z</time></trkpt>
<trkpt lat="46.12687899" lon="7.02377292"><ele></ele><time>2014-4-6T17:29:9Z</time></trkpt>
<trkpt lat="46.12699499" lon="7.02383495"><ele></ele><time>2014-4-6T17:29:12Z</time></trkpt>
<trkpt lat="46.12709298" lon="7.02389698"><ele></ele><time>2014-4-6T17:29:15Z</time></trkpt>
<trkpt lat="46.12720597" lon="7.02397694"><ele></ele><time>2014-4-6T17:29:18Z</time></trkpt>
<trkpt lat="46.12732599" lon="7.02406294"><ele></ele><time>2014-4-6T17:29:21Z</time></trkpt>
<trkpt lat="46.12742398" lon="7.02416897"><ele></ele><time>2014-4-6T17:29:24Z</time></trkpt>
<trkpt lat="46.12749992" lon="7.02430199"><ele></ele><time>2014-4-6T17:29:27Z</time></trkpt>
<trkpt lat="46.12755792" lon="7.02443392"><ele></ele><time>2014-4-6T17:29:30Z</time></trkpt>
<trkpt lat="46.12757594" lon="7.02445999"><ele></ele><time>2014-4-6T17:29:33Z</time></trkpt>
<trkpt lat="46.12763696" lon="7.02453995"><ele></ele><time>2014-4-6T17:29:36Z</time></trkpt>
<trkpt lat="46.12769698" lon="7.02449092"><ele></ele><time>2014-4-6T17:29:39Z</time></trkpt>
<trkpt lat="46.12771098" lon="7.02438598"><ele></ele><time>2014-4-6T17:29:42Z</time></trkpt>
<trkpt lat="46.12762498" lon="7.02417794"><ele></ele><time>2014-4-6T17:29:45Z</time></trkpt>
<trkpt lat="46.12758198" lon="7.02409697"><ele></ele><time>2014-4-6T17:29:48Z</time></trkpt>
<trkpt lat="46.12752599" lon="7.02397199"><ele></ele><time>2014-4-6T17:29:51Z</time></trkpt>
<trkpt lat="46.12750294" lon="7.02392195"><ele></ele><time>2014-4-6T17:29:54Z</time></trkpt>
<trkpt lat="46.12739699" lon="7.02370293"><ele></ele><time>2014-4-6T17:29:57Z</time></trkpt>
<trkpt lat="46.12730194" lon="7.02351895"><ele></ele><time>2014-4-6T17:30:0Z</time></trkpt>
<trkpt lat="46.12723094" lon="7.02339096"><ele></ele><time>2014-4-6T17:30:3Z</time></trkpt>
<trkpt lat="46.12713598" lon="7.02324897"><ele></ele><time>2014-4-6T17:30:6Z</time></trkpt>
<trkpt lat="46.12702995" lon="7.02313699"><ele></ele><time>2014-4-6T17:30:9Z</time></trkpt>
<trkpt lat="46.12690992" lon="7.02301797"><ele></ele><time>2014-4-6T17:30:12Z</time></trkpt>
<trkpt lat="46.12676198" lon="7.02288293"><ele></ele><time>2014-4-6T17:30:15Z</time></trkpt>
<trkpt lat="46.12662694" lon="7.02275796"><ele></ele><time>2014-4-6T17:30:18Z</time></trkpt>
<trkpt lat="46.12646995" lon="7.02259200"><ele></ele><time>2014-4-6T17:30:21Z</time></trkpt>
<trkpt lat="46.12630893" lon="7.02247297"><ele></ele><time>2014-4-6T17:30:24Z</time></trkpt>
<trkpt lat="46.12617793" lon="7.02246300"><ele></ele><time>2014-4-6T17:30:27Z</time></trkpt>
<trkpt lat="46.12606494" lon="7.02251094"><ele></ele><time>2014-4-6T17:30:30Z</time></trkpt>
<trkpt lat="46.12602999" lon="7.02253098"><ele></ele><time>2014-4-6T17:30:33Z</time></trkpt>
<trkpt lat="46.12594298" lon="7.02256895"><ele></ele><time>2014-4-6T17:30:36Z</time></trkpt>
<trkpt lat="46.12592999" lon="7.02256995"><ele></ele><time>2014-4-6T17:30:39Z</time></trkpt>
<trkpt lat="46.12588397" lon="7.02258395"><ele></ele><time>2014-4-6T17:30:42Z</time></trkpt>
<trkpt lat="46.12583997" lon="7.02257398"><ele></ele><time>2014-4-6T17:30:45Z</time></trkpt>
<trkpt lat="46.12580594" lon="7.02257196"><ele></ele><time>2014-4-6T17:30:48Z</time></trkpt>
<trkpt lat="46.12572497" lon="7.02257196"><ele></ele><time>2014-4-6T17:30:51Z</time></trkpt>
<trkpt lat="46.12564794" lon="7.02251497"><ele></ele><time>2014-4-6T17:30:54Z</time></trkpt>
<trkpt lat="46.12564098" lon="7.02247599"><ele></ele><time>2014-4-6T17:30:57Z</time></trkpt>
<trkpt lat="46.12569395" lon="7.02228698"><ele></ele><time>2014-4-6T17:31:0Z</time></trkpt>
<trkpt lat="46.12568499" lon="7.02226292"><ele></ele><time>2014-4-6T17:31:3Z</time></trkpt>
<trkpt lat="46.12559597" lon="7.02202295"><ele></ele><time>2014-4-6T17:31:6Z</time></trkpt>
<trkpt lat="46.12549296" lon="7.02180695"><ele></ele><time>2014-4-6T17:31:9Z</time></trkpt>
<trkpt lat="46.12535197" lon="7.02167099"><ele></ele><time>2014-4-6T17:31:12Z</time></trkpt>
<trkpt lat="46.12523094" lon="7.02160997"><ele></ele><time>2014-4-6T17:31:15Z</time></trkpt>
<trkpt lat="46.12509892" lon="7.02156597"><ele></ele><time>2014-4-6T17:31:18Z</time></trkpt>
<trkpt lat="46.12498594" lon="7.02152397"><ele></ele><time>2014-4-6T17:31:21Z</time></trkpt>
<trkpt lat="46.12484696" lon="7.02145793"><ele></ele><time>2014-4-6T17:31:24Z</time></trkpt>
<trkpt lat="46.12473398" lon="7.02135894"><ele></ele><time>2014-4-6T17:31:27Z</time></trkpt>
<trkpt lat="46.12463792" lon="7.02124192"><ele></ele><time>2014-4-6T17:31:30Z</time></trkpt>
<trkpt lat="46.12454496" lon="7.02112097"><ele></ele><time>2014-4-6T17:31:33Z</time></trkpt>
<trkpt lat="46.12444899" lon="7.02098594"><ele></ele><time>2014-4-6T17:31:36Z</time></trkpt>
<trkpt lat="46.12438395" lon="7.02089592"><ele></ele><time>2014-4-6T17:31:39Z</time></trkpt>
<trkpt lat="46.12426199" lon="7.02075393"><ele></ele><time>2014-4-6T17:31:42Z</time></trkpt>
<trkpt lat="46.12414892" lon="7.02064597"><ele></ele><time>2014-4-6T17:31:45Z</time></trkpt>
<trkpt lat="46.12403995" lon="7.02052594"><ele></ele><time>2014-4-6T17:31:48Z</time></trkpt>
<trkpt lat="46.12395194" lon="7.02040994"><ele></ele><time>2014-4-6T17:31:51Z</time></trkpt>
<trkpt lat="46.12386796" lon="7.02029594"><ele></ele><time>2014-4-6T17:31:54Z</time></trkpt>
<trkpt lat="46.12374692" lon="7.02012093"><ele></ele><time>2014-4-6T17:31:57Z</time></trkpt>
<trkpt lat="46.12363293" lon="7.01992999"><ele></ele><time>2014-4-6T17:32:0Z</time></trkpt>
<trkpt lat="46.12352095" lon="7.01972497"><ele></ele><time>2014-4-6T17:32:3Z</time></trkpt>
<trkpt lat="46.12345498" lon="7.01957795"><ele></ele><time>2014-4-6T17:32:6Z</time></trkpt>
<trkpt lat="46.12336496" lon="7.01936496"><ele></ele><time>2014-4-6T17:32:9Z</time></trkpt>
<trkpt lat="46.12328399" lon="7.01920596"><ele></ele><time>2014-4-6T17:32:12Z</time></trkpt>
<trkpt lat="46.12320394" lon="7.01905492"><ele></ele><time>2014-4-6T17:32:15Z</time></trkpt>
<trkpt lat="46.12313094" lon="7.01890396"><ele></ele><time>2014-4-6T17:32:18Z</time></trkpt>
<trkpt lat="46.12304695" lon="7.01872895"><ele></ele><time>2014-4-6T17:32:21Z</time></trkpt>
<trkpt lat="46.12297595" lon="7.01856994"><ele></ele><time>2014-4-6T17:32:24Z</time></trkpt>
<trkpt lat="46.12294000" lon="7.01839895"><ele></ele><time>2014-4-6T17:32:27Z</time></trkpt>
<trkpt lat="46.12293195" lon="7.01823299"><ele></ele><time>2014-4-6T17:32:30Z</time></trkpt>
<trkpt lat="46.12289700" lon="7.01809393"><ele></ele><time>2014-4-6T17:32:33Z</time></trkpt>
<trkpt lat="46.12280094" lon="7.01795094"><ele></ele><time>2014-4-6T17:32:36Z</time></trkpt>
<trkpt lat="46.12269198" lon="7.01784893"><ele></ele><time>2014-4-6T17:32:39Z</time></trkpt>
<trkpt lat="46.12264093" lon="7.01778397"><ele></ele><time>2014-4-6T17:32:42Z</time></trkpt>
<trkpt lat="46.12258594" lon="7.01764592"><ele></ele><time>2014-4-6T17:32:45Z</time></trkpt>
<trkpt lat="46.12256298" lon="7.01778900"><ele></ele><time>2014-4-6T17:32:48Z</time></trkpt>
<trkpt lat="46.12269298" lon="7.01782898"><ele></ele><time>2014-4-6T17:32:51Z</time></trkpt>
<trkpt lat="46.12280899" lon="7.01785396"><ele></ele><time>2014-4-6T17:32:54Z</time></trkpt>
<trkpt lat="46.12292298" lon="7.01788296"><ele></ele><time>2014-4-6T17:32:57Z</time></trkpt>
<trkpt lat="46.12301292" lon="7.01790995"><ele></ele><time>2014-4-6T17:33:0Z</time></trkpt>
<trkpt lat="46.12308400" lon="7.01798698"><ele></ele><time>2014-4-6T17:33:3Z</time></trkpt>
<trkpt lat="46.12315994" lon="7.01810592"><ele></ele><time>2014-4-6T17:33:6Z</time></trkpt>
<trkpt lat="46.12324594" lon="7.01822796"><ele></ele><time>2014-4-6T17:33:9Z</time></trkpt>
<trkpt lat="46.12331894" lon="7.01833500"><ele></ele><time>2014-4-6T17:33:12Z</time></trkpt>
<trkpt lat="46.12338298" lon="7.01840599"><ele></ele><time>2014-4-6T17:33:15Z</time></trkpt>
<trkpt lat="46.12343797" lon="7.01847296"><ele></ele><time>2014-4-6T17:33:18Z</time></trkpt>
<trkpt lat="46.12351097" lon="7.01856097"><ele></ele><time>2014-4-6T17:33:21Z</time></trkpt>
<trkpt lat="46.12358700" lon="7.01861495"><ele></ele><time>2014-4-6T17:33:24Z</time></trkpt>
<trkpt lat="46.12367492" lon="7.01866793"><ele></ele><time>2014-4-6T17:33:27Z</time></trkpt>
<trkpt lat="46.12378296" lon="7.01872392"><ele></ele><time>2014-4-6T17:33:30Z</time></trkpt>
<trkpt lat="46.12387097" lon="7.01871998"><ele></ele><time>2014-4-6T17:33:33Z</time></trkpt>
<trkpt lat="46.12399000" lon="7.01869592"><ele></ele><time>2014-4-6T17:33:36Z</time></trkpt>
<trkpt lat="46.12410592" lon="7.01869198"><ele></ele><time>2014-4-6T17:33:39Z</time></trkpt>
<trkpt lat="46.12418697" lon="7.01874294"><ele></ele><time>2014-4-6T17:33:42Z</time></trkpt>
<trkpt lat="46.12423693" lon="7.01879994"><ele></ele><time>2014-4-6T17:33:45Z</time></trkpt>
<trkpt lat="46.12432796" lon="7.01887999"><ele></ele><time>2014-4-6T17:33:48Z</time></trkpt>
<trkpt lat="46.12442292" lon="7.01897898"><ele></ele><time>2014-4-6T17:33:51Z</time></trkpt>
<trkpt lat="46.12451999" lon="7.01905995"><ele></ele><time>2014-4-6T17:33:54Z</time></trkpt>
<trkpt lat="46.12461596" lon="7.01907394"><ele></ele><time>2014-4-6T17:33:57Z</time></trkpt>
<trkpt lat="46.12474898" lon="7.01908492"><ele></ele><time>2014-4-6T17:34:0Z</time></trkpt>
<trkpt lat="46.12483699" lon="7.01907394"><ele></ele><time>2014-4-6T17:34:3Z</time></trkpt>
<trkpt lat="46.12494193" lon="7.01903396"><ele></ele><time>2014-4-6T17:34:6Z</time></trkpt>
<trkpt lat="46.12502994" lon="7.01899700"><ele></ele><time>2014-4-6T17:34:9Z</time></trkpt>
<trkpt lat="46.12510999" lon="7.01897596"><ele></ele><time>2014-4-6T17:34:12Z</time></trkpt>
<trkpt lat="46.12515793" lon="7.01896297"><ele></ele><time>2014-4-6T17:34:15Z</time></trkpt>
<trkpt lat="46.12530294" lon="7.01898593"><ele></ele><time>2014-4-6T17:34:18Z</time></trkpt>
<trkpt lat="46.12531794" lon="7.01898996"><ele></ele><time>2014-4-6T17:34:21Z</time></trkpt>
<trkpt lat="46.12544099" lon="7.01901100"><ele></ele><time>2014-4-6T17:34:24Z</time></trkpt>
<trkpt lat="46.12556898" lon="7.01906397"><ele></ele><time>2014-4-6T17:34:27Z</time></trkpt>
<trkpt lat="46.12570795" lon="7.01913396"><ele></ele><time>2014-4-6T17:34:30Z</time></trkpt>
<trkpt lat="46.12582396" lon="7.01917394"><ele></ele><time>2014-4-6T17:34:33Z</time></trkpt>
<trkpt lat="46.12592597" lon="7.01924292"><ele></ele><time>2014-4-6T17:34:36Z</time></trkpt>
<trkpt lat="46.12604097" lon="7.01928693"><ele></ele><time>2014-4-6T17:34:39Z</time></trkpt>
<trkpt lat="46.12614297" lon="7.01932398"><ele></ele><time>2014-4-6T17:34:42Z</time></trkpt>
<trkpt lat="46.12624800" lon="7.01934594"><ele></ele><time>2014-4-6T17:34:45Z</time></trkpt>
<trkpt lat="46.12637398" lon="7.01934099"><ele></ele><time>2014-4-6T17:34:48Z</time></trkpt>
<trkpt lat="46.12650792" lon="7.01931098"><ele></ele><time>2014-4-6T17:34:51Z</time></trkpt>
<trkpt lat="46.12660599" lon="7.01928995"><ele></ele><time>2014-4-6T17:34:54Z</time></trkpt>
<trkpt lat="46.12669995" lon="7.01928592"><ele></ele><time>2014-4-6T17:34:57Z</time></trkpt>
<trkpt lat="46.12680598" lon="7.01926094"><ele></ele><time>2014-4-6T17:35:0Z</time></trkpt>
<trkpt lat="46.12691394" lon="7.01929095"><ele></ele><time>2014-4-6T17:35:3Z</time></trkpt>
<trkpt lat="46.12706699" lon="7.01925600"><ele></ele><time>2014-4-6T17:35:6Z</time></trkpt>
<trkpt lat="46.12719197" lon="7.01922993"><ele></ele><time>2014-4-6T17:35:9Z</time></trkpt>
<trkpt lat="46.12723396" lon="7.01924795"><ele></ele><time>2014-4-6T17:35:12Z</time></trkpt>
<trkpt lat="46.12731795" lon="7.01926296"><ele></ele><time>2014-4-6T17:35:15Z</time></trkpt>
<trkpt lat="46.12742297" lon="7.01918693"><ele></ele><time>2014-4-6T17:35:18Z</time></trkpt>
<trkpt lat="46.12748198" lon="7.01914293"><ele></ele><time>2014-4-6T17:35:21Z</time></trkpt>
<trkpt lat="46.12760595" lon="7.01905299"><ele></ele><time>2014-4-6T17:35:24Z</time></trkpt>
<trkpt lat="46.12769597" lon="7.01895593"><ele></ele><time>2014-4-6T17:35:27Z</time></trkpt>
<trkpt lat="46.12776194" lon="7.01890698"><ele></ele><time>2014-4-6T17:35:30Z</time></trkpt>
<trkpt lat="46.12785992" lon="7.01889600"><ele></ele><time>2014-4-6T17:35:33Z</time></trkpt>
<trkpt lat="46.12797895" lon="7.01889994"><ele></ele><time>2014-4-6T17:35:36Z</time></trkpt>
<trkpt lat="46.12810099" lon="7.01889893"><ele></ele><time>2014-4-6T17:35:39Z</time></trkpt>
<trkpt lat="46.12823392" lon="7.01886993"><ele></ele><time>2014-4-6T17:35:42Z</time></trkpt>
<trkpt lat="46.12837499" lon="7.01884495"><ele></ele><time>2014-4-6T17:35:45Z</time></trkpt>
<trkpt lat="46.12848697" lon="7.01881796"><ele></ele><time>2014-4-6T17:35:48Z</time></trkpt>
<trkpt lat="46.12858194" lon="7.01881092"><ele></ele><time>2014-4-6T17:35:51Z</time></trkpt>
<trkpt lat="46.12868495" lon="7.01879198"><ele></ele><time>2014-4-6T17:35:54Z</time></trkpt>
<trkpt lat="46.12879593" lon="7.01875392"><ele></ele><time>2014-4-6T17:35:57Z</time></trkpt>
<trkpt lat="46.12890598" lon="7.01872299"><ele></ele><time>2014-4-6T17:36:0Z</time></trkpt>
<trkpt lat="46.12904194" lon="7.01867597"><ele></ele><time>2014-4-6T17:36:3Z</time></trkpt>
<trkpt lat="46.12918594" lon="7.01863993"><ele></ele><time>2014-4-6T17:36:6Z</time></trkpt>
<trkpt lat="46.12931293" lon="7.01860892"><ele></ele><time>2014-4-6T17:36:9Z</time></trkpt>
<trkpt lat="46.12944595" lon="7.01858595"><ele></ele><time>2014-4-6T17:36:12Z</time></trkpt>
<trkpt lat="46.12956899" lon="7.01860892"><ele></ele><time>2014-4-6T17:36:15Z</time></trkpt>
<trkpt lat="46.12965692" lon="7.01861696"><ele></ele><time>2014-4-6T17:36:18Z</time></trkpt>
<trkpt lat="46.12976295" lon="7.01865996"><ele></ele><time>2014-4-6T17:36:21Z</time></trkpt>
<trkpt lat="46.12980293" lon="7.01870698"><ele></ele><time>2014-4-6T17:36:24Z</time></trkpt>
<trkpt lat="46.12987594" lon="7.01874797"><ele></ele><time>2014-4-6T17:36:27Z</time></trkpt>
<trkpt lat="46.12996898" lon="7.01878594"><ele></ele><time>2014-4-6T17:36:30Z</time></trkpt>
<trkpt lat="46.13001793" lon="7.01881696"><ele></ele><time>2014-4-6T17:36:33Z</time></trkpt>
<trkpt lat="46.13009093" lon="7.01885895"><ele></ele><time>2014-4-6T17:36:36Z</time></trkpt>
<trkpt lat="46.13018095" lon="7.01889692"><ele></ele><time>2014-4-6T17:36:39Z</time></trkpt>
<trkpt lat="46.13026896" lon="7.01892693"><ele></ele><time>2014-4-6T17:36:42Z</time></trkpt>
<trkpt lat="46.13030392" lon="7.01892693"><ele></ele><time>2014-4-6T17:36:45Z</time></trkpt>
<trkpt lat="46.13045395" lon="7.01895995"><ele></ele><time>2014-4-6T17:36:48Z</time></trkpt>
<trkpt lat="46.13055797" lon="7.01898593"><ele></ele><time>2014-4-6T17:36:51Z</time></trkpt>
<trkpt lat="46.13066392" lon="7.01901100"><ele></ele><time>2014-4-6T17:36:54Z</time></trkpt>
<trkpt lat="46.13075595" lon="7.01904897"><ele></ele><time>2014-4-6T17:36:57Z</time></trkpt>
<trkpt lat="46.13081496" lon="7.01910194"><ele></ele><time>2014-4-6T17:37:0Z</time></trkpt>
<trkpt lat="46.13090892" lon="7.01911292"><ele></ele><time>2014-4-6T17:37:3Z</time></trkpt>
<trkpt lat="46.13101898" lon="7.01912097"><ele></ele><time>2014-4-6T17:37:6Z</time></trkpt>
<trkpt lat="46.13112794" lon="7.01916195"><ele></ele><time>2014-4-6T17:37:9Z</time></trkpt>
<trkpt lat="46.13125895" lon="7.01922499"><ele></ele><time>2014-4-6T17:37:12Z</time></trkpt>
<trkpt lat="46.13134294" lon="7.01927394"><ele></ele><time>2014-4-6T17:37:15Z</time></trkpt>
<trkpt lat="46.13141100" lon="7.01936295"><ele></ele><time>2014-4-6T17:37:18Z</time></trkpt>
<trkpt lat="46.13148099" lon="7.01937896"><ele></ele><time>2014-4-6T17:37:21Z</time></trkpt>
<trkpt lat="46.13148493" lon="7.01940193"><ele></ele><time>2014-4-6T17:37:24Z</time></trkpt>
<trkpt lat="46.13157998" lon="7.01943797"><ele></ele><time>2014-4-6T17:37:27Z</time></trkpt>
<trkpt lat="46.13155995" lon="7.01947695"><ele></ele><time>2014-4-6T17:37:30Z</time></trkpt>
<trkpt lat="46.13157998" lon="7.01945792"><ele></ele><time>2014-4-6T17:37:33Z</time></trkpt>
<trkpt lat="46.13161594" lon="7.01944895"><ele></ele><time>2014-4-6T17:37:36Z</time></trkpt>
<trkpt lat="46.13172398" lon="7.01941299"><ele></ele><time>2014-4-6T17:37:39Z</time></trkpt>
<trkpt lat="46.13182398" lon="7.01940293"><ele></ele><time>2014-4-6T17:37:42Z</time></trkpt>
<trkpt lat="46.13193898" lon="7.01936698"><ele></ele><time>2014-4-6T17:37:45Z</time></trkpt>
<trkpt lat="46.13202296" lon="7.01932297"><ele></ele><time>2014-4-6T17:37:48Z</time></trkpt>
<trkpt lat="46.13204392" lon="7.01930797"><ele></ele><time>2014-4-6T17:37:51Z</time></trkpt>
<trkpt lat="46.13212598" lon="7.01919498"><ele></ele><time>2014-4-6T17:37:54Z</time></trkpt>
<trkpt lat="46.13217895" lon="7.01910999"><ele></ele><time>2014-4-6T17:37:57Z</time></trkpt>
<trkpt lat="46.13222094" lon="7.01908794"><ele></ele><time>2014-4-6T17:38:0Z</time></trkpt>
<trkpt lat="46.13229294" lon="7.01906196"><ele></ele><time>2014-4-6T17:38:3Z</time></trkpt>
<trkpt lat="46.13238397" lon="7.01908593"><ele></ele><time>2014-4-6T17:38:6Z</time></trkpt>
<trkpt lat="46.13246997" lon="7.01904796"><ele></ele><time>2014-4-6T17:38:9Z</time></trkpt>
<trkpt lat="46.13250492" lon="7.01905693"><ele></ele><time>2014-4-6T17:38:12Z</time></trkpt>
<trkpt lat="46.13256494" lon="7.01904796"><ele></ele><time>2014-4-6T17:38:15Z</time></trkpt>
<trkpt lat="46.13268295" lon="7.01900798"><ele></ele><time>2014-4-6T17:38:18Z</time></trkpt>
<trkpt lat="46.13278697" lon="7.01897395"><ele></ele><time>2014-4-6T17:38:21Z</time></trkpt>
<trkpt lat="46.13285193" lon="7.01896993"><ele></ele><time>2014-4-6T17:38:24Z</time></trkpt>
<trkpt lat="46.13305796" lon="7.01890798"><ele></ele><time>2014-4-6T17:38:27Z</time></trkpt>
<trkpt lat="46.13318595" lon="7.01886792"><ele></ele><time>2014-4-6T17:38:30Z</time></trkpt>
<trkpt lat="46.13328997" lon="7.01883196"><ele></ele><time>2014-4-6T17:38:33Z</time></trkpt>
<trkpt lat="46.13336398" lon="7.01876599"><ele></ele><time>2014-4-6T17:38:36Z</time></trkpt>
<trkpt lat="46.13344797" lon="7.01873599"><ele></ele><time>2014-4-6T17:38:39Z</time></trkpt>
<trkpt lat="46.13354092" lon="7.01873892"><ele></ele><time>2014-4-6T17:38:42Z</time></trkpt>
<trkpt lat="46.13362399" lon="7.01868494"><ele></ele><time>2014-4-6T17:38:45Z</time></trkpt>
<trkpt lat="46.13371393" lon="7.01864395"><ele></ele><time>2014-4-6T17:38:48Z</time></trkpt>
<trkpt lat="46.13381895" lon="7.01858696"><ele></ele><time>2014-4-6T17:38:51Z</time></trkpt>
<trkpt lat="46.13390193" lon="7.01861294"><ele></ele><time>2014-4-6T17:38:54Z</time></trkpt>
<trkpt lat="46.13397092" lon="7.01866994"><ele></ele><time>2014-4-6T17:38:57Z</time></trkpt>
<trkpt lat="46.13406597" lon="7.01859693"><ele></ele><time>2014-4-6T17:39:0Z</time></trkpt>
<trkpt lat="46.13416496" lon="7.01856298"><ele></ele><time>2014-4-6T17:39:3Z</time></trkpt>
<trkpt lat="46.13428197" lon="7.01855594"><ele></ele><time>2014-4-6T17:39:6Z</time></trkpt>
<trkpt lat="46.13433293" lon="7.01854597"><ele></ele><time>2014-4-6T17:39:9Z</time></trkpt>
<trkpt lat="46.13446092" lon="7.01855795"><ele></ele><time>2014-4-6T17:39:12Z</time></trkpt>
<trkpt lat="46.13461800" lon="7.01855100"><ele></ele><time>2014-4-6T17:39:15Z</time></trkpt>
<trkpt lat="46.13478195" lon="7.01853096"><ele></ele><time>2014-4-6T17:39:18Z</time></trkpt>
<trkpt lat="46.13486493" lon="7.01858394"><ele></ele><time>2014-4-6T17:39:21Z</time></trkpt>
<trkpt lat="46.13502192" lon="7.01852594"><ele></ele><time>2014-4-6T17:39:24Z</time></trkpt>
<trkpt lat="46.13513298" lon="7.01851998"><ele></ele><time>2014-4-6T17:39:27Z</time></trkpt>
<trkpt lat="46.13523792" lon="7.01857095"><ele></ele><time>2014-4-6T17:39:30Z</time></trkpt>
<trkpt lat="46.13538595" lon="7.01862694"><ele></ele><time>2014-4-6T17:39:33Z</time></trkpt>
<trkpt lat="46.13551998" lon="7.01862099"><ele></ele><time>2014-4-6T17:39:36Z</time></trkpt>
<trkpt lat="46.13560597" lon="7.01864194"><ele></ele><time>2014-4-6T17:39:39Z</time></trkpt>
<trkpt lat="46.13568694" lon="7.01867295"><ele></ele><time>2014-4-6T17:39:42Z</time></trkpt>
<trkpt lat="46.13577898" lon="7.01876993"><ele></ele><time>2014-4-6T17:39:45Z</time></trkpt>
<trkpt lat="46.13586497" lon="7.01878695"><ele></ele><time>2014-4-6T17:39:48Z</time></trkpt>
<trkpt lat="46.13599297" lon="7.01878695"><ele></ele><time>2014-4-6T17:39:51Z</time></trkpt>
<trkpt lat="46.13611794" lon="7.01879793"><ele></ele><time>2014-4-6T17:39:54Z</time></trkpt>
<trkpt lat="46.13625498" lon="7.01882693"><ele></ele><time>2014-4-6T17:39:57Z</time></trkpt>
<trkpt lat="46.13636998" lon="7.01885593"><ele></ele><time>2014-4-6T17:40:0Z</time></trkpt>
<trkpt lat="46.13644794" lon="7.01891393"><ele></ele><time>2014-4-6T17:40:3Z</time></trkpt>
<trkpt lat="46.13647593" lon="7.01892592"><ele></ele><time>2014-4-6T17:40:6Z</time></trkpt>
<trkpt lat="46.13656294" lon="7.01893397"><ele></ele><time>2014-4-6T17:40:9Z</time></trkpt>
<trkpt lat="46.13671398" lon="7.01891796"><ele></ele><time>2014-4-6T17:40:12Z</time></trkpt>
<trkpt lat="46.13679897" lon="7.01898292"><ele></ele><time>2014-4-6T17:40:15Z</time></trkpt>
<trkpt lat="46.13691992" lon="7.01902198"><ele></ele><time>2014-4-6T17:40:18Z</time></trkpt>
<trkpt lat="46.13704096" lon="7.01905098"><ele></ele><time>2014-4-6T17:40:21Z</time></trkpt>
<trkpt lat="46.13717398" lon="7.01909398"><ele></ele><time>2014-4-6T17:40:24Z</time></trkpt>
<trkpt lat="46.13735293" lon="7.01898593"><ele></ele><time>2014-4-6T17:40:27Z</time></trkpt>
<trkpt lat="46.13737296" lon="7.01896699"><ele></ele><time>2014-4-6T17:40:30Z</time></trkpt>
<trkpt lat="46.13739199" lon="7.01895400"><ele></ele><time>2014-4-6T17:40:33Z</time></trkpt>
<trkpt lat="46.13742795" lon="7.01886096"><ele></ele><time>2014-4-6T17:40:36Z</time></trkpt>
<trkpt lat="46.13741395" lon="7.01887999"><ele></ele><time>2014-4-6T17:40:39Z</time></trkpt>
<trkpt lat="46.13736894" lon="7.01894998"><ele></ele><time>2014-4-6T17:40:42Z</time></trkpt>
<trkpt lat="46.13739392" lon="7.01892693"><ele></ele><time>2014-4-6T17:40:45Z</time></trkpt>
<trkpt lat="46.13733793" lon="7.01901494"><ele></ele><time>2014-4-6T17:40:48Z</time></trkpt>
<trkpt lat="46.13736492" lon="7.01898292"><ele></ele><time>2014-4-6T17:40:51Z</time></trkpt>
<trkpt lat="46.13737296" lon="7.01897495"><ele></ele><time>2014-4-6T17:40:54Z</time></trkpt>
<trkpt lat="46.13725092" lon="7.01908995"><ele></ele><time>2014-4-6T17:40:57Z</time></trkpt>
<trkpt lat="46.13727196" lon="7.01908392"><ele></ele><time>2014-4-6T17:41:0Z</time></trkpt>
<trkpt lat="46.13730599" lon="7.01889399"><ele></ele><time>2014-4-6T17:41:3Z</time></trkpt>
<trkpt lat="46.13713400" lon="7.01876993"><ele></ele><time>2014-4-6T17:41:6Z</time></trkpt>
<trkpt lat="46.13685295" lon="7.01870296"><ele></ele><time>2014-4-6T17:41:9Z</time></trkpt>
<trkpt lat="46.13675396" lon="7.01868494"><ele></ele><time>2014-4-6T17:41:12Z</time></trkpt>
<trkpt lat="46.13634199" lon="7.01853599"><ele></ele><time>2014-4-6T17:41:15Z</time></trkpt>
<trkpt lat="46.13600898" lon="7.01849794"><ele></ele><time>2014-4-6T17:41:18Z</time></trkpt>
<trkpt lat="46.13565593" lon="7.01841194"><ele></ele><time>2014-4-6T17:41:21Z</time></trkpt>
<trkpt lat="46.13559298" lon="7.01840096"><ele></ele><time>2014-4-6T17:41:24Z</time></trkpt>
<trkpt lat="46.13545200" lon="7.01845796"><ele></ele><time>2014-4-6T17:41:27Z</time></trkpt>
<trkpt lat="46.13541998" lon="7.01850096"><ele></ele><time>2014-4-6T17:41:30Z</time></trkpt>
<trkpt lat="46.13530599" lon="7.01869399"><ele></ele><time>2014-4-6T17:41:33Z</time></trkpt>
<trkpt lat="46.13538193" lon="7.01865292"><ele></ele><time>2014-4-6T17:41:36Z</time></trkpt>
<trkpt lat="46.13540296" lon="7.01864496"><ele></ele><time>2014-4-6T17:41:39Z</time></trkpt>
<trkpt lat="46.13548595" lon="7.01869793"><ele></ele><time>2014-4-6T17:41:42Z</time></trkpt>
<trkpt lat="46.13554194" lon="7.01872995"><ele></ele><time>2014-4-6T17:41:45Z</time></trkpt>
<trkpt lat="46.13562793" lon="7.01878695"><ele></ele><time>2014-4-6T17:41:48Z</time></trkpt>
<trkpt lat="46.13573899" lon="7.01883598"><ele></ele><time>2014-4-6T17:41:51Z</time></trkpt>
<trkpt lat="46.13582692" lon="7.01884395"><ele></ele><time>2014-4-6T17:41:54Z</time></trkpt>
<trkpt lat="46.13596195" lon="7.01884093"><ele></ele><time>2014-4-6T17:41:57Z</time></trkpt>
<trkpt lat="46.13609196" lon="7.01883196"><ele></ele><time>2014-4-6T17:42:0Z</time></trkpt>
<trkpt lat="46.13625700" lon="7.01875895"><ele></ele><time>2014-4-6T17:42:3Z</time></trkpt>
<trkpt lat="46.13644199" lon="7.01864395"><ele></ele><time>2014-4-6T17:42:6Z</time></trkpt>
<trkpt lat="46.13651994" lon="7.01866197"><ele></ele><time>2014-4-6T17:42:9Z</time></trkpt>
<trkpt lat="46.13663100" lon="7.01873699"><ele></ele><time>2014-4-6T17:42:12Z</time></trkpt>
<trkpt lat="46.13672898" lon="7.01883095"><ele></ele><time>2014-4-6T17:42:15Z</time></trkpt>
<trkpt lat="46.13682998" lon="7.01894696"><ele></ele><time>2014-4-6T17:42:18Z</time></trkpt>
<trkpt lat="46.13693199" lon="7.01905794"><ele></ele><time>2014-4-6T17:42:21Z</time></trkpt>
<trkpt lat="46.13702495" lon="7.01913496"><ele></ele><time>2014-4-6T17:42:24Z</time></trkpt>
<trkpt lat="46.13716694" lon="7.01921493"><ele></ele><time>2014-4-6T17:42:27Z</time></trkpt>
<trkpt lat="46.13734396" lon="7.01905894"><ele></ele><time>2014-4-6T17:42:30Z</time></trkpt>
<trkpt lat="46.13748897" lon="7.01878795"><ele></ele><time>2014-4-6T17:42:33Z</time></trkpt>
<trkpt lat="46.13755896" lon="7.01862300"><ele></ele><time>2014-4-6T17:42:36Z</time></trkpt>
<trkpt lat="46.13758896" lon="7.01858796"><ele></ele><time>2014-4-6T17:42:39Z</time></trkpt>
<trkpt lat="46.13760799" lon="7.01853499"><ele></ele><time>2014-4-6T17:42:42Z</time></trkpt>
<trkpt lat="46.13759995" lon="7.01845192"><ele></ele><time>2014-4-6T17:42:45Z</time></trkpt>
<trkpt lat="46.13760900" lon="7.01831597"><ele></ele><time>2014-4-6T17:42:48Z</time></trkpt>
<trkpt lat="46.13760699" lon="7.01822796"><ele></ele><time>2014-4-6T17:42:51Z</time></trkpt>
<trkpt lat="46.13760598" lon="7.01811598"><ele></ele><time>2014-4-6T17:42:54Z</time></trkpt>
<trkpt lat="46.13762693" lon="7.01798597"><ele></ele><time>2014-4-6T17:42:57Z</time></trkpt>
<trkpt lat="46.13765895" lon="7.01783795"><ele></ele><time>2014-4-6T17:43:0Z</time></trkpt>
<trkpt lat="46.13770296" lon="7.01767098"><ele></ele><time>2014-4-6T17:43:3Z</time></trkpt>
<trkpt lat="46.13775794" lon="7.01750292"><ele></ele><time>2014-4-6T17:43:6Z</time></trkpt>
<trkpt lat="46.13782098" lon="7.01732598"><ele></ele><time>2014-4-6T17:43:9Z</time></trkpt>
<trkpt lat="46.13788099" lon="7.01712792"><ele></ele><time>2014-4-6T17:43:12Z</time></trkpt>
<trkpt lat="46.13790496" lon="7.01699599"><ele></ele><time>2014-4-6T17:43:15Z</time></trkpt>
<trkpt lat="46.13795299" lon="7.01679197"><ele></ele><time>2014-4-6T17:43:18Z</time></trkpt>
<trkpt lat="46.13797193" lon="7.01678099"><ele></ele><time>2014-4-6T17:43:21Z</time></trkpt>
<trkpt lat="46.13796196" lon="7.01686598"><ele></ele><time>2014-4-6T17:43:24Z</time></trkpt>
<trkpt lat="46.13797998" lon="7.01692793"><ele></ele><time>2014-4-6T17:43:27Z</time></trkpt>
<trkpt lat="46.13796992" lon="7.01695198"><ele></ele><time>2014-4-6T17:43:30Z</time></trkpt>
<trkpt lat="46.13802600" lon="7.01708400"><ele></ele><time>2014-4-6T17:43:33Z</time></trkpt>
<trkpt lat="46.13811694" lon="7.01725398"><ele></ele><time>2014-4-6T17:43:36Z</time></trkpt>
<trkpt lat="46.13888196" lon="7.01693798"><ele></ele><time>2014-4-6T17:43:39Z</time></trkpt>
<trkpt lat="46.13882697" lon="7.01675895"><ele></ele><time>2014-4-6T17:43:42Z</time></trkpt>
<trkpt lat="46.13883996" lon="7.01673196"><ele></ele><time>2014-4-6T17:43:45Z</time></trkpt>
<trkpt lat="46.13890392" lon="7.01665694"><ele></ele><time>2014-4-6T17:43:48Z</time></trkpt>
<trkpt lat="46.13891699" lon="7.01664696"><ele></ele><time>2014-4-6T17:43:51Z</time></trkpt>
<trkpt lat="46.13900098" lon="7.01661796"><ele></ele><time>2014-4-6T17:43:54Z</time></trkpt>
<trkpt lat="46.13908296" lon="7.01661495"><ele></ele><time>2014-4-6T17:43:57Z</time></trkpt>
<trkpt lat="46.13909896" lon="7.01663892"><ele></ele><time>2014-4-6T17:44:0Z</time></trkpt>
<trkpt lat="46.13992592" lon="7.01629694"><ele></ele><time>2014-4-6T17:44:3Z</time></trkpt>
<trkpt lat="46.14000496" lon="7.01617196"><ele></ele><time>2014-4-6T17:44:6Z</time></trkpt>
<trkpt lat="46.14001997" lon="7.01615294"><ele></ele><time>2014-4-6T17:44:9Z</time></trkpt>
<trkpt lat="46.14002399" lon="7.01592294"><ele></ele><time>2014-4-6T17:44:12Z</time></trkpt>
<trkpt lat="46.14005794" lon="7.01569495"><ele></ele><time>2014-4-6T17:44:15Z</time></trkpt>
<trkpt lat="46.14011393" lon="7.01550292"><ele></ele><time>2014-4-6T17:44:18Z</time></trkpt>
<trkpt lat="46.14019892" lon="7.01537099"><ele></ele><time>2014-4-6T17:44:21Z</time></trkpt>
<trkpt lat="46.14033295" lon="7.01519195"><ele></ele><time>2014-4-6T17:44:24Z</time></trkpt>
<trkpt lat="46.14041694" lon="7.01499397"><ele></ele><time>2014-4-6T17:44:27Z</time></trkpt>
<trkpt lat="46.14048399" lon="7.01481694"><ele></ele><time>2014-4-6T17:44:30Z</time></trkpt>
<trkpt lat="46.14052095" lon="7.01467797"><ele></ele><time>2014-4-6T17:44:33Z</time></trkpt>
<trkpt lat="46.14052297" lon="7.01465894"><ele></ele><time>2014-4-6T17:44:36Z</time></trkpt>
<trkpt lat="46.14052598" lon="7.01451696"><ele></ele><time>2014-4-6T17:44:39Z</time></trkpt>
<trkpt lat="46.14057996" lon="7.01442199"><ele></ele><time>2014-4-6T17:44:42Z</time></trkpt>
<trkpt lat="46.14058499" lon="7.01438796"><ele></ele><time>2014-4-6T17:44:45Z</time></trkpt>
<trkpt lat="46.14065800" lon="7.01422694"><ele></ele><time>2014-4-6T17:44:48Z</time></trkpt>
<trkpt lat="46.14066797" lon="7.01421596"><ele></ele><time>2014-4-6T17:44:51Z</time></trkpt>
<trkpt lat="46.14073092" lon="7.01409593"><ele></ele><time>2014-4-6T17:44:54Z</time></trkpt>
<trkpt lat="46.14073293" lon="7.01408395"><ele></ele><time>2014-4-6T17:44:57Z</time></trkpt>
<trkpt lat="46.14070594" lon="7.01392092"><ele></ele><time>2014-4-6T17:45:0Z</time></trkpt>
<trkpt lat="46.14067996" lon="7.01379896"><ele></ele><time>2014-4-6T17:45:3Z</time></trkpt>
<trkpt lat="46.14066797" lon="7.01363199"><ele></ele><time>2014-4-6T17:45:6Z</time></trkpt>
<trkpt lat="46.14067694" lon="7.01349193"><ele></ele><time>2014-4-6T17:45:9Z</time></trkpt>
<trkpt lat="46.14068792" lon="7.01338196"><ele></ele><time>2014-4-6T17:45:12Z</time></trkpt>
<trkpt lat="46.14068993" lon="7.01335095"><ele></ele><time>2014-4-6T17:45:15Z</time></trkpt>
<trkpt lat="46.14071097" lon="7.01319798"><ele></ele><time>2014-4-6T17:45:18Z</time></trkpt>
<trkpt lat="46.14072095" lon="7.01316294"><ele></ele><time>2014-4-6T17:45:21Z</time></trkpt>
<trkpt lat="46.14077895" lon="7.01301492"><ele></ele><time>2014-4-6T17:45:24Z</time></trkpt>
<trkpt lat="46.14082798" lon="7.01289992"><ele></ele><time>2014-4-6T17:45:27Z</time></trkpt>
<trkpt lat="46.14084098" lon="7.01281099"><ele></ele><time>2014-4-6T17:45:30Z</time></trkpt>
<trkpt lat="46.14085799" lon="7.01268299"><ele></ele><time>2014-4-6T17:45:33Z</time></trkpt>
<trkpt lat="46.14086294" lon="7.01251393"><ele></ele><time>2014-4-6T17:45:36Z</time></trkpt>
<trkpt lat="46.14086394" lon="7.01232400"><ele></ele><time>2014-4-6T17:45:39Z</time></trkpt>
<trkpt lat="46.14085900" lon="7.01228594"><ele></ele><time>2014-4-6T17:45:42Z</time></trkpt>
<trkpt lat="46.14085799" lon="7.01220992"><ele></ele><time>2014-4-6T17:45:45Z</time></trkpt>
<trkpt lat="46.14082899" lon="7.01204798"><ele></ele><time>2014-4-6T17:45:48Z</time></trkpt>
<trkpt lat="46.14081994" lon="7.01201395"><ele></ele><time>2014-4-6T17:45:51Z</time></trkpt>
<trkpt lat="46.14081097" lon="7.01183299"><ele></ele><time>2014-4-6T17:45:54Z</time></trkpt>
<trkpt lat="46.14081097" lon="7.01181698"><ele></ele><time>2014-4-6T17:45:57Z</time></trkpt>
<trkpt lat="46.14083796" lon="7.01159192"><ele></ele><time>2014-4-6T17:46:0Z</time></trkpt>
<trkpt lat="46.14095899" lon="7.01107099"><ele></ele><time>2014-4-6T17:46:3Z</time></trkpt>
<trkpt lat="46.14096293" lon="7.01106797"><ele></ele><time>2014-4-6T17:46:6Z</time></trkpt>
<trkpt lat="46.14100099" lon="7.01101894"><ele></ele><time>2014-4-6T17:46:9Z</time></trkpt>
<trkpt lat="46.14102798" lon="7.01091995"><ele></ele><time>2014-4-6T17:46:12Z</time></trkpt>
<trkpt lat="46.14103292" lon="7.01082992"><ele></ele><time>2014-4-6T17:46:15Z</time></trkpt>
<trkpt lat="46.14100794" lon="7.01070596"><ele></ele><time>2014-4-6T17:46:18Z</time></trkpt>
<trkpt lat="46.14097794" lon="7.01054695"><ele></ele><time>2014-4-6T17:46:21Z</time></trkpt>
<trkpt lat="46.14097098" lon="7.01042499"><ele></ele><time>2014-4-6T17:46:24Z</time></trkpt>
<trkpt lat="46.14096000" lon="7.01037395"><ele></ele><time>2014-4-6T17:46:27Z</time></trkpt>
<trkpt lat="46.14095799" lon="7.01030597"><ele></ele><time>2014-4-6T17:46:30Z</time></trkpt>
<trkpt lat="46.14095095" lon="7.01025300"><ele></ele><time>2014-4-6T17:46:33Z</time></trkpt>
<trkpt lat="46.14093494" lon="7.01023296"><ele></ele><time>2014-4-6T17:46:36Z</time></trkpt>
<trkpt lat="46.14092798" lon="7.01016096"><ele></ele><time>2014-4-6T17:46:39Z</time></trkpt>
<trkpt lat="46.14092697" lon="7.01014697"><ele></ele><time>2014-4-6T17:46:42Z</time></trkpt>
<trkpt lat="46.14092697" lon="7.00995594"><ele></ele><time>2014-4-6T17:46:45Z</time></trkpt>
<trkpt lat="46.14092194" lon="7.00990297"><ele></ele><time>2014-4-6T17:46:48Z</time></trkpt>
<trkpt lat="46.14091096" lon="7.00984698"><ele></ele><time>2014-4-6T17:46:51Z</time></trkpt>
<trkpt lat="46.14089596" lon="7.00981596"><ele></ele><time>2014-4-6T17:46:54Z</time></trkpt>
<trkpt lat="46.14087895" lon="7.00968596"><ele></ele><time>2014-4-6T17:46:57Z</time></trkpt>
<trkpt lat="46.14086495" lon="7.00954992"><ele></ele><time>2014-4-6T17:47:0Z</time></trkpt>
<trkpt lat="46.14084500" lon="7.00944398"><ele></ele><time>2014-4-6T17:47:3Z</time></trkpt>
<trkpt lat="46.14080896" lon="7.00930894"><ele></ele><time>2014-4-6T17:47:6Z</time></trkpt>
<trkpt lat="46.14075498" lon="7.00910099"><ele></ele><time>2014-4-6T17:47:9Z</time></trkpt>
<trkpt lat="46.14070997" lon="7.00893293"><ele></ele><time>2014-4-6T17:47:12Z</time></trkpt>
<trkpt lat="46.14066797" lon="7.00884693"><ele></ele><time>2014-4-6T17:47:15Z</time></trkpt>
<trkpt lat="46.14063998" lon="7.00871592"><ele></ele><time>2014-4-6T17:47:18Z</time></trkpt>
<trkpt lat="46.14060394" lon="7.00861400"><ele></ele><time>2014-4-6T17:47:21Z</time></trkpt>
<trkpt lat="46.14059798" lon="7.00860998"><ele></ele><time>2014-4-6T17:47:24Z</time></trkpt>
<trkpt lat="46.14056496" lon="7.00850495"><ele></ele><time>2014-4-6T17:47:27Z</time></trkpt>
<trkpt lat="46.14055599" lon="7.00845692"><ele></ele><time>2014-4-6T17:47:30Z</time></trkpt>
<trkpt lat="46.14052992" lon="7.00833698"><ele></ele><time>2014-4-6T17:47:33Z</time></trkpt>
<trkpt lat="46.14052598" lon="7.00832197"><ele></ele><time>2014-4-6T17:47:36Z</time></trkpt>
<trkpt lat="46.14047100" lon="7.00820295"><ele></ele><time>2014-4-6T17:47:39Z</time></trkpt>
<trkpt lat="46.14040294" lon="7.00808996"><ele></ele><time>2014-4-6T17:47:42Z</time></trkpt>
<trkpt lat="46.14034896" lon="7.00801293"><ele></ele><time>2014-4-6T17:47:45Z</time></trkpt>
<trkpt lat="46.14033496" lon="7.00796499"><ele></ele><time>2014-4-6T17:47:48Z</time></trkpt>
<trkpt lat="46.14032893" lon="7.00792593"><ele></ele><time>2014-4-6T17:47:51Z</time></trkpt>
<trkpt lat="46.14027595" lon="7.00778092"><ele></ele><time>2014-4-6T17:47:54Z</time></trkpt>
<trkpt lat="46.14022692" lon="7.00767095"><ele></ele><time>2014-4-6T17:47:57Z</time></trkpt>
<trkpt lat="46.14017596" lon="7.00758596"><ele></ele><time>2014-4-6T17:48:0Z</time></trkpt>
<trkpt lat="46.14013899" lon="7.00745093"><ele></ele><time>2014-4-6T17:48:3Z</time></trkpt>
<trkpt lat="46.14007898" lon="7.00728396"><ele></ele><time>2014-4-6T17:48:6Z</time></trkpt>
<trkpt lat="46.14005794" lon="7.00720894"><ele></ele><time>2014-4-6T17:48:9Z</time></trkpt>
<trkpt lat="46.14003900" lon="7.00712998"><ele></ele><time>2014-4-6T17:48:12Z</time></trkpt>
<trkpt lat="46.14001393" lon="7.00703996"><ele></ele><time>2014-4-6T17:48:15Z</time></trkpt>
<trkpt lat="46.13995694" lon="7.00696997"><ele></ele><time>2014-4-6T17:48:18Z</time></trkpt>
<trkpt lat="46.13993799" lon="7.00689093"><ele></ele><time>2014-4-6T17:48:21Z</time></trkpt>
<trkpt lat="46.13991897" lon="7.00682899"><ele></ele><time>2014-4-6T17:48:24Z</time></trkpt>
<trkpt lat="46.13987898" lon="7.00671097"><ele></ele><time>2014-4-6T17:48:27Z</time></trkpt>
<trkpt lat="46.13983096" lon="7.00659597"><ele></ele><time>2014-4-6T17:48:30Z</time></trkpt>
<trkpt lat="46.13975896" lon="7.00649992"><ele></ele><time>2014-4-6T17:48:33Z</time></trkpt>
<trkpt lat="46.13969995" lon="7.00644895"><ele></ele><time>2014-4-6T17:48:36Z</time></trkpt>
<trkpt lat="46.13969592" lon="7.00639799"><ele></ele><time>2014-4-6T17:48:39Z</time></trkpt>
<trkpt lat="46.13967497" lon="7.00619197"><ele></ele><time>2014-4-6T17:48:42Z</time></trkpt>
<trkpt lat="46.13966994" lon="7.00611292"><ele></ele><time>2014-4-6T17:48:45Z</time></trkpt>
<trkpt lat="46.13957196" lon="7.00598200"><ele></ele><time>2014-4-6T17:48:48Z</time></trkpt>
<trkpt lat="46.13947699" lon="7.00586893"><ele></ele><time>2014-4-6T17:48:51Z</time></trkpt>
<trkpt lat="46.13935595" lon="7.00572099"><ele></ele><time>2014-4-6T17:48:54Z</time></trkpt>
<trkpt lat="46.13932494" lon="7.00558394"><ele></ele><time>2014-4-6T17:48:57Z</time></trkpt>
<trkpt lat="46.13933693" lon="7.00544799"><ele></ele><time>2014-4-6T17:49:0Z</time></trkpt>
<trkpt lat="46.13933693" lon="7.00520793"><ele></ele><time>2014-4-6T17:49:3Z</time></trkpt>
<trkpt lat="46.13925596" lon="7.00505094"><ele></ele><time>2014-4-6T17:49:6Z</time></trkpt>
<trkpt lat="46.13920097" lon="7.00493200"><ele></ele><time>2014-4-6T17:49:9Z</time></trkpt>
<trkpt lat="46.13919293" lon="7.00475598"><ele></ele><time>2014-4-6T17:49:12Z</time></trkpt>
<trkpt lat="46.13921396" lon="7.00456495"><ele></ele><time>2014-4-6T17:49:15Z</time></trkpt>
<trkpt lat="46.13926392" lon="7.00432892"><ele></ele><time>2014-4-6T17:49:18Z</time></trkpt>
<trkpt lat="46.13933399" lon="7.00402097"><ele></ele><time>2014-4-6T17:49:21Z</time></trkpt>
<trkpt lat="46.13939996" lon="7.00379197"><ele></ele><time>2014-4-6T17:49:24Z</time></trkpt>
<trkpt lat="46.13942997" lon="7.00364294"><ele></ele><time>2014-4-6T17:49:27Z</time></trkpt>
<trkpt lat="46.13947799" lon="7.00341999"><ele></ele><time>2014-4-6T17:49:30Z</time></trkpt>
<trkpt lat="46.13951999" lon="7.00317993"><ele></ele><time>2014-4-6T17:49:33Z</time></trkpt>
<trkpt lat="46.13954195" lon="7.00298999"><ele></ele><time>2014-4-6T17:49:36Z</time></trkpt>
<trkpt lat="46.13954295" lon="7.00271498"><ele></ele><time>2014-4-6T17:49:39Z</time></trkpt>
<trkpt lat="46.13951295" lon="7.00247099"><ele></ele><time>2014-4-6T17:49:42Z</time></trkpt>
<trkpt lat="46.13941899" lon="7.00225398"><ele></ele><time>2014-4-6T17:49:45Z</time></trkpt>
<trkpt lat="46.13933399" lon="7.00207997"><ele></ele><time>2014-4-6T17:49:48Z</time></trkpt>
<trkpt lat="46.13931094" lon="7.00184595"><ele></ele><time>2014-4-6T17:49:51Z</time></trkpt>
<trkpt lat="46.13937498" lon="7.00164093"><ele></ele><time>2014-4-6T17:49:54Z</time></trkpt>
<trkpt lat="46.13941999" lon="7.00145795"><ele></ele><time>2014-4-6T17:49:57Z</time></trkpt>
<trkpt lat="46.13947598" lon="7.00121596"><ele></ele><time>2014-4-6T17:50:0Z</time></trkpt>
<trkpt lat="46.13951496" lon="7.00098094"><ele></ele><time>2014-4-6T17:50:3Z</time></trkpt>
<trkpt lat="46.13955796" lon="7.00070593"><ele></ele><time>2014-4-6T17:50:6Z</time></trkpt>
<trkpt lat="46.13958595" lon="7.00041692"><ele></ele><time>2014-4-6T17:50:9Z</time></trkpt>
<trkpt lat="46.13958897" lon="7.00015993"><ele></ele><time>2014-4-6T17:50:12Z</time></trkpt>
<trkpt lat="46.13958394" lon="6.99990495"><ele></ele><time>2014-4-6T17:50:15Z</time></trkpt>
<trkpt lat="46.13958394" lon="6.99975299"><ele></ele><time>2014-4-6T17:50:18Z</time></trkpt>
<trkpt lat="46.13958998" lon="6.99957596"><ele></ele><time>2014-4-6T17:50:21Z</time></trkpt>
<trkpt lat="46.13959995" lon="6.99932098"><ele></ele><time>2014-4-6T17:50:24Z</time></trkpt>
<trkpt lat="46.13961797" lon="6.99906894"><ele></ele><time>2014-4-6T17:50:27Z</time></trkpt>
<trkpt lat="46.13962795" lon="6.99879100"><ele></ele><time>2014-4-6T17:50:30Z</time></trkpt>
<trkpt lat="46.13963792" lon="6.99858799"><ele></ele><time>2014-4-6T17:50:33Z</time></trkpt>
<trkpt lat="46.13963893" lon="6.99856795"><ele></ele><time>2014-4-6T17:50:36Z</time></trkpt>
<trkpt lat="46.13964396" lon="6.99854893"><ele></ele><time>2014-4-6T17:50:39Z</time></trkpt>
<trkpt lat="46.13972099" lon="6.99862193"><ele></ele><time>2014-4-6T17:50:42Z</time></trkpt>
<trkpt lat="46.13972493" lon="6.99865194"><ele></ele><time>2014-4-6T17:50:45Z</time></trkpt>
<trkpt lat="46.13981294" lon="6.99889099"><ele></ele><time>2014-4-6T17:50:48Z</time></trkpt>
<trkpt lat="46.13991997" lon="6.99905796"><ele></ele><time>2014-4-6T17:50:51Z</time></trkpt>
<trkpt lat="46.13997093" lon="6.99913600"><ele></ele><time>2014-4-6T17:50:54Z</time></trkpt>
<trkpt lat="46.14006297" lon="6.99944294"><ele></ele><time>2014-4-6T17:50:57Z</time></trkpt>
<trkpt lat="46.14007596" lon="6.99948393"><ele></ele><time>2014-4-6T17:51:0Z</time></trkpt>
<trkpt lat="46.14016799" lon="6.99955199"><ele></ele><time>2014-4-6T17:51:3Z</time></trkpt>
<trkpt lat="46.14017696" lon="6.99954394"><ele></ele><time>2014-4-6T17:51:6Z</time></trkpt>
<trkpt lat="46.14021795" lon="6.99939298"><ele></ele><time>2014-4-6T17:51:9Z</time></trkpt>
<trkpt lat="46.14025592" lon="6.99915594"><ele></ele><time>2014-4-6T17:51:12Z</time></trkpt>
<trkpt lat="46.14030495" lon="6.99891295"><ele></ele><time>2014-4-6T17:51:15Z</time></trkpt>
<trkpt lat="46.14033798" lon="6.99868798"><ele></ele><time>2014-4-6T17:51:18Z</time></trkpt>
<trkpt lat="46.14036195" lon="6.99850299"><ele></ele><time>2014-4-6T17:51:21Z</time></trkpt>
<trkpt lat="46.14036698" lon="6.99848397"><ele></ele><time>2014-4-6T17:51:24Z</time></trkpt>
<trkpt lat="46.14038492" lon="6.99846092"><ele></ele><time>2014-4-6T17:51:27Z</time></trkpt>
<trkpt lat="46.14042993" lon="6.99843896"><ele></ele><time>2014-4-6T17:51:30Z</time></trkpt>
<trkpt lat="46.14045792" lon="6.99842697"><ele></ele><time>2014-4-6T17:51:33Z</time></trkpt>
<trkpt lat="46.14035994" lon="6.99848799"><ele></ele><time>2014-4-6T17:51:36Z</time></trkpt>
<trkpt lat="46.14034695" lon="6.99848397"><ele></ele><time>2014-4-6T17:51:39Z</time></trkpt>
<trkpt lat="46.14032599" lon="6.99841792"><ele></ele><time>2014-4-6T17:51:42Z</time></trkpt>
<trkpt lat="46.14033295" lon="6.99822597"><ele></ele><time>2014-4-6T17:51:45Z</time></trkpt>
<trkpt lat="46.14037092" lon="6.99797493"><ele></ele><time>2014-4-6T17:51:48Z</time></trkpt>
<trkpt lat="46.14040595" lon="6.99769992"><ele></ele><time>2014-4-6T17:51:51Z</time></trkpt>
<trkpt lat="46.14045097" lon="6.99746397"><ele></ele><time>2014-4-6T17:51:54Z</time></trkpt>
<trkpt lat="46.14044996" lon="6.99743296"><ele></ele><time>2014-4-6T17:51:57Z</time></trkpt>
<trkpt lat="46.14036798" lon="6.99735492"><ele></ele><time>2014-4-6T17:52:0Z</time></trkpt>
<trkpt lat="46.14019699" lon="6.99727194"><ele></ele><time>2014-4-6T17:52:3Z</time></trkpt>
<trkpt lat="46.14001494" lon="6.99708997"><ele></ele><time>2014-4-6T17:52:6Z</time></trkpt>
<trkpt lat="46.13980195" lon="6.99696793"><ele></ele><time>2014-4-6T17:52:9Z</time></trkpt>
<trkpt lat="46.13980698" lon="6.99679594"><ele></ele><time>2014-4-6T17:52:12Z</time></trkpt>
<trkpt lat="46.13989893" lon="6.99653392"><ele></ele><time>2014-4-6T17:52:15Z</time></trkpt>
<trkpt lat="46.13996993" lon="6.99629696"><ele></ele><time>2014-4-6T17:52:18Z</time></trkpt>
<trkpt lat="46.14000094" lon="6.99586898"><ele></ele><time>2014-4-6T17:52:21Z</time></trkpt>
<trkpt lat="46.14001293" lon="6.99544293"><ele></ele><time>2014-4-6T17:52:24Z</time></trkpt>
<trkpt lat="46.14003900" lon="6.99485594"><ele></ele><time>2014-4-6T17:52:27Z</time></trkpt>
<trkpt lat="46.14008292" lon="6.99444498"><ele></ele><time>2014-4-6T17:52:30Z</time></trkpt>
<trkpt lat="46.14010295" lon="6.99393695"><ele></ele><time>2014-4-6T17:52:33Z</time></trkpt>
<trkpt lat="46.14017596" lon="6.99356295"><ele></ele><time>2014-4-6T17:52:36Z</time></trkpt>
<trkpt lat="46.14033898" lon="6.99315098"><ele></ele><time>2014-4-6T17:52:39Z</time></trkpt>
<trkpt lat="46.14042297" lon="6.99292199"><ele></ele><time>2014-4-6T17:52:42Z</time></trkpt>
<trkpt lat="46.14040193" lon="6.99274496"><ele></ele><time>2014-4-6T17:52:45Z</time></trkpt>
<trkpt lat="46.14040294" lon="6.99287497"><ele></ele><time>2014-4-6T17:52:48Z</time></trkpt>
<trkpt lat="46.14035399" lon="6.99310094"><ele></ele><time>2014-4-6T17:52:51Z</time></trkpt>
<trkpt lat="46.14017394" lon="6.99343798"><ele></ele><time>2014-4-6T17:52:54Z</time></trkpt>
<trkpt lat="46.14007294" lon="6.99380896"><ele></ele><time>2014-4-6T17:52:57Z</time></trkpt>
<trkpt lat="46.14005492" lon="6.99456895"><ele></ele><time>2014-4-6T17:53:0Z</time></trkpt>
<trkpt lat="46.14000094" lon="6.99543195"><ele></ele><time>2014-4-6T17:53:3Z</time></trkpt>
<trkpt lat="46.13999692" lon="6.99604894"><ele></ele><time>2014-4-6T17:53:6Z</time></trkpt>
<trkpt lat="46.13994193" lon="6.99639000"><ele></ele><time>2014-4-6T17:53:9Z</time></trkpt>
<trkpt lat="46.13985099" lon="6.99663199"><ele></ele><time>2014-4-6T17:53:12Z</time></trkpt>
<trkpt lat="46.13974395" lon="6.99722199"><ele></ele><time>2014-4-6T17:53:15Z</time></trkpt>
<trkpt lat="46.13964597" lon="6.99811298"><ele></ele><time>2014-4-6T17:53:18Z</time></trkpt>
<trkpt lat="46.13959995" lon="6.99892796"><ele></ele><time>2014-4-6T17:53:21Z</time></trkpt>
<trkpt lat="46.13954195" lon="6.99968300"><ele></ele><time>2014-4-6T17:53:24Z</time></trkpt>
<trkpt lat="46.13956198" lon="7.00039596"><ele></ele><time>2014-4-6T17:53:27Z</time></trkpt>
<trkpt lat="46.13952099" lon="7.00101295"><ele></ele><time>2014-4-6T17:53:30Z</time></trkpt>
<trkpt lat="46.13934900" lon="7.00170396"><ele></ele><time>2014-4-6T17:53:33Z</time></trkpt>
<trkpt lat="46.13935696" lon="7.00218097"><ele></ele><time>2014-4-6T17:53:36Z</time></trkpt>
<trkpt lat="46.13948495" lon="7.00253192"><ele></ele><time>2014-4-6T17:53:39Z</time></trkpt>
<trkpt lat="46.13951496" lon="7.00281096"><ele></ele><time>2014-4-6T17:53:42Z</time></trkpt>
<trkpt lat="46.13951395" lon="7.00304397"><ele></ele><time>2014-4-6T17:53:45Z</time></trkpt>
<trkpt lat="46.13946592" lon="7.00321496"><ele></ele><time>2014-4-6T17:53:48Z</time></trkpt>
<trkpt lat="46.13945997" lon="7.00321597"><ele></ele><time>2014-4-6T17:53:51Z</time></trkpt>
<trkpt lat="46.13942293" lon="7.00338093"><ele></ele><time>2014-4-6T17:53:54Z</time></trkpt>
<trkpt lat="46.13933399" lon="7.00371997"><ele></ele><time>2014-4-6T17:53:57Z</time></trkpt>
<trkpt lat="46.13924498" lon="7.00413798"><ele></ele><time>2014-4-6T17:54:0Z</time></trkpt>
<trkpt lat="46.13914800" lon="7.00460494"><ele></ele><time>2014-4-6T17:54:3Z</time></trkpt>
<trkpt lat="46.13913098" lon="7.00471197"><ele></ele><time>2014-4-6T17:54:6Z</time></trkpt>
<trkpt lat="46.13918195" lon="7.00502898"><ele></ele><time>2014-4-6T17:54:9Z</time></trkpt>
<trkpt lat="46.13923995" lon="7.00512093"><ele></ele><time>2014-4-6T17:54:12Z</time></trkpt>
<trkpt lat="46.13927993" lon="7.00550792"><ele></ele><time>2014-4-6T17:54:15Z</time></trkpt>
<trkpt lat="46.13930499" lon="7.00576893"><ele></ele><time>2014-4-6T17:54:18Z</time></trkpt>
<trkpt lat="46.13943298" lon="7.00598099"><ele></ele><time>2014-4-6T17:54:21Z</time></trkpt>
<trkpt lat="46.13984998" lon="7.00662900"><ele></ele><time>2014-4-6T17:54:24Z</time></trkpt>
<trkpt lat="46.14021594" lon="7.00769593"><ele></ele><time>2014-4-6T17:54:27Z</time></trkpt>
<trkpt lat="46.14043697" lon="7.00820396"><ele></ele><time>2014-4-6T17:54:30Z</time></trkpt>
<trkpt lat="46.14073494" lon="7.00916293"><ele></ele><time>2014-4-6T17:54:33Z</time></trkpt>
<trkpt lat="46.14089797" lon="7.00998796"><ele></ele><time>2014-4-6T17:54:36Z</time></trkpt>
<trkpt lat="46.14096494" lon="7.01059196"><ele></ele><time>2014-4-6T17:54:39Z</time></trkpt>
<trkpt lat="46.14098095" lon="7.01076899"><ele></ele><time>2014-4-6T17:54:42Z</time></trkpt>
<trkpt lat="46.14092295" lon="7.01132295"><ele></ele><time>2014-4-6T17:54:45Z</time></trkpt>
<trkpt lat="46.14089496" lon="7.01144700"><ele></ele><time>2014-4-6T17:54:48Z</time></trkpt>
<trkpt lat="46.14077199" lon="7.01201496"><ele></ele><time>2014-4-6T17:54:51Z</time></trkpt>
<trkpt lat="46.14081399" lon="7.01245895"><ele></ele><time>2014-4-6T17:54:54Z</time></trkpt>
<trkpt lat="46.14072095" lon="7.01298793"><ele></ele><time>2014-4-6T17:54:57Z</time></trkpt>
<trkpt lat="46.14064098" lon="7.01327593"><ele></ele><time>2014-4-6T17:55:0Z</time></trkpt>
<trkpt lat="46.14055792" lon="7.01425896"><ele></ele><time>2014-4-6T17:55:3Z</time></trkpt>
<trkpt lat="46.14048793" lon="7.01440799"><ele></ele><time>2014-4-6T17:55:6Z</time></trkpt>
<trkpt lat="46.14029598" lon="7.01516697"><ele></ele><time>2014-4-6T17:55:9Z</time></trkpt>
<trkpt lat="46.14005693" lon="7.01568095"><ele></ele><time>2014-4-6T17:55:12Z</time></trkpt>
<trkpt lat="46.13999600" lon="7.01584498"><ele></ele><time>2014-4-6T17:55:15Z</time></trkpt>
<trkpt lat="46.13998393" lon="7.01639894"><ele></ele><time>2014-4-6T17:55:18Z</time></trkpt>
<trkpt lat="46.13864995" lon="7.01667295"><ele></ele><time>2014-4-6T17:55:21Z</time></trkpt>
<trkpt lat="46.13788795" lon="7.01676993"><ele></ele><time>2014-4-6T17:55:24Z</time></trkpt>
<trkpt lat="46.13784294" lon="7.01697495"><ele></ele><time>2014-4-6T17:55:27Z</time></trkpt>
<trkpt lat="46.13783900" lon="7.01709992"><ele></ele><time>2014-4-6T17:55:30Z</time></trkpt>
<trkpt lat="46.13766692" lon="7.01756797"><ele></ele><time>2014-4-6T17:55:33Z</time></trkpt>
<trkpt lat="46.13748293" lon="7.01840096"><ele></ele><time>2014-4-6T17:55:36Z</time></trkpt>
<trkpt lat="46.13745997" lon="7.01862694"><ele></ele><time>2014-4-6T17:55:39Z</time></trkpt>
<trkpt lat="46.13731194" lon="7.01904394"><ele></ele><time>2014-4-6T17:55:42Z</time></trkpt>
<trkpt lat="46.13727297" lon="7.01915097"><ele></ele><time>2014-4-6T17:55:45Z</time></trkpt>
<trkpt lat="46.13712997" lon="7.01936195"><ele></ele><time>2014-4-6T17:55:48Z</time></trkpt>
<trkpt lat="46.13689000" lon="7.01923094"><ele></ele><time>2014-4-6T17:55:51Z</time></trkpt>
<trkpt lat="46.13639597" lon="7.01910496"><ele></ele><time>2014-4-6T17:55:54Z</time></trkpt>
<trkpt lat="46.13628197" lon="7.01901795"><ele></ele><time>2014-4-6T17:55:57Z</time></trkpt>
<trkpt lat="46.13567797" lon="7.01879097"><ele></ele><time>2014-4-6T17:56:0Z</time></trkpt>
<trkpt lat="46.13513198" lon="7.01863792"><ele></ele><time>2014-4-6T17:56:3Z</time></trkpt>
<trkpt lat="46.13455899" lon="7.01859592"><ele></ele><time>2014-4-6T17:56:6Z</time></trkpt>
<trkpt lat="46.13431692" lon="7.01858293"><ele></ele><time>2014-4-6T17:56:9Z</time></trkpt>
<trkpt lat="46.13394292" lon="7.01847196"><ele></ele><time>2014-4-6T17:56:12Z</time></trkpt>
<trkpt lat="46.13354897" lon="7.01843994"><ele></ele><time>2014-4-6T17:56:15Z</time></trkpt>
<trkpt lat="46.13298495" lon="7.01858193"><ele></ele><time>2014-4-6T17:56:18Z</time></trkpt>
<trkpt lat="46.13245698" lon="7.01876499"><ele></ele><time>2014-4-6T17:56:21Z</time></trkpt>
<trkpt lat="46.13223997" lon="7.01891192"><ele></ele><time>2014-4-6T17:56:24Z</time></trkpt>
<trkpt lat="46.13194099" lon="7.01932096"><ele></ele><time>2014-4-6T17:56:27Z</time></trkpt>
<trkpt lat="46.13163496" lon="7.01946395"><ele></ele><time>2014-4-6T17:56:30Z</time></trkpt>
<trkpt lat="46.13119097" lon="7.01937695"><ele></ele><time>2014-4-6T17:56:33Z</time></trkpt>
<trkpt lat="46.13089593" lon="7.01918492"><ele></ele><time>2014-4-6T17:56:36Z</time></trkpt>
<trkpt lat="46.13020099" lon="7.01885895"><ele></ele><time>2014-4-6T17:56:39Z</time></trkpt>
<trkpt lat="46.12985792" lon="7.01866097"><ele></ele><time>2014-4-6T17:56:42Z</time></trkpt>
<trkpt lat="46.12968994" lon="7.01858696"><ele></ele><time>2014-4-6T17:56:45Z</time></trkpt>
<trkpt lat="46.12951200" lon="7.01861294"><ele></ele><time>2014-4-6T17:56:48Z</time></trkpt>
<trkpt lat="46.12951895" lon="7.01870598"><ele></ele><time>2014-4-6T17:56:51Z</time></trkpt>
<trkpt lat="46.12961392" lon="7.01875895"><ele></ele><time>2014-4-6T17:56:54Z</time></trkpt>
<trkpt lat="46.12971693" lon="7.01879793"><ele></ele><time>2014-4-6T17:56:57Z</time></trkpt>
<trkpt lat="46.13005598" lon="7.01902893"><ele></ele><time>2014-4-6T17:57:0Z</time></trkpt>
<trkpt lat="46.13042696" lon="7.01931794"><ele></ele><time>2014-4-6T17:57:3Z</time></trkpt>
<trkpt lat="46.13091697" lon="7.01967099"><ele></ele><time>2014-4-6T17:57:6Z</time></trkpt>
<trkpt lat="46.13106399" lon="7.01977199"><ele></ele><time>2014-4-6T17:57:9Z</time></trkpt>
<trkpt lat="46.13132299" lon="7.02002596"><ele></ele><time>2014-4-6T17:57:12Z</time></trkpt>
<trkpt lat="46.13148493" lon="7.02016393"><ele></ele><time>2014-4-6T17:57:15Z</time></trkpt>
<trkpt lat="46.13171199" lon="7.02029393"><ele></ele><time>2014-4-6T17:57:18Z</time></trkpt>
<trkpt lat="46.13183697" lon="7.02030692"><ele></ele><time>2014-4-6T17:57:21Z</time></trkpt>
<trkpt lat="46.13196798" lon="7.02030399"><ele></ele><time>2014-4-6T17:57:24Z</time></trkpt>
<trkpt lat="46.13225992" lon="7.02023199"><ele></ele><time>2014-4-6T17:57:27Z</time></trkpt>
<trkpt lat="46.13239193" lon="7.02019896"><ele></ele><time>2014-4-6T17:57:30Z</time></trkpt>
<trkpt lat="46.13251699" lon="7.02009000"><ele></ele><time>2014-4-6T17:57:33Z</time></trkpt>
<trkpt lat="46.13278496" lon="7.01997693"><ele></ele><time>2014-4-6T17:57:36Z</time></trkpt>
<trkpt lat="46.13286694" lon="7.01994692"><ele></ele><time>2014-4-6T17:57:39Z</time></trkpt>
<trkpt lat="46.13316793" lon="7.01983494"><ele></ele><time>2014-4-6T17:57:42Z</time></trkpt>
<trkpt lat="46.13341193" lon="7.01986997"><ele></ele><time>2014-4-6T17:57:45Z</time></trkpt>
<trkpt lat="46.13380093" lon="7.02004792"><ele></ele><time>2014-4-6T17:57:48Z</time></trkpt>
<trkpt lat="46.13450099" lon="7.02027792"><ele></ele><time>2014-4-6T17:57:51Z</time></trkpt>
<trkpt lat="46.13501597" lon="7.02046098"><ele></ele><time>2014-4-6T17:57:54Z</time></trkpt>
<trkpt lat="46.13510792" lon="7.02050398"><ele></ele><time>2014-4-6T17:57:57Z</time></trkpt>
<trkpt lat="46.13538796" lon="7.02069400"><ele></ele><time>2014-4-6T17:58:0Z</time></trkpt>
<trkpt lat="46.13561394" lon="7.02084697"><ele></ele><time>2014-4-6T17:58:3Z</time></trkpt>
<trkpt lat="46.13559399" lon="7.02090195"><ele></ele><time>2014-4-6T17:58:6Z</time></trkpt>
<trkpt lat="46.13556197" lon="7.02089692"><ele></ele><time>2014-4-6T17:58:9Z</time></trkpt>
<trkpt lat="46.13529593" lon="7.02077296"><ele></ele><time>2014-4-6T17:58:12Z</time></trkpt>
<trkpt lat="46.13484297" lon="7.02063298"><ele></ele><time>2014-4-6T17:58:15Z</time></trkpt>
<trkpt lat="46.13434592" lon="7.02058294"><ele></ele><time>2014-4-6T17:58:18Z</time></trkpt>
<trkpt lat="46.13392096" lon="7.02057598"><ele></ele><time>2014-4-6T17:58:21Z</time></trkpt>
<trkpt lat="46.13348795" lon="7.02061194"><ele></ele><time>2014-4-6T17:58:24Z</time></trkpt>
<trkpt lat="46.13326499" lon="7.02064295"><ele></ele><time>2014-4-6T17:58:27Z</time></trkpt>
<trkpt lat="46.13301395" lon="7.02092492"><ele></ele><time>2014-4-6T17:58:30Z</time></trkpt>
<trkpt lat="46.13286794" lon="7.02110496"><ele></ele><time>2014-4-6T17:58:33Z</time></trkpt>
<trkpt lat="46.13269293" lon="7.02142297"><ele></ele><time>2014-4-6T17:58:36Z</time></trkpt>
<trkpt lat="46.13260894" lon="7.02157695"><ele></ele><time>2014-4-6T17:58:39Z</time></trkpt>
<trkpt lat="46.13235195" lon="7.02172698"><ele></ele><time>2014-4-6T17:58:42Z</time></trkpt>
<trkpt lat="46.13217099" lon="7.02158399"><ele></ele><time>2014-4-6T17:58:45Z</time></trkpt>
<trkpt lat="46.13210896" lon="7.02152699"><ele></ele><time>2014-4-6T17:58:48Z</time></trkpt>
<trkpt lat="46.13197695" lon="7.02142993"><ele></ele><time>2014-4-6T17:58:51Z</time></trkpt>
<trkpt lat="46.13183596" lon="7.02133999"><ele></ele><time>2014-4-6T17:58:54Z</time></trkpt>
<trkpt lat="46.13155492" lon="7.02126196"><ele></ele><time>2014-4-6T17:58:57Z</time></trkpt>
<trkpt lat="46.13132198" lon="7.02114495"><ele></ele><time>2014-4-6T17:59:0Z</time></trkpt>
<trkpt lat="46.13113398" lon="7.02098100"><ele></ele><time>2014-4-6T17:59:3Z</time></trkpt>
<trkpt lat="46.13103792" lon="7.02088100"><ele></ele><time>2014-4-6T17:59:6Z</time></trkpt>
<trkpt lat="46.13058195" lon="7.02056492"><ele></ele><time>2014-4-6T17:59:9Z</time></trkpt>
<trkpt lat="46.13021398" lon="7.02046400"><ele></ele><time>2014-4-6T17:59:12Z</time></trkpt>
<trkpt lat="46.12989999" lon="7.02045294"><ele></ele><time>2014-4-6T17:59:15Z</time></trkpt>
<trkpt lat="46.12978600" lon="7.02043793"><ele></ele><time>2014-4-6T17:59:18Z</time></trkpt>
<trkpt lat="46.12959095" lon="7.02053399"><ele></ele><time>2014-4-6T17:59:21Z</time></trkpt>
<trkpt lat="46.12935400" lon="7.02076399"><ele></ele><time>2014-4-6T17:59:24Z</time></trkpt>
<trkpt lat="46.12928996" lon="7.02080900"><ele></ele><time>2014-4-6T17:59:27Z</time></trkpt>
<trkpt lat="46.12896399" lon="7.02088100"><ele></ele><time>2014-4-6T17:59:30Z</time></trkpt>
<trkpt lat="46.12860792" lon="7.02104897"><ele></ele><time>2014-4-6T17:59:33Z</time></trkpt>
<trkpt lat="46.12851497" lon="7.02121099"><ele></ele><time>2014-4-6T17:59:36Z</time></trkpt>
<trkpt lat="46.12839192" lon="7.02155499"><ele></ele><time>2014-4-6T17:59:39Z</time></trkpt>
<trkpt lat="46.12829000" lon="7.02167694"><ele></ele><time>2014-4-6T17:59:42Z</time></trkpt>
<trkpt lat="46.12806494" lon="7.02189999"><ele></ele><time>2014-4-6T17:59:45Z</time></trkpt>
<trkpt lat="46.12796998" lon="7.02213594"><ele></ele><time>2014-4-6T17:59:48Z</time></trkpt>
<trkpt lat="46.12796796" lon="7.02219897"><ele></ele><time>2014-4-6T17:59:51Z</time></trkpt>
<trkpt lat="46.12793896" lon="7.02229192"><ele></ele><time>2014-4-6T17:59:54Z</time></trkpt>
<trkpt lat="46.12780795" lon="7.02238496"><ele></ele><time>2014-4-6T17:59:57Z</time></trkpt>
<trkpt lat="46.12760494" lon="7.02227399"><ele></ele><time>2014-4-6T18:0:0Z</time></trkpt>
<trkpt lat="46.12751593" lon="7.02223996"><ele></ele><time>2014-4-6T18:0:3Z</time></trkpt>
<trkpt lat="46.12703498" lon="7.02212898"><ele></ele><time>2014-4-6T18:0:6Z</time></trkpt>
<trkpt lat="46.12676692" lon="7.02203393"><ele></ele><time>2014-4-6T18:0:9Z</time></trkpt>
<trkpt lat="46.12665393" lon="7.02207198"><ele></ele><time>2014-4-6T18:0:12Z</time></trkpt>
<trkpt lat="46.12637297" lon="7.02207299"><ele></ele><time>2014-4-6T18:0:15Z</time></trkpt>
<trkpt lat="46.12630592" lon="7.02204893"><ele></ele><time>2014-4-6T18:0:18Z</time></trkpt>
<trkpt lat="46.12604893" lon="7.02223895"><ele></ele><time>2014-4-6T18:0:21Z</time></trkpt>
<trkpt lat="46.12576294" lon="7.02249594"><ele></ele><time>2014-4-6T18:0:24Z</time></trkpt>
<trkpt lat="46.12569194" lon="7.02253894"><ele></ele><time>2014-4-6T18:0:27Z</time></trkpt>
<trkpt lat="46.12574995" lon="7.02264396"><ele></ele><time>2014-4-6T18:0:30Z</time></trkpt>
<trkpt lat="46.12574492" lon="7.02273893"><ele></ele><time>2014-4-6T18:0:33Z</time></trkpt>
<trkpt lat="46.12553495" lon="7.02272996"><ele></ele><time>2014-4-6T18:0:36Z</time></trkpt>
<trkpt lat="46.12523194" lon="7.02257599"><ele></ele><time>2014-4-6T18:0:39Z</time></trkpt>
<trkpt lat="46.12513295" lon="7.02251698"><ele></ele><time>2014-4-6T18:0:42Z</time></trkpt>
<trkpt lat="46.12477899" lon="7.02223292"><ele></ele><time>2014-4-6T18:0:45Z</time></trkpt>
<trkpt lat="46.12444195" lon="7.02215195"><ele></ele><time>2014-4-6T18:0:48Z</time></trkpt>
<trkpt lat="46.12427196" lon="7.02211892"><ele></ele><time>2014-4-6T18:0:51Z</time></trkpt>
<trkpt lat="46.12394096" lon="7.02198599"><ele></ele><time>2014-4-6T18:0:54Z</time></trkpt>
<trkpt lat="46.12389293" lon="7.02196696"><ele></ele><time>2014-4-6T18:0:57Z</time></trkpt>
<trkpt lat="46.12374298" lon="7.02205095"><ele></ele><time>2014-4-6T18:1:0Z</time></trkpt>
<trkpt lat="46.12381699" lon="7.02223493"><ele></ele><time>2014-4-6T18:1:3Z</time></trkpt>
<trkpt lat="46.12405496" lon="7.02251698"><ele></ele><time>2014-4-6T18:1:6Z</time></trkpt>
<trkpt lat="46.12433793" lon="7.02266492"><ele></ele><time>2014-4-6T18:1:9Z</time></trkpt>
<trkpt lat="46.12471797" lon="7.02302098"><ele></ele><time>2014-4-6T18:1:12Z</time></trkpt>
<trkpt lat="46.12488493" lon="7.02329893"><ele></ele><time>2014-4-6T18:1:15Z</time></trkpt>
<trkpt lat="46.12525198" lon="7.02381492"><ele></ele><time>2014-4-6T18:1:18Z</time></trkpt>
<trkpt lat="46.12543395" lon="7.02396696"><ele></ele><time>2014-4-6T18:1:21Z</time></trkpt>
<trkpt lat="46.12543697" lon="7.02403796"><ele></ele><time>2014-4-6T18:1:24Z</time></trkpt>
<trkpt lat="46.12535994" lon="7.02402396"><ele></ele><time>2014-4-6T18:1:27Z</time></trkpt>
<trkpt lat="46.12509599" lon="7.02391198"><ele></ele><time>2014-4-6T18:1:30Z</time></trkpt>
<trkpt lat="46.12491997" lon="7.02386093"><ele></ele><time>2014-4-6T18:1:33Z</time></trkpt>
<trkpt lat="46.12455393" lon="7.02355198"><ele></ele><time>2014-4-6T18:1:36Z</time></trkpt>
<trkpt lat="46.12408597" lon="7.02332893"><ele></ele><time>2014-4-6T18:1:39Z</time></trkpt>
<trkpt lat="46.12327494" lon="7.02300992"><ele></ele><time>2014-4-6T18:1:42Z</time></trkpt>
<trkpt lat="46.12316094" lon="7.02296499"><ele></ele><time>2014-4-6T18:1:45Z</time></trkpt>
<trkpt lat="46.12265199" lon="7.02257498"><ele></ele><time>2014-4-6T18:1:48Z</time></trkpt>
<trkpt lat="46.12253892" lon="7.02245898"><ele></ele><time>2014-4-6T18:1:51Z</time></trkpt>
<trkpt lat="46.12254596" lon="7.02252192"><ele></ele><time>2014-4-6T18:1:54Z</time></trkpt>
<trkpt lat="46.12259097" lon="7.02254992"><ele></ele><time>2014-4-6T18:1:57Z</time></trkpt>
<trkpt lat="46.12282994" lon="7.02285594"><ele></ele><time>2014-4-6T18:2:0Z</time></trkpt>
<trkpt lat="46.12312398" lon="7.02318292"><ele></ele><time>2014-4-6T18:2:3Z</time></trkpt>
<trkpt lat="46.12328692" lon="7.02333597"><ele></ele><time>2014-4-6T18:2:6Z</time></trkpt>
<trkpt lat="46.12339597" lon="7.02348794"><ele></ele><time>2014-4-6T18:2:9Z</time></trkpt>
<trkpt lat="46.12348096" lon="7.02355893"><ele></ele><time>2014-4-6T18:2:12Z</time></trkpt>
<trkpt lat="46.12352296" lon="7.02364200"><ele></ele><time>2014-4-6T18:2:15Z</time></trkpt>
<trkpt lat="46.12368297" lon="7.02406897"><ele></ele><time>2014-4-6T18:2:18Z</time></trkpt>
<trkpt lat="46.12372798" lon="7.02417199"><ele></ele><time>2014-4-6T18:2:21Z</time></trkpt>
<trkpt lat="46.12392093" lon="7.02444993"><ele></ele><time>2014-4-6T18:2:24Z</time></trkpt>
<trkpt lat="46.12426098" lon="7.02473793"><ele></ele><time>2014-4-6T18:2:27Z</time></trkpt>
<trkpt lat="46.12445000" lon="7.02485293"><ele></ele><time>2014-4-6T18:2:30Z</time></trkpt>
<trkpt lat="46.12502298" lon="7.02532299"><ele></ele><time>2014-4-6T18:2:33Z</time></trkpt>
<trkpt lat="46.12546798" lon="7.02570696"><ele></ele><time>2014-4-6T18:2:36Z</time></trkpt>
<trkpt lat="46.12582195" lon="7.02596999"><ele></ele><time>2014-4-6T18:2:39Z</time></trkpt>
<trkpt lat="46.12625496" lon="7.02648195"><ele></ele><time>2014-4-6T18:2:42Z</time></trkpt>
<trkpt lat="46.12658395" lon="7.02682695"><ele></ele><time>2014-4-6T18:2:45Z</time></trkpt>
<trkpt lat="46.12679693" lon="7.02700197"><ele></ele><time>2014-4-6T18:2:48Z</time></trkpt>
<trkpt lat="46.12716498" lon="7.02716692"><ele></ele><time>2014-4-6T18:2:51Z</time></trkpt>
<trkpt lat="46.12731099" lon="7.02724697"><ele></ele><time>2014-4-6T18:2:54Z</time></trkpt>
<trkpt lat="46.12756094" lon="7.02746700"><ele></ele><time>2014-4-6T18:2:57Z</time></trkpt>
<trkpt lat="46.12779194" lon="7.02783496"><ele></ele><time>2014-4-6T18:3:0Z</time></trkpt>
<trkpt lat="46.12791499" lon="7.02797494"><ele></ele><time>2014-4-6T18:3:3Z</time></trkpt>
<trkpt lat="46.12816997" lon="7.02815892"><ele></ele><time>2014-4-6T18:3:6Z</time></trkpt>
<trkpt lat="46.12848798" lon="7.02855497"><ele></ele><time>2014-4-6T18:3:9Z</time></trkpt>
<trkpt lat="46.12860600" lon="7.02870400"><ele></ele><time>2014-4-6T18:3:12Z</time></trkpt>
<trkpt lat="46.12874396" lon="7.02895998"><ele></ele><time>2014-4-6T18:3:15Z</time></trkpt>
<trkpt lat="46.12885896" lon="7.02911697"><ele></ele><time>2014-4-6T18:3:18Z</time></trkpt>
<trkpt lat="46.12891495" lon="7.02916492"><ele></ele><time>2014-4-6T18:3:21Z</time></trkpt>
<trkpt lat="46.12904496" lon="7.02927095"><ele></ele><time>2014-4-6T18:3:24Z</time></trkpt>
<trkpt lat="46.12920798" lon="7.02942995"><ele></ele><time>2014-4-6T18:3:27Z</time></trkpt>
<trkpt lat="46.12913498" lon="7.02944194"><ele></ele><time>2014-4-6T18:3:30Z</time></trkpt>
<trkpt lat="46.12896499" lon="7.02939198"><ele></ele><time>2014-4-6T18:3:33Z</time></trkpt>
<trkpt lat="46.12874698" lon="7.02938796"><ele></ele><time>2014-4-6T18:3:36Z</time></trkpt>
<trkpt lat="46.12880699" lon="7.02944999"><ele></ele><time>2014-4-6T18:3:39Z</time></trkpt>
<trkpt lat="46.12887899" lon="7.02943599"><ele></ele><time>2014-4-6T18:3:42Z</time></trkpt>
<trkpt lat="46.12892493" lon="7.02949592"><ele></ele><time>2014-4-6T18:3:45Z</time></trkpt>
<trkpt lat="46.12927998" lon="7.02972592"><ele></ele><time>2014-4-6T18:3:48Z</time></trkpt>
<trkpt lat="46.12944092" lon="7.02973992"><ele></ele><time>2014-4-6T18:3:51Z</time></trkpt>
<trkpt lat="46.12956497" lon="7.02974696"><ele></ele><time>2014-4-6T18:3:54Z</time></trkpt>
<trkpt lat="46.12955499" lon="7.02981493"><ele></ele><time>2014-4-6T18:3:57Z</time></trkpt>
<trkpt lat="46.12939096" lon="7.02990194"><ele></ele><time>2014-4-6T18:4:0Z</time></trkpt>
<trkpt lat="46.12937193" lon="7.03003898"><ele></ele><time>2014-4-6T18:4:3Z</time></trkpt>
<trkpt lat="46.12938593" lon="7.03001996"><ele></ele><time>2014-4-6T18:4:6Z</time></trkpt>
<trkpt lat="46.12945097" lon="7.02994796"><ele></ele><time>2014-4-6T18:4:9Z</time></trkpt>
<trkpt lat="46.12977695" lon="7.02992792"><ele></ele><time>2014-4-6T18:4:12Z</time></trkpt>
<trkpt lat="46.12986194" lon="7.02996296"><ele></ele><time>2014-4-6T18:4:15Z</time></trkpt>
<trkpt lat="46.13002799" lon="7.03004795"><ele></ele><time>2014-4-6T18:4:18Z</time></trkpt>
<trkpt lat="46.12994400" lon="7.03015096"><ele></ele><time>2014-4-6T18:4:21Z</time></trkpt>
<trkpt lat="46.12973194" lon="7.03014493"><ele></ele><time>2014-4-6T18:4:24Z</time></trkpt>
<trkpt lat="46.12970394" lon="7.03027996"><ele></ele><time>2014-4-6T18:4:27Z</time></trkpt>
<trkpt lat="46.12987895" lon="7.03025197"><ele></ele><time>2014-4-6T18:4:30Z</time></trkpt>
<trkpt lat="46.13001198" lon="7.03030695"><ele></ele><time>2014-4-6T18:4:33Z</time></trkpt>
<trkpt lat="46.13011692" lon="7.03036697"><ele></ele><time>2014-4-6T18:4:36Z</time></trkpt>
<trkpt lat="46.12998792" lon="7.03036194"><ele></ele><time>2014-4-6T18:4:39Z</time></trkpt>
<trkpt lat="46.12994693" lon="7.03042698"><ele></ele><time>2014-4-6T18:4:42Z</time></trkpt>
<trkpt lat="46.13002899" lon="7.03048096"><ele></ele><time>2014-4-6T18:4:45Z</time></trkpt>
<trkpt lat="46.13011197" lon="7.03054793"><ele></ele><time>2014-4-6T18:4:48Z</time></trkpt>
<trkpt lat="46.13020199" lon="7.03059697"><ele></ele><time>2014-4-6T18:4:51Z</time></trkpt>
<trkpt lat="46.13025094" lon="7.03053997"><ele></ele><time>2014-4-6T18:4:54Z</time></trkpt>
<trkpt lat="46.13040098" lon="7.03063393"><ele></ele><time>2014-4-6T18:4:57Z</time></trkpt>
<trkpt lat="46.13048295" lon="7.03078095"><ele></ele><time>2014-4-6T18:5:0Z</time></trkpt>
<trkpt lat="46.13070600" lon="7.03104598"><ele></ele><time>2014-4-6T18:5:3Z</time></trkpt>
<trkpt lat="46.13074497" lon="7.03108798"><ele></ele><time>2014-4-6T18:5:6Z</time></trkpt>
<trkpt lat="46.13072695" lon="7.03118596"><ele></ele><time>2014-4-6T18:5:9Z</time></trkpt>
<trkpt lat="46.13058496" lon="7.03114699"><ele></ele><time>2014-4-6T18:5:12Z</time></trkpt>
<trkpt lat="46.13048396" lon="7.03117599"><ele></ele><time>2014-4-6T18:5:15Z</time></trkpt>
<trkpt lat="46.13047097" lon="7.03128194"><ele></ele><time>2014-4-6T18:5:18Z</time></trkpt>
<trkpt lat="46.13047298" lon="7.03146399"><ele></ele><time>2014-4-6T18:5:21Z</time></trkpt>
<trkpt lat="46.13068697" lon="7.03133499"><ele></ele><time>2014-4-6T18:5:24Z</time></trkpt>
<trkpt lat="46.13099400" lon="7.03136793"><ele></ele><time>2014-4-6T18:5:27Z</time></trkpt>
<trkpt lat="46.13108997" lon="7.03149299"><ele></ele><time>2014-4-6T18:5:30Z</time></trkpt>
<trkpt lat="46.13097900" lon="7.03152493"><ele></ele><time>2014-4-6T18:5:33Z</time></trkpt>
<trkpt lat="46.13080298" lon="7.03160799"><ele></ele><time>2014-4-6T18:5:36Z</time></trkpt>
<trkpt lat="46.13073793" lon="7.03184595"><ele></ele><time>2014-4-6T18:5:39Z</time></trkpt>
<trkpt lat="46.13118494" lon="7.03163397"><ele></ele><time>2014-4-6T18:5:42Z</time></trkpt>
<trkpt lat="46.13136096" lon="7.03163498"><ele></ele><time>2014-4-6T18:5:45Z</time></trkpt>
<trkpt lat="46.13158392" lon="7.03160699"><ele></ele><time>2014-4-6T18:5:48Z</time></trkpt>
<trkpt lat="46.13159892" lon="7.03168192"><ele></ele><time>2014-4-6T18:5:51Z</time></trkpt>
<trkpt lat="46.13147998" lon="7.03173992"><ele></ele><time>2014-4-6T18:5:54Z</time></trkpt>
<trkpt lat="46.13124797" lon="7.03207897"><ele></ele><time>2014-4-6T18:5:57Z</time></trkpt>
<trkpt lat="46.13128594" lon="7.03229296"><ele></ele><time>2014-4-6T18:6:0Z</time></trkpt>
<trkpt lat="46.13135098" lon="7.03262698"><ele></ele><time>2014-4-6T18:6:3Z</time></trkpt>
<trkpt lat="46.13139692" lon="7.03273796"><ele></ele><time>2014-4-6T18:6:6Z</time></trkpt>
<trkpt lat="46.13158392" lon="7.03288196"><ele></ele><time>2014-4-6T18:6:9Z</time></trkpt>
<trkpt lat="46.13152499" lon="7.03272597"><ele></ele><time>2014-4-6T18:6:12Z</time></trkpt>
<trkpt lat="46.13149599" lon="7.03264399"><ele></ele><time>2014-4-6T18:6:15Z</time></trkpt>
<trkpt lat="46.13146699" lon="7.03245398"><ele></ele><time>2014-4-6T18:6:18Z</time></trkpt>
<trkpt lat="46.13147294" lon="7.03214100"><ele></ele><time>2014-4-6T18:6:21Z</time></trkpt>
<trkpt lat="46.13165692" lon="7.03189298"><ele></ele><time>2014-4-6T18:6:24Z</time></trkpt>
<trkpt lat="46.13177092" lon="7.03192592"><ele></ele><time>2014-4-6T18:6:27Z</time></trkpt>
<trkpt lat="46.13166899" lon="7.03210093"><ele></ele><time>2014-4-6T18:6:30Z</time></trkpt>
<trkpt lat="46.13163094" lon="7.03217494"><ele></ele><time>2014-4-6T18:6:33Z</time></trkpt>
<trkpt lat="46.13158895" lon="7.03231299"><ele></ele><time>2014-4-6T18:6:36Z</time></trkpt>
<trkpt lat="46.13165994" lon="7.03242095"><ele></ele><time>2014-4-6T18:6:39Z</time></trkpt>
<trkpt lat="46.13168995" lon="7.03236999"><ele></ele><time>2014-4-6T18:6:42Z</time></trkpt>
<trkpt lat="46.13178894" lon="7.03215198"><ele></ele><time>2014-4-6T18:6:45Z</time></trkpt>
<trkpt lat="46.13191400" lon="7.03201099"><ele></ele><time>2014-4-6T18:6:48Z</time></trkpt>
<trkpt lat="46.13193797" lon="7.03209498"><ele></ele><time>2014-4-6T18:6:51Z</time></trkpt>
<trkpt lat="46.13188399" lon="7.03222699"><ele></ele><time>2014-4-6T18:6:54Z</time></trkpt>
<trkpt lat="46.13181693" lon="7.03245892"><ele></ele><time>2014-4-6T18:6:57Z</time></trkpt>
<trkpt lat="46.13183496" lon="7.03263897"><ele></ele><time>2014-4-6T18:7:0Z</time></trkpt>
<trkpt lat="46.13187896" lon="7.03258499"><ele></ele><time>2014-4-6T18:7:3Z</time></trkpt>
<trkpt lat="46.13186999" lon="7.03251894"><ele></ele><time>2014-4-6T18:7:6Z</time></trkpt>
<trkpt lat="46.13190796" lon="7.03225197"><ele></ele><time>2014-4-6T18:7:9Z</time></trkpt>
<trkpt lat="46.13199195" lon="7.03221895"><ele></ele><time>2014-4-6T18:7:12Z</time></trkpt>
<trkpt lat="46.13198994" lon="7.03228198"><ele></ele><time>2014-4-6T18:7:15Z</time></trkpt>
<trkpt lat="46.13196597" lon="7.03236999"><ele></ele><time>2014-4-6T18:7:18Z</time></trkpt>
<trkpt lat="46.13193093" lon="7.03279395"><ele></ele><time>2014-4-6T18:7:21Z</time></trkpt>
<trkpt lat="46.13190092" lon="7.03300400"><ele></ele><time>2014-4-6T18:7:24Z</time></trkpt>
<trkpt lat="46.13189698" lon="7.03291993"><ele></ele><time>2014-4-6T18:7:27Z</time></trkpt>
<trkpt lat="46.13195700" lon="7.03274198"><ele></ele><time>2014-4-6T18:7:30Z</time></trkpt>
<trkpt lat="46.13195398" lon="7.03270292"><ele></ele><time>2014-4-6T18:7:33Z</time></trkpt>
<trkpt lat="46.13216193" lon="7.03244895"><ele></ele><time>2014-4-6T18:7:36Z</time></trkpt>
<trkpt lat="46.13228892" lon="7.03232598"><ele></ele><time>2014-4-6T18:7:39Z</time></trkpt>
<trkpt lat="46.13233393" lon="7.03244995"><ele></ele><time>2014-4-6T18:7:42Z</time></trkpt>
<trkpt lat="46.13231197" lon="7.03270996"><ele></ele><time>2014-4-6T18:7:45Z</time></trkpt>
<trkpt lat="46.13231993" lon="7.03287299"><ele></ele><time>2014-4-6T18:7:48Z</time></trkpt>
<trkpt lat="46.13225497" lon="7.03323198"><ele></ele><time>2014-4-6T18:7:51Z</time></trkpt>
<trkpt lat="46.13223595" lon="7.03312696"><ele></ele><time>2014-4-6T18:7:54Z</time></trkpt>
<trkpt lat="46.13225598" lon="7.03293795"><ele></ele><time>2014-4-6T18:7:57Z</time></trkpt>
<trkpt lat="46.13227895" lon="7.03276696"><ele></ele><time>2014-4-6T18:8:0Z</time></trkpt>
<trkpt lat="46.13243896" lon="7.03246797"><ele></ele><time>2014-4-6T18:8:3Z</time></trkpt>
<trkpt lat="46.13248598" lon="7.03241592"><ele></ele><time>2014-4-6T18:8:6Z</time></trkpt>
<trkpt lat="46.13249595" lon="7.03259697"><ele></ele><time>2014-4-6T18:8:9Z</time></trkpt>
<trkpt lat="46.13249897" lon="7.03264592"><ele></ele><time>2014-4-6T18:8:12Z</time></trkpt>
<trkpt lat="46.13244499" lon="7.03296293"><ele></ele><time>2014-4-6T18:8:15Z</time></trkpt>
<trkpt lat="46.13238296" lon="7.03311196"><ele></ele><time>2014-4-6T18:8:18Z</time></trkpt>
<trkpt lat="46.13248698" lon="7.03291398"><ele></ele><time>2014-4-6T18:8:21Z</time></trkpt>
<trkpt lat="46.13253099" lon="7.03285195"><ele></ele><time>2014-4-6T18:8:24Z</time></trkpt>
<trkpt lat="46.13265194" lon="7.03271398"><ele></ele><time>2014-4-6T18:8:27Z</time></trkpt>
<trkpt lat="46.13263794" lon="7.03286293"><ele></ele><time>2014-4-6T18:8:30Z</time></trkpt>
<trkpt lat="46.13253099" lon="7.03325395"><ele></ele><time>2014-4-6T18:8:33Z</time></trkpt>
<trkpt lat="46.13250693" lon="7.03332695"><ele></ele><time>2014-4-6T18:8:36Z</time></trkpt>
<trkpt lat="46.13246393" lon="7.03345000"><ele></ele><time>2014-4-6T18:8:39Z</time></trkpt>
<trkpt lat="46.13246896" lon="7.03337800"><ele></ele><time>2014-4-6T18:8:42Z</time></trkpt>
<trkpt lat="46.13264892" lon="7.03301397"><ele></ele><time>2014-4-6T18:8:45Z</time></trkpt>
<trkpt lat="46.13290792" lon="7.03292496"><ele></ele><time>2014-4-6T18:8:48Z</time></trkpt>
<trkpt lat="46.13313499" lon="7.03295094"><ele></ele><time>2014-4-6T18:8:51Z</time></trkpt>
<trkpt lat="46.13315796" lon="7.03305496"><ele></ele><time>2014-4-6T18:8:54Z</time></trkpt>
<trkpt lat="46.13308093" lon="7.03306795"><ele></ele><time>2014-4-6T18:8:57Z</time></trkpt>
<trkpt lat="46.13285294" lon="7.03312797"><ele></ele><time>2014-4-6T18:9:0Z</time></trkpt>
<trkpt lat="46.13274992" lon="7.03342393"><ele></ele><time>2014-4-6T18:9:3Z</time></trkpt>
<trkpt lat="46.13273098" lon="7.03354295"><ele></ele><time>2014-4-6T18:9:6Z</time></trkpt>
<trkpt lat="46.13275697" lon="7.03407093"><ele></ele><time>2014-4-6T18:9:9Z</time></trkpt>
<trkpt lat="46.13271698" lon="7.03387697"><ele></ele><time>2014-4-6T18:9:12Z</time></trkpt>
<trkpt lat="46.13274800" lon="7.03360800"><ele></ele><time>2014-4-6T18:9:15Z</time></trkpt>
<trkpt lat="46.13289493" lon="7.03341396"><ele></ele><time>2014-4-6T18:9:18Z</time></trkpt>
<trkpt lat="46.13295696" lon="7.03337397"><ele></ele><time>2014-4-6T18:9:21Z</time></trkpt>
<trkpt lat="46.13315293" lon="7.03336098"><ele></ele><time>2014-4-6T18:9:24Z</time></trkpt>
<trkpt lat="46.13308294" lon="7.03352896"><ele></ele><time>2014-4-6T18:9:27Z</time></trkpt>
<trkpt lat="46.13301898" lon="7.03369299"><ele></ele><time>2014-4-6T18:9:30Z</time></trkpt>
<trkpt lat="46.13299493" lon="7.03387295"><ele></ele><time>2014-4-6T18:9:33Z</time></trkpt>
<trkpt lat="46.13317799" lon="7.03351295"><ele></ele><time>2014-4-6T18:9:36Z</time></trkpt>
<trkpt lat="46.13332895" lon="7.03352896"><ele></ele><time>2014-4-6T18:9:39Z</time></trkpt>
<trkpt lat="46.13330095" lon="7.03365100"><ele></ele><time>2014-4-6T18:9:42Z</time></trkpt>
<trkpt lat="46.13312594" lon="7.03393196"><ele></ele><time>2014-4-6T18:9:45Z</time></trkpt>
<trkpt lat="46.13305494" lon="7.03404495"><ele></ele><time>2014-4-6T18:9:48Z</time></trkpt>
<trkpt lat="46.13304899" lon="7.03404595"><ele></ele><time>2014-4-6T18:9:51Z</time></trkpt>
<trkpt lat="46.13313792" lon="7.03384898"><ele></ele><time>2014-4-6T18:9:54Z</time></trkpt>
<trkpt lat="46.13334395" lon="7.03368092"><ele></ele><time>2014-4-6T18:9:57Z</time></trkpt>
<trkpt lat="46.13343598" lon="7.03364396"><ele></ele><time>2014-4-6T18:10:0Z</time></trkpt>
<trkpt lat="46.13396497" lon="7.03336400"><ele></ele><time>2014-4-6T18:10:3Z</time></trkpt>
<trkpt lat="46.13405792" lon="7.03327892"><ele></ele><time>2014-4-6T18:10:6Z</time></trkpt>
<trkpt lat="46.13434299" lon="7.03308396"><ele></ele><time>2014-4-6T18:10:9Z</time></trkpt>
<trkpt lat="46.13424894" lon="7.03321899"><ele></ele><time>2014-4-6T18:10:12Z</time></trkpt>
<trkpt lat="46.13413998" lon="7.03329896"><ele></ele><time>2014-4-6T18:10:15Z</time></trkpt>
<trkpt lat="46.13380395" lon="7.03368595"><ele></ele><time>2014-4-6T18:10:18Z</time></trkpt>
<trkpt lat="46.13365894" lon="7.03394797"><ele></ele><time>2014-4-6T18:10:21Z</time></trkpt>
<trkpt lat="46.13356599" lon="7.03407194"><ele></ele><time>2014-4-6T18:10:24Z</time></trkpt>
<trkpt lat="46.13344495" lon="7.03413094"><ele></ele><time>2014-4-6T18:10:27Z</time></trkpt>
<trkpt lat="46.13357093" lon="7.03397797"><ele></ele><time>2014-4-6T18:10:30Z</time></trkpt>
<trkpt lat="46.13367797" lon="7.03389198"><ele></ele><time>2014-4-6T18:10:33Z</time></trkpt>
<trkpt lat="46.13404593" lon="7.03359492"><ele></ele><time>2014-4-6T18:10:36Z</time></trkpt>
<trkpt lat="46.13435498" lon="7.03347498"><ele></ele><time>2014-4-6T18:10:39Z</time></trkpt>
<trkpt lat="46.13444592" lon="7.03352694"><ele></ele><time>2014-4-6T18:10:42Z</time></trkpt>
<trkpt lat="46.13435095" lon="7.03360800"><ele></ele><time>2014-4-6T18:10:45Z</time></trkpt>
<trkpt lat="46.13412598" lon="7.03374395"><ele></ele><time>2014-4-6T18:10:48Z</time></trkpt>
<trkpt lat="46.13405298" lon="7.03386499"><ele></ele><time>2014-4-6T18:10:51Z</time></trkpt>
<trkpt lat="46.13399095" lon="7.03398099"><ele></ele><time>2014-4-6T18:10:54Z</time></trkpt>
<trkpt lat="46.13399296" lon="7.03403397"><ele></ele><time>2014-4-6T18:10:57Z</time></trkpt>
<trkpt lat="46.13392498" lon="7.03414000"><ele></ele><time>2014-4-6T18:11:0Z</time></trkpt>
<trkpt lat="46.13390394" lon="7.03419800"><ele></ele><time>2014-4-6T18:11:3Z</time></trkpt>
<trkpt lat="46.13389699" lon="7.03464794"><ele></ele><time>2014-4-6T18:11:6Z</time></trkpt>
<trkpt lat="46.13401400" lon="7.03510894"><ele></ele><time>2014-4-6T18:11:9Z</time></trkpt>
<trkpt lat="46.13419999" lon="7.03535596"><ele></ele><time>2014-4-6T18:11:12Z</time></trkpt>
<trkpt lat="46.13453393" lon="7.03567397"><ele></ele><time>2014-4-6T18:11:15Z</time></trkpt>
<trkpt lat="46.13477600" lon="7.03585292"><ele></ele><time>2014-4-6T18:11:18Z</time></trkpt>
<trkpt lat="46.13484398" lon="7.03584094"><ele></ele><time>2014-4-6T18:11:21Z</time></trkpt>
<trkpt lat="46.13505595" lon="7.03576500"><ele></ele><time>2014-4-6T18:11:24Z</time></trkpt>
<trkpt lat="46.13561193" lon="7.03546794"><ele></ele><time>2014-4-6T18:11:27Z</time></trkpt>
<trkpt lat="46.13612699" lon="7.03513996"><ele></ele><time>2014-4-6T18:11:30Z</time></trkpt>
<trkpt lat="46.13669897" lon="7.03478498"><ele></ele><time>2014-4-6T18:11:33Z</time></trkpt>
<trkpt lat="46.13732896" lon="7.03439296"><ele></ele><time>2014-4-6T18:11:36Z</time></trkpt>
<trkpt lat="46.13769298" lon="7.03417595"><ele></ele><time>2014-4-6T18:11:39Z</time></trkpt>
<trkpt lat="46.13800194" lon="7.03398594"><ele></ele><time>2014-4-6T18:11:42Z</time></trkpt>
<trkpt lat="46.13833093" lon="7.03381092"><ele></ele><time>2014-4-6T18:11:45Z</time></trkpt>
<trkpt lat="46.13836999" lon="7.03360800"><ele></ele><time>2014-4-6T18:11:48Z</time></trkpt>
<trkpt lat="46.13836396" lon="7.03354094"><ele></ele><time>2014-4-6T18:11:51Z</time></trkpt>
<trkpt lat="46.13830696" lon="7.03312294"><ele></ele><time>2014-4-6T18:11:54Z</time></trkpt>
<trkpt lat="46.13829497" lon="7.03300995"><ele></ele><time>2014-4-6T18:11:57Z</time></trkpt>
<trkpt lat="46.13842900" lon="7.03292093"><ele></ele><time>2014-4-6T18:12:0Z</time></trkpt>
<trkpt lat="46.13858700" lon="7.03288296"><ele></ele><time>2014-4-6T18:12:3Z</time></trkpt>
<trkpt lat="46.13868096" lon="7.03281499"><ele></ele><time>2014-4-6T18:12:6Z</time></trkpt>
<trkpt lat="46.13887793" lon="7.03280099"><ele></ele><time>2014-4-6T18:12:9Z</time></trkpt>
<trkpt lat="46.13918195" lon="7.03283493"><ele></ele><time>2014-4-6T18:12:12Z</time></trkpt>
<trkpt lat="46.13942695" lon="7.03278892"><ele></ele><time>2014-4-6T18:12:15Z</time></trkpt>
<trkpt lat="46.13951094" lon="7.03274994"><ele></ele><time>2014-4-6T18:12:18Z</time></trkpt>
<trkpt lat="46.13981394" lon="7.03272195"><ele></ele><time>2014-4-6T18:12:21Z</time></trkpt>
<trkpt lat="46.14003992" lon="7.03260393"><ele></ele><time>2014-4-6T18:12:24Z</time></trkpt>
<trkpt lat="46.14019599" lon="7.03243897"><ele></ele><time>2014-4-6T18:12:27Z</time></trkpt>
<trkpt lat="46.14028894" lon="7.03232397"><ele></ele><time>2014-4-6T18:12:30Z</time></trkpt>
<trkpt lat="46.14037000" lon="7.03218693"><ele></ele><time>2014-4-6T18:12:33Z</time></trkpt>
<trkpt lat="46.14039397" lon="7.03215994"><ele></ele><time>2014-4-6T18:12:36Z</time></trkpt>
<trkpt lat="46.14053193" lon="7.03202097"><ele></ele><time>2014-4-6T18:12:39Z</time></trkpt>
<trkpt lat="46.14063595" lon="7.03191896"><ele></ele><time>2014-4-6T18:12:42Z</time></trkpt>
<trkpt lat="46.14088196" lon="7.03170497"><ele></ele><time>2014-4-6T18:12:45Z</time></trkpt>
<trkpt lat="46.14094499" lon="7.03164496"><ele></ele><time>2014-4-6T18:12:48Z</time></trkpt>
<trkpt lat="46.14127197" lon="7.03139794"><ele></ele><time>2014-4-6T18:12:51Z</time></trkpt>
<trkpt lat="46.14137197" lon="7.03129199"><ele></ele><time>2014-4-6T18:12:54Z</time></trkpt>
<trkpt lat="46.14156593" lon="7.03108295"><ele></ele><time>2014-4-6T18:12:57Z</time></trkpt>
<trkpt lat="46.14170993" lon="7.03098798"><ele></ele><time>2014-4-6T18:13:0Z</time></trkpt>
<trkpt lat="46.14201394" lon="7.03086192"><ele></ele><time>2014-4-6T18:13:3Z</time></trkpt>
<trkpt lat="46.14220999" lon="7.03082194"><ele></ele><time>2014-4-6T18:13:6Z</time></trkpt>
<trkpt lat="46.14227495" lon="7.03076796"><ele></ele><time>2014-4-6T18:13:9Z</time></trkpt>
<trkpt lat="46.14245399" lon="7.03061700"><ele></ele><time>2014-4-6T18:13:12Z</time></trkpt>
<trkpt lat="46.14249397" lon="7.03050694"><ele></ele><time>2014-4-6T18:13:15Z</time></trkpt>
<trkpt lat="46.14258793" lon="7.03038096"><ele></ele><time>2014-4-6T18:13:18Z</time></trkpt>
<trkpt lat="46.14266597" lon="7.03032397"><ele></ele><time>2014-4-6T18:13:21Z</time></trkpt>
<trkpt lat="46.14273797" lon="7.03024099"><ele></ele><time>2014-4-6T18:13:24Z</time></trkpt>
<trkpt lat="46.14291499" lon="7.03009095"><ele></ele><time>2014-4-6T18:13:27Z</time></trkpt>
<trkpt lat="46.14301600" lon="7.03001895"><ele></ele><time>2014-4-6T18:13:30Z</time></trkpt>
<trkpt lat="46.14322697" lon="7.02987093"><ele></ele><time>2014-4-6T18:13:33Z</time></trkpt>
<trkpt lat="46.14331297" lon="7.02981795"><ele></ele><time>2014-4-6T18:13:36Z</time></trkpt>
<trkpt lat="46.14353199" lon="7.02961394"><ele></ele><time>2014-4-6T18:13:39Z</time></trkpt>
<trkpt lat="46.14359996" lon="7.02950698"><ele></ele><time>2014-4-6T18:13:42Z</time></trkpt>
<trkpt lat="46.14365998" lon="7.02945493"><ele></ele><time>2014-4-6T18:13:45Z</time></trkpt>
<trkpt lat="46.14373692" lon="7.02944797"><ele></ele><time>2014-4-6T18:13:48Z</time></trkpt>
<trkpt lat="46.14377397" lon="7.02940992"><ele></ele><time>2014-4-6T18:13:51Z</time></trkpt>
<trkpt lat="46.14379996" lon="7.02929995"><ele></ele><time>2014-4-6T18:13:54Z</time></trkpt>
<trkpt lat="46.14385595" lon="7.02921898"><ele></ele><time>2014-4-6T18:13:57Z</time></trkpt>
<trkpt lat="46.14392895" lon="7.02917095"><ele></ele><time>2014-4-6T18:14:0Z</time></trkpt>
<trkpt lat="46.14395795" lon="7.02914195"><ele></ele><time>2014-4-6T18:14:3Z</time></trkpt>
<trkpt lat="46.14398193" lon="7.02916400"><ele></ele><time>2014-4-6T18:14:6Z</time></trkpt>
<trkpt lat="46.14400699" lon="7.02933499"><ele></ele><time>2014-4-6T18:14:9Z</time></trkpt>
<trkpt lat="46.14409097" lon="7.02952593"><ele></ele><time>2014-4-6T18:14:12Z</time></trkpt>
<trkpt lat="46.14418393" lon="7.02967596"><ele></ele><time>2014-4-6T18:14:15Z</time></trkpt>
<trkpt lat="46.14426699" lon="7.02983094"><ele></ele><time>2014-4-6T18:14:18Z</time></trkpt>
<trkpt lat="46.14436800" lon="7.02996799"><ele></ele><time>2014-4-6T18:14:21Z</time></trkpt>
<trkpt lat="46.14444494" lon="7.03015298"><ele></ele><time>2014-4-6T18:14:24Z</time></trkpt>
<trkpt lat="46.14455198" lon="7.03038599"><ele></ele><time>2014-4-6T18:14:27Z</time></trkpt>
<trkpt lat="46.14468894" lon="7.03031693"><ele></ele><time>2014-4-6T18:14:30Z</time></trkpt>
<trkpt lat="46.14501198" lon="7.03015893"><ele></ele><time>2014-4-6T18:14:33Z</time></trkpt>
<trkpt lat="46.14507392" lon="7.03014694"><ele></ele><time>2014-4-6T18:14:36Z</time></trkpt>
<trkpt lat="46.14542797" lon="7.03007494"><ele></ele><time>2014-4-6T18:14:39Z</time></trkpt>
<trkpt lat="46.14595494" lon="7.02993697"><ele></ele><time>2014-4-6T18:14:42Z</time></trkpt>
<trkpt lat="46.14632894" lon="7.02986992"><ele></ele><time>2014-4-6T18:14:45Z</time></trkpt>
<trkpt lat="46.14679598" lon="7.02978794"><ele></ele><time>2014-4-6T18:14:48Z</time></trkpt>
<trkpt lat="46.14735992" lon="7.02963095"><ele></ele><time>2014-4-6T18:14:51Z</time></trkpt>
<trkpt lat="46.14760199" lon="7.02960698"><ele></ele><time>2014-4-6T18:14:54Z</time></trkpt>
<trkpt lat="46.14795092" lon="7.02953096"><ele></ele><time>2014-4-6T18:14:57Z</time></trkpt>
<trkpt lat="46.14828696" lon="7.02945594"><ele></ele><time>2014-4-6T18:15:0Z</time></trkpt>
<trkpt lat="46.14841092" lon="7.02946692"><ele></ele><time>2014-4-6T18:15:3Z</time></trkpt>
<trkpt lat="46.14874695" lon="7.02958896"><ele></ele><time>2014-4-6T18:15:6Z</time></trkpt>
<trkpt lat="46.14907192" lon="7.02974696"><ele></ele><time>2014-4-6T18:15:9Z</time></trkpt>
<trkpt lat="46.14927493" lon="7.02987595"><ele></ele><time>2014-4-6T18:15:12Z</time></trkpt>
<trkpt lat="46.14946897" lon="7.03002498"><ele></ele><time>2014-4-6T18:15:15Z</time></trkpt>
<trkpt lat="46.14974298" lon="7.03014594"><ele></ele><time>2014-4-6T18:15:18Z</time></trkpt>
<trkpt lat="46.15021898" lon="7.03018994"><ele></ele><time>2014-4-6T18:15:21Z</time></trkpt>
<trkpt lat="46.15060598" lon="7.03015893"><ele></ele><time>2014-4-6T18:15:24Z</time></trkpt>
<trkpt lat="46.15098794" lon="7.03023193"><ele></ele><time>2014-4-6T18:15:27Z</time></trkpt>
<trkpt lat="46.15126094" lon="7.03032497"><ele></ele><time>2014-4-6T18:15:30Z</time></trkpt>
<trkpt lat="46.15183292" lon="7.03044400"><ele></ele><time>2014-4-6T18:15:33Z</time></trkpt>
<trkpt lat="46.15235494" lon="7.03056092"><ele></ele><time>2014-4-6T18:15:36Z</time></trkpt>
<trkpt lat="46.15290899" lon="7.03067098"><ele></ele><time>2014-4-6T18:15:39Z</time></trkpt>
<trkpt lat="46.15344694" lon="7.03077097"><ele></ele><time>2014-4-6T18:15:42Z</time></trkpt>
<trkpt lat="46.15400895" lon="7.03087793"><ele></ele><time>2014-4-6T18:15:45Z</time></trkpt>
<trkpt lat="46.15443994" lon="7.03094993"><ele></ele><time>2014-4-6T18:15:48Z</time></trkpt>
<trkpt lat="46.15492693" lon="7.03103593"><ele></ele><time>2014-4-6T18:15:51Z</time></trkpt>
<trkpt lat="46.15532700" lon="7.03108898"><ele></ele><time>2014-4-6T18:15:54Z</time></trkpt>
<trkpt lat="46.15564493" lon="7.03106392"><ele></ele><time>2014-4-6T18:15:57Z</time></trkpt>
<trkpt lat="46.15587794" lon="7.03095797"><ele></ele><time>2014-4-6T18:16:0Z</time></trkpt>
<trkpt lat="46.15625094" lon="7.03071599"><ele></ele><time>2014-4-6T18:16:3Z</time></trkpt>
<trkpt lat="46.15660993" lon="7.03046395"><ele></ele><time>2014-4-6T18:16:6Z</time></trkpt>
<trkpt lat="46.15689693" lon="7.03018592"><ele></ele><time>2014-4-6T18:16:9Z</time></trkpt>
<trkpt lat="46.15692593" lon="7.03013998"><ele></ele><time>2014-4-6T18:16:12Z</time></trkpt>
<trkpt lat="46.15705795" lon="7.03011794"><ele></ele><time>2014-4-6T18:16:15Z</time></trkpt>
<trkpt lat="46.15710899" lon="7.03015993"><ele></ele><time>2014-4-6T18:16:18Z</time></trkpt>
<trkpt lat="46.15718393" lon="7.03031399"><ele></ele><time>2014-4-6T18:16:21Z</time></trkpt>
<trkpt lat="46.15728795" lon="7.03068598"><ele></ele><time>2014-4-6T18:16:24Z</time></trkpt>
<trkpt lat="46.15729398" lon="7.03075195"><ele></ele><time>2014-4-6T18:16:27Z</time></trkpt>
<trkpt lat="46.15733497" lon="7.03111799"><ele></ele><time>2014-4-6T18:16:30Z</time></trkpt>
<trkpt lat="46.15734394" lon="7.03119895"><ele></ele><time>2014-4-6T18:16:33Z</time></trkpt>
<trkpt lat="46.15739699" lon="7.03156197"><ele></ele><time>2014-4-6T18:16:36Z</time></trkpt>
<trkpt lat="46.15753697" lon="7.03190899"><ele></ele><time>2014-4-6T18:16:39Z</time></trkpt>
<trkpt lat="46.15762699" lon="7.03193597"><ele></ele><time>2014-4-6T18:16:42Z</time></trkpt>
<trkpt lat="46.15794593" lon="7.03195098"><ele></ele><time>2014-4-6T18:16:45Z</time></trkpt>
<trkpt lat="46.15819294" lon="7.03201896"><ele></ele><time>2014-4-6T18:16:48Z</time></trkpt>
<trkpt lat="46.15868295" lon="7.03216195"><ele></ele><time>2014-4-6T18:16:51Z</time></trkpt>
<trkpt lat="46.15919994" lon="7.03227494"><ele></ele><time>2014-4-6T18:16:54Z</time></trkpt>
<trkpt lat="46.15962599" lon="7.03236898"><ele></ele><time>2014-4-6T18:16:57Z</time></trkpt>
<trkpt lat="46.16008993" lon="7.03248600"><ele></ele><time>2014-4-6T18:17:0Z</time></trkpt>
<trkpt lat="46.16046293" lon="7.03252992"><ele></ele><time>2014-4-6T18:17:3Z</time></trkpt>
<trkpt lat="46.16081296" lon="7.03251299"><ele></ele><time>2014-4-6T18:17:6Z</time></trkpt>
<trkpt lat="46.16135694" lon="7.03240092"><ele></ele><time>2014-4-6T18:17:9Z</time></trkpt>
<trkpt lat="46.16166498" lon="7.03231492"><ele></ele><time>2014-4-6T18:17:12Z</time></trkpt>
<trkpt lat="46.16215699" lon="7.03216296"><ele></ele><time>2014-4-6T18:17:15Z</time></trkpt>
<trkpt lat="46.16263795" lon="7.03201200"><ele></ele><time>2014-4-6T18:17:18Z</time></trkpt>
<trkpt lat="46.16311094" lon="7.03184796"><ele></ele><time>2014-4-6T18:17:21Z</time></trkpt>
<trkpt lat="46.16362592" lon="7.03164093"><ele></ele><time>2014-4-6T18:17:24Z</time></trkpt>
<trkpt lat="46.16403395" lon="7.03146692"><ele></ele><time>2014-4-6T18:17:27Z</time></trkpt>
<trkpt lat="46.16451197" lon="7.03121899"><ele></ele><time>2014-4-6T18:17:30Z</time></trkpt>
<trkpt lat="46.16494398" lon="7.03094892"><ele></ele><time>2014-4-6T18:17:33Z</time></trkpt>
<trkpt lat="46.16543096" lon="7.03064692"><ele></ele><time>2014-4-6T18:17:36Z</time></trkpt>
<trkpt lat="46.16593095" lon="7.03037292"><ele></ele><time>2014-4-6T18:17:39Z</time></trkpt>
<trkpt lat="46.16645297" lon="7.03014292"><ele></ele><time>2014-4-6T18:17:42Z</time></trkpt>
<trkpt lat="46.16691699" lon="7.02996598"><ele></ele><time>2014-4-6T18:17:45Z</time></trkpt>
<trkpt lat="46.16717700" lon="7.02983798"><ele></ele><time>2014-4-6T18:17:48Z</time></trkpt>
<trkpt lat="46.16728194" lon="7.02978694"><ele></ele><time>2014-4-6T18:17:51Z</time></trkpt>
<trkpt lat="46.16756693" lon="7.02973095"><ele></ele><time>2014-4-6T18:17:54Z</time></trkpt>
<trkpt lat="46.16813094" lon="7.02946197"><ele></ele><time>2014-4-6T18:17:57Z</time></trkpt>
<trkpt lat="46.16851492" lon="7.02931797"><ele></ele><time>2014-4-6T18:18:0Z</time></trkpt>
<trkpt lat="46.16862095" lon="7.02927900"><ele></ele><time>2014-4-6T18:18:3Z</time></trkpt>
<trkpt lat="46.16885195" lon="7.02913198"><ele></ele><time>2014-4-6T18:18:6Z</time></trkpt>
<trkpt lat="46.16898598" lon="7.02906593"><ele></ele><time>2014-4-6T18:18:9Z</time></trkpt>
<trkpt lat="46.16904893" lon="7.02903793"><ele></ele><time>2014-4-6T18:18:12Z</time></trkpt>
<trkpt lat="46.16937993" lon="7.02895495"><ele></ele><time>2014-4-6T18:18:15Z</time></trkpt>
<trkpt lat="46.16974899" lon="7.02883693"><ele></ele><time>2014-4-6T18:18:18Z</time></trkpt>
<trkpt lat="46.17023296" lon="7.02861096"><ele></ele><time>2014-4-6T18:18:21Z</time></trkpt>
<trkpt lat="46.17059095" lon="7.02843695"><ele></ele><time>2014-4-6T18:18:24Z</time></trkpt>
<trkpt lat="46.17101097" lon="7.02823394"><ele></ele><time>2014-4-6T18:18:27Z</time></trkpt>
<trkpt lat="46.17155797" lon="7.02797192"><ele></ele><time>2014-4-6T18:18:30Z</time></trkpt>
<trkpt lat="46.17205200" lon="7.02774192"><ele></ele><time>2014-4-6T18:18:33Z</time></trkpt>
<trkpt lat="46.17249498" lon="7.02753799"><ele></ele><time>2014-4-6T18:18:36Z</time></trkpt>
<trkpt lat="46.17323192" lon="7.02719299"><ele></ele><time>2014-4-6T18:18:39Z</time></trkpt>
<trkpt lat="46.17369594" lon="7.02699694"><ele></ele><time>2014-4-6T18:18:42Z</time></trkpt>
<trkpt lat="46.17432794" lon="7.02680097"><ele></ele><time>2014-4-6T18:18:45Z</time></trkpt>
<trkpt lat="46.17495993" lon="7.02667993"><ele></ele><time>2014-4-6T18:18:48Z</time></trkpt>
<trkpt lat="46.17532094" lon="7.02663995"><ele></ele><time>2014-4-6T18:18:51Z</time></trkpt>
<trkpt lat="46.17567399" lon="7.02668597"><ele></ele><time>2014-4-6T18:18:54Z</time></trkpt>
<trkpt lat="46.17618796" lon="7.02674598"><ele></ele><time>2014-4-6T18:18:57Z</time></trkpt>
<trkpt lat="46.17662994" lon="7.02679292"><ele></ele><time>2014-4-6T18:19:0Z</time></trkpt>
<trkpt lat="46.17681392" lon="7.02684799"><ele></ele><time>2014-4-6T18:19:3Z</time></trkpt>
<trkpt lat="46.17702096" lon="7.02692494"><ele></ele><time>2014-4-6T18:19:6Z</time></trkpt>
<trkpt lat="46.17719899" lon="7.02698797"><ele></ele><time>2014-4-6T18:19:9Z</time></trkpt>
<trkpt lat="46.17751700" lon="7.02708193"><ele></ele><time>2014-4-6T18:19:12Z</time></trkpt>
<trkpt lat="46.17780693" lon="7.02717195"><ele></ele><time>2014-4-6T18:19:15Z</time></trkpt>
<trkpt lat="46.17796795" lon="7.02724999"><ele></ele><time>2014-4-6T18:19:18Z</time></trkpt>
<trkpt lat="46.17809594" lon="7.02734093"><ele></ele><time>2014-4-6T18:19:21Z</time></trkpt>
<trkpt lat="46.17831194" lon="7.02749097"><ele></ele><time>2014-4-6T18:19:24Z</time></trkpt>
<trkpt lat="46.17867898" lon="7.02775399"><ele></ele><time>2014-4-6T18:19:27Z</time></trkpt>
<trkpt lat="46.17893195" lon="7.02794292"><ele></ele><time>2014-4-6T18:19:30Z</time></trkpt>
<trkpt lat="46.17929597" lon="7.02824492"><ele></ele><time>2014-4-6T18:19:33Z</time></trkpt>
<trkpt lat="46.17958892" lon="7.02846495"><ele></ele><time>2014-4-6T18:19:36Z</time></trkpt>
<trkpt lat="46.17983996" lon="7.02867793"><ele></ele><time>2014-4-6T18:19:39Z</time></trkpt>
<trkpt lat="46.18013198" lon="7.02897792"><ele></ele><time>2014-4-6T18:19:42Z</time></trkpt>
<trkpt lat="46.18018094" lon="7.02902393"><ele></ele><time>2014-4-6T18:19:45Z</time></trkpt>
<trkpt lat="46.18048193" lon="7.02886996"><ele></ele><time>2014-4-6T18:19:48Z</time></trkpt>
<trkpt lat="46.18076096" lon="7.02899996"><ele></ele><time>2014-4-6T18:19:51Z</time></trkpt>
<trkpt lat="46.18109498" lon="7.02911597"><ele></ele><time>2014-4-6T18:19:54Z</time></trkpt>
<trkpt lat="46.18147493" lon="7.02922099"><ele></ele><time>2014-4-6T18:19:57Z</time></trkpt>
<trkpt lat="46.18179898" lon="7.02930397"><ele></ele><time>2014-4-6T18:20:0Z</time></trkpt>
<trkpt lat="46.18217197" lon="7.02934295"><ele></ele><time>2014-4-6T18:20:3Z</time></trkpt>
<trkpt lat="46.18248495" lon="7.02934295"><ele></ele><time>2014-4-6T18:20:6Z</time></trkpt>
<trkpt lat="46.18265695" lon="7.02934295"><ele></ele><time>2014-4-6T18:20:9Z</time></trkpt>
<trkpt lat="46.18292098" lon="7.02932895"><ele></ele><time>2014-4-6T18:20:12Z</time></trkpt>
<trkpt lat="46.18324695" lon="7.02928193"><ele></ele><time>2014-4-6T18:20:15Z</time></trkpt>
<trkpt lat="46.18352297" lon="7.02920792"><ele></ele><time>2014-4-6T18:20:18Z</time></trkpt>
<trkpt lat="46.18374492" lon="7.02913793"><ele></ele><time>2014-4-6T18:20:21Z</time></trkpt>
<trkpt lat="46.18401499" lon="7.02903793"><ele></ele><time>2014-4-6T18:20:24Z</time></trkpt>
<trkpt lat="46.18434498" lon="7.02889393"><ele></ele><time>2014-4-6T18:20:27Z</time></trkpt>
<trkpt lat="46.18459292" lon="7.02873300"><ele></ele><time>2014-4-6T18:20:30Z</time></trkpt>
<trkpt lat="46.18483893" lon="7.02856192"><ele></ele><time>2014-4-6T18:20:33Z</time></trkpt>
<trkpt lat="46.18522793" lon="7.02839194"><ele></ele><time>2014-4-6T18:20:36Z</time></trkpt>
<trkpt lat="46.18549892" lon="7.02828398"><ele></ele><time>2014-4-6T18:20:39Z</time></trkpt>
<trkpt lat="46.18594400" lon="7.02812498"><ele></ele><time>2014-4-6T18:20:42Z</time></trkpt>
<trkpt lat="46.18641992" lon="7.02798793"><ele></ele><time>2014-4-6T18:20:45Z</time></trkpt>
<trkpt lat="46.18690196" lon="7.02784393"><ele></ele><time>2014-4-6T18:20:48Z</time></trkpt>
<trkpt lat="46.18745299" lon="7.02767495"><ele></ele><time>2014-4-6T18:20:51Z</time></trkpt>
<trkpt lat="46.18782699" lon="7.02753598"><ele></ele><time>2014-4-6T18:20:54Z</time></trkpt>
<trkpt lat="46.18823293" lon="7.02735795"><ele></ele><time>2014-4-6T18:20:57Z</time></trkpt>
<trkpt lat="46.18860592" lon="7.02710699"><ele></ele><time>2014-4-6T18:21:0Z</time></trkpt>
<trkpt lat="46.18894598" lon="7.02682796"><ele></ele><time>2014-4-6T18:21:3Z</time></trkpt>
<trkpt lat="46.18935292" lon="7.02645597"><ele></ele><time>2014-4-6T18:21:6Z</time></trkpt>
<trkpt lat="46.18978894" lon="7.02604492"><ele></ele><time>2014-4-6T18:21:9Z</time></trkpt>
<trkpt lat="46.19030200" lon="7.02561795"><ele></ele><time>2014-4-6T18:21:12Z</time></trkpt>
<trkpt lat="46.19092695" lon="7.02522400"><ele></ele><time>2014-4-6T18:21:15Z</time></trkpt>
<trkpt lat="46.19151193" lon="7.02491697"><ele></ele><time>2014-4-6T18:21:18Z</time></trkpt>
<trkpt lat="46.19206396" lon="7.02462796"><ele></ele><time>2014-4-6T18:21:21Z</time></trkpt>
<trkpt lat="46.19247694" lon="7.02441598"><ele></ele><time>2014-4-6T18:21:24Z</time></trkpt>
<trkpt lat="46.19298798" lon="7.02416595"><ele></ele><time>2014-4-6T18:21:27Z</time></trkpt>
<trkpt lat="46.19343499" lon="7.02390896"><ele></ele><time>2014-4-6T18:21:30Z</time></trkpt>
<trkpt lat="46.19391292" lon="7.02362197"><ele></ele><time>2014-4-6T18:21:33Z</time></trkpt>
<trkpt lat="46.19442296" lon="7.02323196"><ele></ele><time>2014-4-6T18:21:36Z</time></trkpt>
<trkpt lat="46.19492596" lon="7.02276198"><ele></ele><time>2014-4-6T18:21:39Z</time></trkpt>
<trkpt lat="46.19539795" lon="7.02229000"><ele></ele><time>2014-4-6T18:21:42Z</time></trkpt>
<trkpt lat="46.19597395" lon="7.02173193"><ele></ele><time>2014-4-6T18:21:45Z</time></trkpt>
<trkpt lat="46.19666495" lon="7.02112894"><ele></ele><time>2014-4-6T18:21:48Z</time></trkpt>
<trkpt lat="46.19720399" lon="7.02066097"><ele></ele><time>2014-4-6T18:21:51Z</time></trkpt>
<trkpt lat="46.19776692" lon="7.02017692"><ele></ele><time>2014-4-6T18:21:54Z</time></trkpt>
<trkpt lat="46.19816800" lon="7.01983594"><ele></ele><time>2014-4-6T18:21:57Z</time></trkpt>
<trkpt lat="46.19865398" lon="7.01939195"><ele></ele><time>2014-4-6T18:22:0Z</time></trkpt>
<trkpt lat="46.19921498" lon="7.01888292"><ele></ele><time>2014-4-6T18:22:3Z</time></trkpt>
<trkpt lat="46.19948194" lon="7.01837992"><ele></ele><time>2014-4-6T18:22:6Z</time></trkpt>
<trkpt lat="46.19952193" lon="7.01823399"><ele></ele><time>2014-4-6T18:22:9Z</time></trkpt>
<trkpt lat="46.19970197" lon="7.01727293"><ele></ele><time>2014-4-6T18:22:12Z</time></trkpt>
<trkpt lat="46.20017094" lon="7.01513395"><ele></ele><time>2014-4-6T18:22:15Z</time></trkpt>
<trkpt lat="46.20043396" lon="7.01416399"><ele></ele><time>2014-4-6T18:22:18Z</time></trkpt>
<trkpt lat="46.20076798" lon="7.01326294"><ele></ele><time>2014-4-6T18:22:21Z</time></trkpt>
<trkpt lat="46.20116394" lon="7.01243598"><ele></ele><time>2014-4-6T18:22:24Z</time></trkpt>
<trkpt lat="46.20218796" lon="7.01080696"><ele></ele><time>2014-4-6T18:22:27Z</time></trkpt>
<trkpt lat="46.20265894" lon="7.01028493"><ele></ele><time>2014-4-6T18:22:30Z</time></trkpt>
<trkpt lat="46.20325296" lon="7.00971697"><ele></ele><time>2014-4-6T18:22:33Z</time></trkpt>
<trkpt lat="46.20392192" lon="7.00918992"><ele></ele><time>2014-4-6T18:22:36Z</time></trkpt>
<trkpt lat="46.20447094" lon="7.00875792"><ele></ele><time>2014-4-6T18:22:39Z</time></trkpt>
<trkpt lat="46.20488995" lon="7.00843094"><ele></ele><time>2014-4-6T18:22:42Z</time></trkpt>
<trkpt lat="46.20548800" lon="7.00796298"><ele></ele><time>2014-4-6T18:22:45Z</time></trkpt>
<trkpt lat="46.20584498" lon="7.00769593"><ele></ele><time>2014-4-6T18:22:48Z</time></trkpt>
<trkpt lat="46.20626299" lon="7.00738999"><ele></ele><time>2014-4-6T18:22:51Z</time></trkpt>
<trkpt lat="46.20675894" lon="7.00702295"><ele></ele><time>2014-4-6T18:22:54Z</time></trkpt>
<trkpt lat="46.20716094" lon="7.00672497"><ele></ele><time>2014-4-6T18:22:57Z</time></trkpt>
<trkpt lat="46.20745498" lon="7.00650092"><ele></ele><time>2014-4-6T18:23:0Z</time></trkpt>
<trkpt lat="46.20773393" lon="7.00624997"><ele></ele><time>2014-4-6T18:23:3Z</time></trkpt>
<trkpt lat="46.20800198" lon="7.00594093"><ele></ele><time>2014-4-6T18:23:6Z</time></trkpt>
<trkpt lat="46.20811396" lon="7.00585694"><ele></ele><time>2014-4-6T18:23:9Z</time></trkpt>
<trkpt lat="46.20837992" lon="7.00583993"><ele></ele><time>2014-4-6T18:23:12Z</time></trkpt>
<trkpt lat="46.20857094" lon="7.00601997"><ele></ele><time>2014-4-6T18:23:15Z</time></trkpt>
<trkpt lat="46.20860095" lon="7.00626598"><ele></ele><time>2014-4-6T18:23:18Z</time></trkpt>
<trkpt lat="46.20858192" lon="7.00640394"><ele></ele><time>2014-4-6T18:23:21Z</time></trkpt>
<trkpt lat="46.20854194" lon="7.00655700"><ele></ele><time>2014-4-6T18:23:24Z</time></trkpt>
<trkpt lat="46.20855493" lon="7.00675297"><ele></ele><time>2014-4-6T18:23:27Z</time></trkpt>
<trkpt lat="46.20870497" lon="7.00686394"><ele></ele><time>2014-4-6T18:23:30Z</time></trkpt>
<trkpt lat="46.20882994" lon="7.00677895"><ele></ele><time>2014-4-6T18:23:33Z</time></trkpt>
<trkpt lat="46.20897898" lon="7.00659597"><ele></ele><time>2014-4-6T18:23:36Z</time></trkpt>
<trkpt lat="46.20938592" lon="7.00643093"><ele></ele><time>2014-4-6T18:23:39Z</time></trkpt>
<trkpt lat="46.20986293" lon="7.00626992"><ele></ele><time>2014-4-6T18:23:42Z</time></trkpt>
<trkpt lat="46.21041496" lon="7.00609993"><ele></ele><time>2014-4-6T18:23:45Z</time></trkpt>
<trkpt lat="46.21093598" lon="7.00596197"><ele></ele><time>2014-4-6T18:23:48Z</time></trkpt>
<trkpt lat="46.21148592" lon="7.00590195"><ele></ele><time>2014-4-6T18:23:51Z</time></trkpt>
<trkpt lat="46.21180192" lon="7.00591897"><ele></ele><time>2014-4-6T18:23:54Z</time></trkpt>
<trkpt lat="46.21200392" lon="7.00577999"><ele></ele><time>2014-4-6T18:23:57Z</time></trkpt>
<trkpt lat="46.21220492" lon="7.00562200"><ele></ele><time>2014-4-6T18:24:0Z</time></trkpt>
<trkpt lat="46.21285695" lon="7.00544095"><ele></ele><time>2014-4-6T18:24:3Z</time></trkpt>
<trkpt lat="46.21352792" lon="7.00525193"><ele></ele><time>2014-4-6T18:24:6Z</time></trkpt>
<trkpt lat="46.21403695" lon="7.00511397"><ele></ele><time>2014-4-6T18:24:9Z</time></trkpt>
<trkpt lat="46.21453894" lon="7.00494993"><ele></ele><time>2014-4-6T18:24:12Z</time></trkpt>
<trkpt lat="46.21498595" lon="7.00485094"><ele></ele><time>2014-4-6T18:24:15Z</time></trkpt>
<trkpt lat="46.21510598" lon="7.00480199"><ele></ele><time>2014-4-6T18:24:18Z</time></trkpt>
<trkpt lat="46.21554100" lon="7.00469596"><ele></ele><time>2014-4-6T18:24:21Z</time></trkpt>
<trkpt lat="46.21617199" lon="7.00456395"><ele></ele><time>2014-4-6T18:24:24Z</time></trkpt>
<trkpt lat="46.21640098" lon="7.00453294"><ele></ele><time>2014-4-6T18:24:27Z</time></trkpt>
<trkpt lat="46.21676694" lon="7.00447493"><ele></ele><time>2014-4-6T18:24:30Z</time></trkpt>
<trkpt lat="46.21699392" lon="7.00441198"><ele></ele><time>2014-4-6T18:24:33Z</time></trkpt>
<trkpt lat="46.21708595" lon="7.00439799"><ele></ele><time>2014-4-6T18:24:36Z</time></trkpt>
<trkpt lat="46.21735199" lon="7.00448600"><ele></ele><time>2014-4-6T18:24:39Z</time></trkpt>
<trkpt lat="46.21750396" lon="7.00451693"><ele></ele><time>2014-4-6T18:24:42Z</time></trkpt>
<trkpt lat="46.21764394" lon="7.00446798"><ele></ele><time>2014-4-6T18:24:45Z</time></trkpt>
<trkpt lat="46.21790193" lon="7.00447393"><ele></ele><time>2014-4-6T18:24:48Z</time></trkpt>
<trkpt lat="46.21805700" lon="7.00450192"><ele></ele><time>2014-4-6T18:24:51Z</time></trkpt>
<trkpt lat="46.21824794" lon="7.00453193"><ele></ele><time>2014-4-6T18:24:54Z</time></trkpt>
<trkpt lat="46.21845597" lon="7.00458398"><ele></ele><time>2014-4-6T18:24:57Z</time></trkpt>
<trkpt lat="46.21859897" lon="7.00459194"><ele></ele><time>2014-4-6T18:25:0Z</time></trkpt>
<trkpt lat="46.21875194" lon="7.00462195"><ele></ele><time>2014-4-6T18:25:3Z</time></trkpt>
<trkpt lat="46.21895394" lon="7.00461893"><ele></ele><time>2014-4-6T18:25:6Z</time></trkpt>
<trkpt lat="46.21915896" lon="7.00464492"><ele></ele><time>2014-4-6T18:25:9Z</time></trkpt>
<trkpt lat="46.21933700" lon="7.00465498"><ele></ele><time>2014-4-6T18:25:12Z</time></trkpt>
<trkpt lat="46.21960497" lon="7.00466596"><ele></ele><time>2014-4-6T18:25:15Z</time></trkpt>
<trkpt lat="46.21981795" lon="7.00465397"><ele></ele><time>2014-4-6T18:25:18Z</time></trkpt>
<trkpt lat="46.21997394" lon="7.00465095"><ele></ele><time>2014-4-6T18:25:21Z</time></trkpt>
<trkpt lat="46.22025498" lon="7.00461198"><ele></ele><time>2014-4-6T18:25:24Z</time></trkpt>
<trkpt lat="46.22053192" lon="7.00457895"><ele></ele><time>2014-4-6T18:25:27Z</time></trkpt>
<trkpt lat="46.22080400" lon="7.00457392"><ele></ele><time>2014-4-6T18:25:30Z</time></trkpt>
<trkpt lat="46.22104498" lon="7.00448097"><ele></ele><time>2014-4-6T18:25:33Z</time></trkpt>
<trkpt lat="46.22134195" lon="7.00448499"><ele></ele><time>2014-4-6T18:25:36Z</time></trkpt>
<trkpt lat="46.22167194" lon="7.00441894"><ele></ele><time>2014-4-6T18:25:39Z</time></trkpt>
<trkpt lat="46.22197294" lon="7.00423596"><ele></ele><time>2014-4-6T18:25:42Z</time></trkpt>
<trkpt lat="46.22249899" lon="7.00385794"><ele></ele><time>2014-4-6T18:25:45Z</time></trkpt>
<trkpt lat="46.22296795" lon="7.00354999"><ele></ele><time>2014-4-6T18:25:48Z</time></trkpt>
<trkpt lat="46.22330499" lon="7.00334094"><ele></ele><time>2014-4-6T18:25:51Z</time></trkpt>
<trkpt lat="46.22333793" lon="7.00330792"><ele></ele><time>2014-4-6T18:25:54Z</time></trkpt>
<trkpt lat="46.22373196" lon="7.00296896"><ele></ele><time>2014-4-6T18:25:57Z</time></trkpt>
<trkpt lat="46.22416598" lon="7.00251298"><ele></ele><time>2014-4-6T18:26:0Z</time></trkpt>
<trkpt lat="46.22465598" lon="7.00225398"><ele></ele><time>2014-4-6T18:26:3Z</time></trkpt>
<trkpt lat="46.22503392" lon="7.00210596"><ele></ele><time>2014-4-6T18:26:6Z</time></trkpt>
<trkpt lat="46.22537398" lon="7.00192398"><ele></ele><time>2014-4-6T18:26:9Z</time></trkpt>
<trkpt lat="46.22547892" lon="7.00186296"><ele></ele><time>2014-4-6T18:26:12Z</time></trkpt>
<trkpt lat="46.22557498" lon="7.00163799"><ele></ele><time>2014-4-6T18:26:15Z</time></trkpt>
<trkpt lat="46.22570498" lon="7.00128897"><ele></ele><time>2014-4-6T18:26:18Z</time></trkpt>
<trkpt lat="46.22590296" lon="7.00126098"><ele></ele><time>2014-4-6T18:26:21Z</time></trkpt>
<trkpt lat="46.22599692" lon="7.00126793"><ele></ele><time>2014-4-6T18:26:24Z</time></trkpt>
<trkpt lat="46.22638693" lon="7.00122795"><ele></ele><time>2014-4-6T18:26:27Z</time></trkpt>
<trkpt lat="46.22681793" lon="7.00116492"><ele></ele><time>2014-4-6T18:26:30Z</time></trkpt>
<trkpt lat="46.22721992" lon="7.00109694"><ele></ele><time>2014-4-6T18:26:33Z</time></trkpt>
<trkpt lat="46.22774798" lon="7.00098597"><ele></ele><time>2014-4-6T18:26:36Z</time></trkpt>
<trkpt lat="46.22821393" lon="7.00086795"><ele></ele><time>2014-4-6T18:26:39Z</time></trkpt>
<trkpt lat="46.22871400" lon="7.00067793"><ele></ele><time>2014-4-6T18:26:42Z</time></trkpt>
<trkpt lat="46.22916000" lon="7.00042899"><ele></ele><time>2014-4-6T18:26:45Z</time></trkpt>
<trkpt lat="46.22961296" lon="7.00011299"><ele></ele><time>2014-4-6T18:26:48Z</time></trkpt>
<trkpt lat="46.23016398" lon="6.99962500"><ele></ele><time>2014-4-6T18:26:51Z</time></trkpt>
<trkpt lat="46.23075893" lon="6.99903399"><ele></ele><time>2014-4-6T18:26:54Z</time></trkpt>
<trkpt lat="46.23107594" lon="6.99865697"><ele></ele><time>2014-4-6T18:26:57Z</time></trkpt>
<trkpt lat="46.23142999" lon="6.99825699"><ele></ele><time>2014-4-6T18:27:0Z</time></trkpt>
<trkpt lat="46.23181094" lon="6.99777796"><ele></ele><time>2014-4-6T18:27:3Z</time></trkpt>
<trkpt lat="46.23219400" lon="6.99737496"><ele></ele><time>2014-4-6T18:27:6Z</time></trkpt>
<trkpt lat="46.23264394" lon="6.99687297"><ele></ele><time>2014-4-6T18:27:9Z</time></trkpt>
<trkpt lat="46.23282792" lon="6.99655093"><ele></ele><time>2014-4-6T18:27:12Z</time></trkpt>
<trkpt lat="46.23305993" lon="6.99630300"><ele></ele><time>2014-4-6T18:27:15Z</time></trkpt>
<trkpt lat="46.23332396" lon="6.99608892"><ele></ele><time>2014-4-6T18:27:18Z</time></trkpt>
<trkpt lat="46.23389896" lon="6.99540295"><ele></ele><time>2014-4-6T18:27:21Z</time></trkpt>
<trkpt lat="46.23404799" lon="6.99521695"><ele></ele><time>2014-4-6T18:27:24Z</time></trkpt>
<trkpt lat="46.23427296" lon="6.99514495"><ele></ele><time>2014-4-6T18:27:27Z</time></trkpt>
<trkpt lat="46.23451193" lon="6.99516993"><ele></ele><time>2014-4-6T18:27:30Z</time></trkpt>
<trkpt lat="46.23476598" lon="6.99529096"><ele></ele><time>2014-4-6T18:27:33Z</time></trkpt>
<trkpt lat="46.23513395" lon="6.99562892"><ele></ele><time>2014-4-6T18:27:36Z</time></trkpt>
<trkpt lat="46.23563695" lon="6.99613494"><ele></ele><time>2014-4-6T18:27:39Z</time></trkpt>
<trkpt lat="46.23576494" lon="6.99609697"><ele></ele><time>2014-4-6T18:27:42Z</time></trkpt>
<trkpt lat="46.23579897" lon="6.99603796"><ele></ele><time>2014-4-6T18:27:45Z</time></trkpt>
<trkpt lat="46.23609594" lon="6.99555692"><ele></ele><time>2014-4-6T18:27:48Z</time></trkpt>
<trkpt lat="46.23633198" lon="6.99532399"><ele></ele><time>2014-4-6T18:27:51Z</time></trkpt>
<trkpt lat="46.23651294" lon="6.99522592"><ele></ele><time>2014-4-6T18:27:54Z</time></trkpt>
<trkpt lat="46.23683900" lon="6.99505099"><ele></ele><time>2014-4-6T18:27:57Z</time></trkpt>
<trkpt lat="46.23717193" lon="6.99486894"><ele></ele><time>2014-4-6T18:28:0Z</time></trkpt>
<trkpt lat="46.23744694" lon="6.99476198"><ele></ele><time>2014-4-6T18:28:3Z</time></trkpt>
<trkpt lat="46.23779898" lon="6.99468194"><ele></ele><time>2014-4-6T18:28:6Z</time></trkpt>
<trkpt lat="46.23841697" lon="6.99443995"><ele></ele><time>2014-4-6T18:28:9Z</time></trkpt>
<trkpt lat="46.23900496" lon="6.99408992"><ele></ele><time>2014-4-6T18:28:12Z</time></trkpt>
<trkpt lat="46.23977995" lon="6.99350595"><ele></ele><time>2014-4-6T18:28:15Z</time></trkpt>
<trkpt lat="46.24015194" lon="6.99311796"><ele></ele><time>2014-4-6T18:28:18Z</time></trkpt>
<trkpt lat="46.24070800" lon="6.99249292"><ele></ele><time>2014-4-6T18:28:21Z</time></trkpt>
<trkpt lat="46.24112693" lon="6.99204599"><ele></ele><time>2014-4-6T18:28:24Z</time></trkpt>
<trkpt lat="46.24150696" lon="6.99167795"><ele></ele><time>2014-4-6T18:28:27Z</time></trkpt>
<trkpt lat="46.24191198" lon="6.99134996"><ele></ele><time>2014-4-6T18:28:30Z</time></trkpt>
<trkpt lat="46.24225396" lon="6.99094696"><ele></ele><time>2014-4-6T18:28:33Z</time></trkpt>
<trkpt lat="46.24257096" lon="6.99057296"><ele></ele><time>2014-4-6T18:28:36Z</time></trkpt>
<trkpt lat="46.24279099" lon="6.99030692"><ele></ele><time>2014-4-6T18:28:39Z</time></trkpt>
<trkpt lat="46.24284195" lon="6.99020994"><ele></ele><time>2014-4-6T18:28:42Z</time></trkpt>
<trkpt lat="46.24294697" lon="6.99024900"><ele></ele><time>2014-4-6T18:28:45Z</time></trkpt>
<trkpt lat="46.24309994" lon="6.99053398"><ele></ele><time>2014-4-6T18:28:48Z</time></trkpt>
<trkpt lat="46.24332592" lon="6.99094092"><ele></ele><time>2014-4-6T18:28:51Z</time></trkpt>
<trkpt lat="46.24345198" lon="6.99115399"><ele></ele><time>2014-4-6T18:28:54Z</time></trkpt>
<trkpt lat="46.24372498" lon="6.99165699"><ele></ele><time>2014-4-6T18:28:57Z</time></trkpt>
<trkpt lat="46.24414198" lon="6.99241597"><ele></ele><time>2014-4-6T18:29:0Z</time></trkpt>
<trkpt lat="46.24417199" lon="6.99248797"><ele></ele><time>2014-4-6T18:29:3Z</time></trkpt>
<trkpt lat="46.24436192" lon="6.99321594"><ele></ele><time>2014-4-6T18:29:6Z</time></trkpt>
<trkpt lat="46.24450098" lon="6.99381692"><ele></ele><time>2014-4-6T18:29:9Z</time></trkpt>
<trkpt lat="46.24471195" lon="6.99447499"><ele></ele><time>2014-4-6T18:29:12Z</time></trkpt>
<trkpt lat="46.24474992" lon="6.99460499"><ele></ele><time>2014-4-6T18:29:15Z</time></trkpt>
<trkpt lat="46.24480499" lon="6.99487095"><ele></ele><time>2014-4-6T18:29:18Z</time></trkpt>
<trkpt lat="46.24496894" lon="6.99562297"><ele></ele><time>2014-4-6T18:29:21Z</time></trkpt>
<trkpt lat="46.24508092" lon="6.99617995"><ele></ele><time>2014-4-6T18:29:24Z</time></trkpt>
<trkpt lat="46.24522392" lon="6.99658899"><ele></ele><time>2014-4-6T18:29:27Z</time></trkpt>
<trkpt lat="46.24525895" lon="6.99671094"><ele></ele><time>2014-4-6T18:29:30Z</time></trkpt>
<trkpt lat="46.24541192" lon="6.99694999"><ele></ele><time>2014-4-6T18:29:33Z</time></trkpt>
<trkpt lat="46.24544897" lon="6.99699098"><ele></ele><time>2014-4-6T18:29:36Z</time></trkpt>
<trkpt lat="46.24548392" lon="6.99724495"><ele></ele><time>2014-4-6T18:29:39Z</time></trkpt>
<trkpt lat="46.24543497" lon="6.99744092"><ele></ele><time>2014-4-6T18:29:42Z</time></trkpt>
<trkpt lat="46.24542500" lon="6.99777494"><ele></ele><time>2014-4-6T18:29:45Z</time></trkpt>
<trkpt lat="46.24543699" lon="6.99784292"><ele></ele><time>2014-4-6T18:29:48Z</time></trkpt>
<trkpt lat="46.24559993" lon="6.99858095"><ele></ele><time>2014-4-6T18:29:51Z</time></trkpt>
<trkpt lat="46.24571099" lon="6.99911898"><ele></ele><time>2014-4-6T18:29:54Z</time></trkpt>
<trkpt lat="46.24583194" lon="6.99966799"><ele></ele><time>2014-4-6T18:29:57Z</time></trkpt>
<trkpt lat="46.24598994" lon="7.00038792"><ele></ele><time>2014-4-6T18:30:0Z</time></trkpt>
<trkpt lat="46.24615297" lon="7.00110893"><ele></ele><time>2014-4-6T18:30:3Z</time></trkpt>
<trkpt lat="46.24624399" lon="7.00155996"><ele></ele><time>2014-4-6T18:30:6Z</time></trkpt>
<trkpt lat="46.24628096" lon="7.00168493"><ele></ele><time>2014-4-6T18:30:9Z</time></trkpt>
<trkpt lat="46.24641499" lon="7.00221894"><ele></ele><time>2014-4-6T18:30:12Z</time></trkpt>
<trkpt lat="46.24644994" lon="7.00236294"><ele></ele><time>2014-4-6T18:30:15Z</time></trkpt>
<trkpt lat="46.24660098" lon="7.00290098"><ele></ele><time>2014-4-6T18:30:18Z</time></trkpt>
<trkpt lat="46.24674196" lon="7.00331395"><ele></ele><time>2014-4-6T18:30:21Z</time></trkpt>
<trkpt lat="46.24681195" lon="7.00356399"><ele></ele><time>2014-4-6T18:30:24Z</time></trkpt>
<trkpt lat="46.24680500" lon="7.00376993"><ele></ele><time>2014-4-6T18:30:27Z</time></trkpt>
<trkpt lat="46.24700197" lon="7.00401393"><ele></ele><time>2014-4-6T18:30:30Z</time></trkpt>
<trkpt lat="46.24704195" lon="7.00405894"><ele></ele><time>2014-4-6T18:30:33Z</time></trkpt>
<trkpt lat="46.24726198" lon="7.00446898"><ele></ele><time>2014-4-6T18:30:36Z</time></trkpt>
<trkpt lat="46.24751494" lon="7.00524699"><ele></ele><time>2014-4-6T18:30:39Z</time></trkpt>
<trkpt lat="46.24765098" lon="7.00586599"><ele></ele><time>2014-4-6T18:30:42Z</time></trkpt>
<trkpt lat="46.24773799" lon="7.00639497"><ele></ele><time>2014-4-6T18:30:45Z</time></trkpt>
<trkpt lat="46.24775098" lon="7.00650997"><ele></ele><time>2014-4-6T18:30:48Z</time></trkpt>
<trkpt lat="46.24760195" lon="7.00679798"><ele></ele><time>2014-4-6T18:30:51Z</time></trkpt>
<trkpt lat="46.24741595" lon="7.00705396"><ele></ele><time>2014-4-6T18:30:54Z</time></trkpt>
<trkpt lat="46.24723197" lon="7.00722495"><ele></ele><time>2014-4-6T18:30:57Z</time></trkpt>
<trkpt lat="46.24719794" lon="7.00725395"><ele></ele><time>2014-4-6T18:31:0Z</time></trkpt>
<trkpt lat="46.24697498" lon="7.00742193"><ele></ele><time>2014-4-6T18:31:3Z</time></trkpt>
<trkpt lat="46.24668195" lon="7.00766894"><ele></ele><time>2014-4-6T18:31:6Z</time></trkpt>
<trkpt lat="46.24647793" lon="7.00797999"><ele></ele><time>2014-4-6T18:31:9Z</time></trkpt>
<trkpt lat="46.24634198" lon="7.00822793"><ele></ele><time>2014-4-6T18:31:12Z</time></trkpt>
<trkpt lat="46.24618398" lon="7.00859196"><ele></ele><time>2014-4-6T18:31:15Z</time></trkpt>
<trkpt lat="46.24603495" lon="7.00887694"><ele></ele><time>2014-4-6T18:31:18Z</time></trkpt>
<trkpt lat="46.24599497" lon="7.00908297"><ele></ele><time>2014-4-6T18:31:21Z</time></trkpt>
<trkpt lat="46.24606797" lon="7.00930995"><ele></ele><time>2014-4-6T18:31:24Z</time></trkpt>
<trkpt lat="46.24617493" lon="7.00962896"><ele></ele><time>2014-4-6T18:31:27Z</time></trkpt>
<trkpt lat="46.24631792" lon="7.01006298"><ele></ele><time>2014-4-6T18:31:30Z</time></trkpt>
<trkpt lat="46.24640493" lon="7.01049197"><ele></ele><time>2014-4-6T18:31:33Z</time></trkpt>
<trkpt lat="46.24648992" lon="7.01088198"><ele></ele><time>2014-4-6T18:31:36Z</time></trkpt>
<trkpt lat="46.24653795" lon="7.01130099"><ele></ele><time>2014-4-6T18:31:39Z</time></trkpt>
<trkpt lat="46.24657994" lon="7.01172394"><ele></ele><time>2014-4-6T18:31:42Z</time></trkpt>
<trkpt lat="46.24658799" lon="7.01177498"><ele></ele><time>2014-4-6T18:31:45Z</time></trkpt>
<trkpt lat="46.24649696" lon="7.01190993"><ele></ele><time>2014-4-6T18:31:48Z</time></trkpt>
<trkpt lat="46.24623796" lon="7.01219399"><ele></ele><time>2014-4-6T18:31:51Z</time></trkpt>
<trkpt lat="46.24616194" lon="7.01239994"><ele></ele><time>2014-4-6T18:31:54Z</time></trkpt>
<trkpt lat="46.24616696" lon="7.01246599"><ele></ele><time>2014-4-6T18:31:57Z</time></trkpt>
</trkseg></trk></gpx>